[[{"header":{"parameterUnit":"m.s-1","parameterCategory":1,"la1":31.0,"la2":29.5877,"lo1":-88.7671,"lo2":-86.6584,"dy":0.0162,"dx":0.0185,"nx":115,"ny":88,"refTime":"2023-07-26T12:00:00:Z","depth":0,"parameterNumber":2,"parameterNumberName":"U-component_of_WINDS"},"data":[0.0,0.0,0.0,0.0,0.0,0.0,0.0,0.0,0.0,0.0,0.0,0.0,0.0,0.0,0.0,0.0,0.0,0.0,0.0,0.0,0.0,0.0,0.0,0.0,0.0,0.0,0.0,0.0,0.0,0.0,0.0,0.0,0.0,0.0,0.0,0.0,0.0,0.0,0.0,0.0,0.0,0.0,0.0,0.0,0.0,0.0,0.0,0.0,0.0,0.0,0.0,0.0,0.0,0.0,0.0,0.0,0.0,0.0,0.0,0.0,0.0,0.0,0.0,0.0,0.0,0.0,0.0,0.0,0.0,0.0,0.0,0.0,0.0,0.0,0.0,0.0,0.0,0.0,0.0,0.0,0.0,0.0,0.0,0.0,0.0,0.0,0.0,0.0,0.0,0.0,0.0,0.0,0.0,0.0,0.0,0.0,0.0,0.0,0.0,0.0,0.0,0.0,0.0,0.0,0.0,0.0,0.0,0.0,0.0,0.0,0.0,0.0,0.0,0.0,0.0,0.0,0.0,0.0,0.0,0.0,0.0,0.0,0.0,0.0,0.0,0.0,0.0,0.0,0.0,0.0,0.0,0.0,0.0,0.0,0.0,0.0,0.0,0.0,0.0,0.0,0.0,0.0,0.0,0.0,0.0,0.0,0.0,0.0,0.0,0.0,0.0,0.0,0.0,0.0,0.0,0.0,0.0,0.0,0.0,0.0,0.0,0.0,0.0,0.0,0.0,0.0,0.0,0.0,0.0,0.0,0.0,0.0,0.0,0.0,0.0,0.0,0.0,0.0,0.0,0.0,0.0,0.0,0.0,0.0,0.0,0.0,0.0,0.0,0.0,0.0,0.0,0.0,0.0,0.0,0.0,0.0,0.0,0.0,0.0,0.0,0.0,0.0,0.0,0.0,0.0,0.0,0.0,0.0,0.0,0.0,0.0,0.0,0.0,0.0,0.0,0.0,0.0,0.0,0.0,0.0,0.0,0.0,0.0,0.0,0.0,0.0,0.0,0.0,0.0,0.0,0.0,0.0,0.0,0.0,0.0,0.0,0.0,0.0,0.0,0.0,0.0,0.0,0.0,0.0,0.0,0.0,0.0,0.0,0.0,0.0,0.0,0.0,0.0,0.0,0.0,0.0,0.0,0.0,0.0,0.0,0.0,0.0,0.0,0.0,0.0,0.0,0.0,0.0,0.0,0.0,0.0,0.0,0.0,0.0,0.0,0.0,0.0,0.0,0.0,0.0,0.0,0.0,0.0,0.0,0.0,0.0,0.0,0.0,0.0,0.0,0.0,0.0,0.0,0.0,0.0,0.0,0.0,0.0,0.0,0.0,0.0,0.0,0.0,0.0,0.0,0.0,0.0,0.0,0.0,0.0,0.0,0.0,0.0,0.0,0.0,0.0,0.0,0.0,0.0,0.0,0.0,0.0,0.0,0.0,0.0,0.0,0.0,0.0,0.0,0.0,0.0,0.0,0.0,0.0,0.0,0.0,0.0,0.0,0.0,0.0,0.0,0.0,0.0,0.0,0.0,0.0,0.0,0.0,0.0,0.0,0.0,0.0,0.0,0.0,0.0,0.0,0.0,0.0,0.0,0.0,0.0,0.0,0.0,0.0,0.0,0.0,0.0,0.0,0.0,0.0,0.0,0.0,0.0,0.0,0.0,0.0,0.0,0.0,0.0,0.0,0.0,0.0,0.0,0.0,0.0,0.0,0.0,0.0,0.0,0.0,0.0,0.0,0.0,0.0,0.0,0.0,0.0,0.0,0.0,0.0,0.0,0.0,0.0,0.0,0.0,0.0,0.0,0.0,0.0,0.0,0.0,0.0,0.0,0.0,0.0,0.0,0.0,0.0,0.0,0.0,0.0,0.0,0.0,0.0,0.0,0.0,0.0,0.0,0.0,0.0,0.0,0.0,0.0,0.0,0.0,0.0,0.0,0.0,0.0,0.0,0.0,0.0,0.0,0.0,0.0,0.0,0.0,0.0,0.0,0.0,0.0,0.0,0.0,0.0,0.0,0.0,0.0,0.0,0.0,0.0,0.0,0.0,0.0,0.0,0.0,0.0,0.0,0.0,0.0,0.0,0.0,0.0,0.0,0.0,0.0,0.0,0.0,0.0,0.0,0.0,0.0,0.0,0.0,0.0,0.0,0.0,0.0,0.0,0.0,0.0,0.0,0.0,0.0,0.0,0.0,0.0,0.0,0.0,0.0,0.0,0.0,0.0,0.0,0.0,0.0,0.0,0.0,0.0,0.0,0.0,0.0,0.0,0.0,0.0,0.0,0.0,0.0,0.0,0.0,0.0,0.0,0.0,0.0,0.0,0.0,0.0,0.0,0.0,0.0,0.0,0.0,0.0,0.0,0.0,0.0,0.0,0.0,0.0,0.0,0.0,0.0,0.0,0.0,0.0,0.0,0.0,0.0,0.0,0.0,0.0,0.0,0.0,0.0,0.0,0.0,0.0,0.0,0.0,0.0,0.0,0.0,0.0,0.0,0.0,0.0,0.0,0.0,0.0,0.0,0.0,0.0,0.0,0.0,0.0,0.0,0.0,0.0,0.0,0.0,0.0,0.0,0.0,0.0,0.0,0.0,0.0,0.0,0.0,0.0,0.0,0.0,0.0,0.0,0.0,0.0,0.0,0.0,0.0,0.0,0.0,0.0,0.0,0.0,0.0,0.0,0.0,0.0,0.0,0.0,0.0,0.0,0.0,0.0,0.0,0.0,0.0,0.0,0.0,0.0,0.0,0.0,0.0,0.0,0.0,0.0,0.0,0.0,0.0,0.0,0.0,0.0,0.0,0.0,0.0,0.0,0.0,0.0,0.0,0.0,0.0,0.0,0.0,0.0,0.0,0.0,0.0,0.0,0.0,0.0,0.0,0.0,0.0,0.0,0.0,0.0,0.0,0.0,0.0,0.0,0.0,0.0,0.0,0.0,0.0,0.0,0.0,0.0,0.0,0.0,0.0,0.0,0.0,0.0,0.0,0.0,0.0,0.0,0.0,0.0,0.0,0.0,0.0,0.0,0.0,0.0,0.0,0.0,0.0,0.0,0.0,0.0,0.0,0.0,0.0,0.0,0.0,0.0,0.0,0.0,0.0,0.0,0.0,0.0,0.0,0.0,0.0,0.0,0.0,0.0,0.0,0.0,0.0,0.0,0.0,0.0,0.0,0.0,0.0,0.0,0.0,0.0,0.0,0.0,0.0,0.0,0.0,0.0,0.0,0.0,0.0,0.0,0.0,0.0,0.0,0.0,0.0,0.0,0.0,0.0,0.0,0.0,0.0,0.0,0.0,0.0,0.0,0.0,0.0,0.0,0.0,0.0,0.0,0.0,0.0,0.0,0.0,0.0,0.0,0.0,0.0,0.0,0.0,0.0,0.0,0.0,0.0,0.0,0.0,0.0,0.0,0.0,0.0,0.0,0.0,0.0,0.0,0.0,0.0,0.0,0.0,0.0,0.0,0.0,0.0,0.0,0.0,0.0,0.0,0.0,0.0,0.0,0.0,0.0,0.0,0.0,0.0,0.0,0.0,0.0,0.0,0.0,0.0,0.0,0.0,0.0,0.0,0.0,0.0,0.0,0.0,0.0,0.0,0.0,0.0,0.0,0.0,0.0,0.0,0.0,0.0,0.0,0.0,0.0,0.0,0.0,0.0,0.0,0.0,0.0,0.0,0.0,0.0,0.0,0.0,0.0,0.0,0.0,0.0,0.0,0.0,0.0,0.0,0.0,0.0,0.0,0.0,0.0,0.0,0.0,0.0,0.0,0.0,0.0,0.0,0.0,0.0,0.0,0.0,0.0,0.0,0.0,0.0,0.0,0.0,0.0,0.0,0.0,0.0,0.0,0.0,0.0,0.0,0.0,0.0,0.0,0.0,0.0,0.0,0.0,0.0,0.0,0.0,0.0,0.0,0.0,0.0,0.0,0.0,0.0,0.0,0.0,0.0,0.0,0.0,0.0,0.0,0.0,0.0,0.0,0.0,0.0,0.0,0.0,0.0,0.0,0.0,0.0,0.0,0.0,0.0,0.0,0.0,0.0,0.0,0.0,0.0,0.0,0.0,0.0,0.0,0.0,0.0,0.0,0.0,0.0,0.0,0.0,0.0,0.0,0.0,0.0,0.0,0.0,0.0,0.0,0.0,0.0,0.0,0.0,0.0,0.0,0.0,0.0,0.0,0.0,0.0,0.0,0.0,0.0,0.0,0.0,0.0,0.0,0.0,0.0,0.0,0.0,0.0,0.0,0.0,0.0,0.0,0.0,0.0,0.0,0.0,-2.3247,0.0,0.0,0.0,0.0,0.0,0.0,0.0,0.0,0.0,0.0,0.0,0.0,0.0,0.0,0.0,0.0,0.0,0.0,0.0,0.0,0.0,0.0,0.0,0.0,0.0,0.0,0.0,0.0,0.0,0.0,0.0,0.0,0.0,0.0,0.0,0.0,0.0,0.0,0.0,0.0,0.0,0.0,0.0,0.0,0.0,0.0,0.0,0.0,0.0,0.0,0.0,0.0,0.0,0.0,0.0,0.0,0.0,0.0,0.0,0.0,0.0,0.0,0.0,0.0,0.0,0.0,0.0,0.0,0.0,0.0,0.0,0.0,0.0,0.0,0.0,0.0,0.0,0.0,0.0,0.0,0.0,0.0,0.0,0.0,0.0,0.0,0.0,0.0,0.0,0.0,0.0,0.0,0.0,0.0,0.0,0.0,0.0,0.0,0.0,0.0,0.0,0.0,0.0,0.0,0.0,0.0,0.0,0.0,0.0,0.0,-2.2018,-2.2392,-2.2368,-2.2755,-2.3572,0.0,0.0,0.0,0.0,0.0,0.0,0.0,0.0,0.0,0.0,0.0,0.0,0.0,0.0,0.0,0.0,0.0,0.0,0.0,0.0,0.0,0.0,0.0,0.0,0.0,0.0,0.0,0.0,0.0,0.0,0.0,0.0,0.0,0.0,0.0,0.0,0.0,0.0,0.0,0.0,0.0,0.0,0.0,0.0,0.0,0.0,0.0,0.0,0.0,0.0,0.0,0.0,0.0,0.0,0.0,0.0,0.0,0.0,0.0,0.0,0.0,0.0,0.0,0.0,0.0,0.0,0.0,0.0,0.0,0.0,0.0,0.0,0.0,0.0,0.0,0.0,0.0,0.0,0.0,0.0,0.0,0.0,0.0,0.0,0.0,0.0,0.0,0.0,0.0,0.0,0.0,0.0,0.0,0.0,0.0,0.0,0.0,0.0,0.0,0.0,0.0,0.0,0.0,0.0,0.0,0.0,0.0,0.0,0.0,0.0,0.0,0.0,-2.2015,-2.2559,-2.3806,0.0,0.0,0.0,0.0,0.0,0.0,0.0,0.0,0.0,0.0,0.0,0.0,0.0,0.0,0.0,0.0,0.0,0.0,0.0,0.0,0.0,0.0,0.0,0.0,0.0,0.0,0.0,0.0,0.0,0.0,0.0,0.0,0.0,0.0,0.0,0.0,0.0,0.0,0.0,0.0,0.0,0.0,0.0,0.0,0.0,0.0,0.0,0.0,0.0,0.0,0.0,0.0,0.0,0.0,0.0,0.0,0.0,0.0,0.0,0.0,0.0,0.0,0.0,0.0,0.0,0.0,0.0,0.0,0.0,0.0,0.0,0.0,0.0,0.0,0.0,0.0,0.0,0.0,0.0,0.0,0.0,0.0,0.0,0.0,0.0,0.0,0.0,0.0,0.0,0.0,0.0,0.0,0.0,0.0,0.0,0.0,0.0,0.0,0.0,0.0,0.0,0.0,0.0,0.0,0.0,0.0,0.0,0.0,0.0,0.0,-2.2962,-2.2894,-2.2832,0.0,-2.2873,0.0,0.0,0.0,0.0,0.0,0.0,0.0,0.0,0.0,0.0,0.0,0.0,0.0,0.0,0.0,0.0,0.0,0.0,0.0,0.0,0.0,0.0,0.0,0.0,0.0,0.0,0.0,0.0,0.0,0.0,0.0,0.0,0.0,0.0,0.0,0.0,0.0,0.0,0.0,0.0,0.0,0.0,0.0,0.0,0.0,0.0,0.0,0.0,0.0,0.0,0.0,0.0,0.0,0.0,0.0,0.0,0.0,0.0,0.0,0.0,0.0,0.0,0.0,0.0,0.0,0.0,0.0,0.0,0.0,0.0,0.0,0.0,0.0,0.0,0.0,0.0,0.0,0.0,0.0,0.0,0.0,0.0,0.0,0.0,0.0,0.0,0.0,0.0,0.0,0.0,0.0,0.0,0.0,0.0,0.0,0.0,0.0,0.0,0.0,0.0,0.0,0.0,0.0,0.0,0.0,0.0,0.0,0.0,0.0,0.0,-2.3521,-2.2954,-2.3375,-2.3786,0.0,0.0,0.0,0.0,0.0,0.0,0.0,0.0,0.0,0.0,0.0,0.0,0.0,0.0,0.0,0.0,0.0,0.0,0.0,0.0,0.0,0.0,0.0,0.0,0.0,0.0,0.0,0.0,0.0,0.0,0.0,0.0,0.0,0.0,0.0,0.0,0.0,0.0,0.0,0.0,0.0,0.0,0.0,0.0,0.0,0.0,0.0,0.0,0.0,0.0,0.0,0.0,0.0,0.0,0.0,0.0,0.0,0.0,0.0,0.0,0.0,0.0,0.0,0.0,0.0,0.0,0.0,0.0,0.0,0.0,0.0,0.0,0.0,0.0,0.0,0.0,0.0,0.0,0.0,0.0,0.0,0.0,0.0,0.0,0.0,0.0,0.0,0.0,0.0,0.0,0.0,0.0,0.0,0.0,0.0,0.0,0.0,0.0,0.0,0.0,0.0,0.0,0.0,0.0,0.0,0.0,0.0,0.0,0.0,0.0,-2.4204,-2.4302,-2.3665,-2.4152,-2.4697,-2.5162,0.0,0.0,0.0,0.0,0.0,0.0,0.0,0.0,0.0,0.0,0.0,0.0,0.0,0.0,0.0,0.0,0.0,0.0,0.0,0.0,0.0,0.0,0.0,0.0,0.0,0.0,0.0,0.0,0.0,0.0,0.0,0.0,0.0,0.0,0.0,0.0,0.0,0.0,0.0,0.0,0.0,0.0,0.0,0.0,0.0,0.0,0.0,0.0,0.0,0.0,0.0,0.0,0.0,0.0,0.0,0.0,0.0,0.0,0.0,0.0,0.0,0.0,0.0,0.0,0.0,0.0,0.0,0.0,0.0,0.0,0.0,0.0,0.0,0.0,0.0,0.0,0.0,0.0,0.0,0.0,0.0,0.0,0.0,0.0,0.0,0.0,0.0,0.0,0.0,0.0,0.0,0.0,0.0,0.0,0.0,0.0,0.0,0.0,0.0,0.0,0.0,0.0,0.0,0.0,0.0,0.0,0.0,0.0,-2.431,-2.5032,-2.5394,-2.5258,-2.5302,-2.5279,0.0,0.0,0.0,0.0,0.0,0.0,0.0,0.0,0.0,0.0,0.0,0.0,0.0,0.0,0.0,0.0,0.0,0.0,0.0,0.0,0.0,0.0,0.0,0.0,0.0,0.0,0.0,0.0,0.0,0.0,0.0,0.0,0.0,0.0,0.0,0.0,0.0,0.0,0.0,0.0,0.0,0.0,0.0,0.0,0.0,0.0,0.0,0.0,0.0,0.0,0.0,0.0,0.0,0.0,0.0,0.0,0.0,0.0,0.0,0.0,0.0,0.0,0.0,0.0,0.0,0.0,0.0,0.0,0.0,0.0,0.0,0.0,0.0,0.0,0.0,0.0,0.0,0.0,0.0,0.0,0.0,0.0,0.0,0.0,0.0,0.0,0.0,0.0,0.0,0.0,0.0,0.0,0.0,0.0,0.0,0.0,0.0,0.0,0.0,0.0,0.0,0.0,0.0,0.0,0.0,0.0,0.0,0.0,0.0,-2.511,-2.5313,-2.54,-2.5327,-2.5341,-2.5273,0.0,0.0,0.0,0.0,0.0,0.0,0.0,0.0,0.0,0.0,0.0,0.0,0.0,0.0,0.0,0.0,0.0,0.0,0.0,0.0,0.0,0.0,0.0,0.0,0.0,0.0,0.0,0.0,0.0,0.0,0.0,0.0,0.0,0.0,0.0,0.0,0.0,0.0,0.0,0.0,0.0,0.0,0.0,0.0,0.0,0.0,0.0,0.0,0.0,0.0,0.0,0.0,0.0,0.0,0.0,0.0,0.0,0.0,0.0,0.0,0.0,0.0,0.0,0.0,0.0,0.0,0.0,0.0,0.0,0.0,0.0,0.0,0.0,0.0,0.0,0.0,0.0,0.0,0.0,0.0,0.0,0.0,0.0,0.0,0.0,0.0,0.0,0.0,0.0,0.0,0.0,0.0,0.0,0.0,0.0,0.0,0.0,0.0,0.0,0.0,0.0,0.0,0.0,0.0,0.0,0.0,0.0,0.0,0.0,-2.5881,0.0,-2.576,-2.5731,-2.5712,-2.5531,0.0,0.0,0.0,0.0,0.0,0.0,0.0,0.0,0.0,0.0,0.0,0.0,0.0,0.0,0.0,0.0,0.0,0.0,0.0,0.0,0.0,0.0,0.0,0.0,0.0,0.0,0.0,0.0,0.0,0.0,0.0,0.0,0.0,0.0,0.0,0.0,0.0,0.0,0.0,0.0,0.0,0.0,0.0,0.0,0.0,0.0,0.0,0.0,0.0,0.0,0.0,0.0,0.0,0.0,0.0,0.0,0.0,0.0,0.0,0.0,0.0,0.0,0.0,0.0,0.0,0.0,0.0,0.0,0.0,0.0,0.0,0.0,0.0,0.0,0.0,0.0,0.0,0.0,0.0,0.0,0.0,0.0,0.0,0.0,0.0,0.0,0.0,0.0,0.0,0.0,0.0,0.0,0.0,0.0,0.0,0.0,0.0,0.0,0.0,0.0,0.0,0.0,0.0,0.0,0.0,0.0,0.0,0.0,-2.5977,-2.6673,-2.667,-2.666,-2.6621,-2.6621,-2.6145,0.0,0.0,0.0,0.0,0.0,0.0,0.0,0.0,0.0,0.0,0.0,0.0,0.0,0.0,0.0,0.0,0.0,0.0,0.0,0.0,0.0,0.0,0.0,0.0,0.0,0.0,0.0,0.0,0.0,0.0,0.0,0.0,0.0,0.0,0.0,0.0,0.0,0.0,0.0,0.0,0.0,0.0,0.0,0.0,0.0,0.0,0.0,0.0,0.0,0.0,0.0,0.0,0.0,0.0,0.0,0.0,0.0,0.0,0.0,0.0,0.0,0.0,0.0,0.0,0.0,0.0,0.0,0.0,0.0,0.0,0.0,0.0,0.0,0.0,0.0,0.0,0.0,0.0,0.0,0.0,0.0,0.0,0.0,0.0,0.0,0.0,0.0,0.0,0.0,0.0,0.0,0.0,0.0,0.0,0.0,0.0,0.0,0.0,0.0,0.0,0.0,0.0,0.0,0.0,0.0,0.0,0.0,0.0,0.0,-2.7537,-2.8051,-2.8324,-2.8294,-2.7775,-2.7034,0.0,0.0,0.0,0.0,0.0,0.0,0.0,0.0,0.0,0.0,0.0,0.0,0.0,0.0,0.0,0.0,0.0,0.0,0.0,0.0,0.0,0.0,0.0,0.0,0.0,0.0,0.0,0.0,0.0,0.0,0.0,0.0,0.0,0.0,0.0,0.0,0.0,0.0,0.0,0.0,0.0,0.0,0.0,0.0,0.0,0.0,0.0,0.0,0.0,0.0,0.0,0.0,0.0,0.0,0.0,0.0,0.0,0.0,0.0,0.0,0.0,0.0,0.0,0.0,0.0,0.0,0.0,0.0,0.0,0.0,0.0,0.0,0.0,0.0,0.0,0.0,0.0,0.0,0.0,0.0,0.0,0.0,0.0,0.0,0.0,0.0,0.0,0.0,0.0,0.0,0.0,0.0,0.0,0.0,0.0,0.0,0.0,0.0,0.0,0.0,0.0,0.0,0.0,0.0,0.0,0.0,0.0,0.0,0.0,-3.0697,-3.0902,-3.0993,-3.0993,-3.0198,-2.8858,-2.695,0.0,0.0,0.0,0.0,0.0,0.0,0.0,0.0,0.0,0.0,0.0,0.0,0.0,0.0,0.0,0.0,0.0,0.0,0.0,0.0,0.0,0.0,0.0,0.0,0.0,0.0,0.0,0.0,0.0,0.0,0.0,0.0,0.0,0.0,0.0,0.0,0.0,0.0,0.0,0.0,0.0,0.0,0.0,0.0,0.0,0.0,0.0,0.0,0.0,0.0,0.0,0.0,0.0,0.0,0.0,0.0,0.0,0.0,0.0,0.0,0.0,0.0,0.0,0.0,0.0,0.0,0.0,0.0,0.0,0.0,0.0,0.0,0.0,0.0,0.0,0.0,0.0,0.0,0.0,0.0,0.0,0.0,0.0,0.0,0.0,0.0,0.0,0.0,0.0,0.0,0.0,0.0,0.0,0.0,0.0,0.0,0.0,0.0,0.0,0.0,0.0,0.0,0.0,0.0,0.0,0.0,0.0,0.0,-3.5731,-3.5103,-3.4725,-3.4552,-3.3545,-3.1431,0.0,0.0,0.0,0.0,0.0,0.0,0.0,0.0,0.0,0.0,0.0,0.0,0.0,0.0,0.0,0.0,0.0,0.0,0.0,0.0,0.0,0.0,0.0,0.0,0.0,0.0,0.0,0.0,0.0,0.0,0.0,0.0,0.0,0.0,0.0,0.0,0.0,0.0,0.0,0.0,0.0,0.0,0.0,0.0,0.0,0.0,0.0,0.0,0.0,0.0,0.0,0.0,0.0,0.0,0.0,0.0,0.0,0.0,0.0,0.0,0.0,0.0,0.0,0.0,0.0,0.0,0.0,0.0,0.0,0.0,0.0,0.0,0.0,0.0,0.0,0.0,0.0,0.0,0.0,0.0,0.0,0.0,0.0,0.0,0.0,0.0,0.0,0.0,0.0,0.0,0.0,0.0,0.0,0.0,0.0,0.0,0.0,0.0,0.0,0.0,0.0,0.0,0.0,0.0,0.0,0.0,0.0,0.0,0.0,-3.9034,-4.0796,-4.0758,-3.888,-3.6197,-3.3414,0.0,0.0,0.0,0.0,0.0,0.0,0.0,0.0,0.0,0.0,0.0,0.0,0.0,0.0,0.0,0.0,0.0,0.0,0.0,0.0,0.0,0.0,0.0,0.0,0.0,0.0,0.0,0.0,0.0,0.0,0.0,0.0,0.0,0.0,0.0,0.0,0.0,0.0,0.0,0.0,0.0,0.0,0.0,0.0,0.0,0.0,0.0,0.0,0.0,0.0,0.0,0.0,0.0,0.0,0.0,0.0,0.0,0.0,0.0,0.0,0.0,0.0,0.0,0.0,0.0,0.0,0.0,0.0,0.0,0.0,0.0,0.0,0.0,0.0,0.0,0.0,0.0,0.0,0.0,0.0,0.0,0.0,0.0,0.0,0.0,0.0,0.0,0.0,0.0,0.0,0.0,0.0,0.0,0.0,0.0,0.0,0.0,0.0,0.0,0.0,0.0,0.0,0.0,0.0,0.0,0.0,0.0,0.0,-3.6622,-4.0969,-4.422,-4.5182,-4.3739,-3.9707,-3.5798,0.0,0.0,0.0,0.0,0.0,0.0,0.0,0.0,0.0,0.0,0.0,0.0,0.0,0.0,0.0,0.0,0.0,0.0,0.0,0.0,0.0,0.0,0.0,0.0,0.0,0.0,0.0,0.0,0.0,0.0,0.0,0.0,0.0,0.0,0.0,0.0,0.0,0.0,0.0,0.0,0.0,0.0,0.0,0.0,0.0,0.0,0.0,0.0,0.0,0.0,0.0,0.0,0.0,0.0,0.0,0.0,0.0,0.0,0.0,0.0,0.0,0.0,0.0,0.0,0.0,0.0,0.0,0.0,0.0,0.0,0.0,0.0,0.0,0.0,0.0,0.0,0.0,0.0,0.0,0.0,0.0,0.0,0.0,0.0,0.0,0.0,0.0,0.0,0.0,0.0,0.0,0.0,0.0,0.0,0.0,0.0,0.0,0.0,0.0,0.0,0.0,0.0,0.0,0.0,0.0,0.0,0.0,0.0,-3.8481,-4.2143,-4.5981,-4.8009,-4.7971,-4.3227,-3.8199,0.0,0.0,0.0,0.0,0.0,0.0,0.0,0.0,0.0,0.0,0.0,0.0,0.0,0.0,0.0,0.0,0.0,0.0,0.0,0.0,0.0,0.0,0.0,0.0,0.0,0.0,0.0,0.0,0.0,0.0,0.0,0.0,0.0,0.0,0.0,0.0,0.0,0.0,0.0,0.0,0.0,0.0,0.0,0.0,0.0,0.0,0.0,0.0,0.0,0.0,0.0,0.0,0.0,0.0,0.0,0.0,0.0,0.0,0.0,0.0,0.0,0.0,0.0,0.0,0.0,0.0,0.0,0.0,0.0,0.0,0.0,0.0,0.0,0.0,0.0,0.0,0.0,0.0,0.0,0.0,0.0,0.0,0.0,0.0,0.0,0.0,0.0,0.0,0.0,0.0,0.0,0.0,0.0,0.0,0.0,0.0,0.0,0.0,0.0,0.0,0.0,0.0,0.0,0.0,0.0,0.0,0.0,0.0,-3.9335,-4.4643,-4.6336,-4.7471,-4.8067,-4.3729,-3.925,0.0,0.0,0.0,0.0,0.0,0.0,0.0,0.0,0.0,0.0,0.0,0.0,0.0,0.0,0.0,0.0,0.0,0.0,0.0,0.0,0.0,0.0,0.0,0.0,0.0,0.0,0.0,0.0,0.0,0.0,0.0,0.0,0.0,0.0,0.0,0.0,0.0,0.0,0.0,0.0,0.0,0.0,0.0,0.0,0.0,0.0,0.0,0.0,-2.5063,0.0,0.0,0.0,0.0,0.0,0.0,0.0,0.0,0.0,0.0,0.0,0.0,0.0,0.0,0.0,0.0,0.0,0.0,0.0,0.0,0.0,0.0,0.0,0.0,0.0,0.0,0.0,0.0,0.0,0.0,0.0,0.0,0.0,0.0,0.0,0.0,0.0,0.0,0.0,0.0,0.0,0.0,0.0,0.0,0.0,0.0,0.0,0.0,0.0,0.0,0.0,0.0,0.0,0.0,0.0,0.0,0.0,0.0,0.0,-4.0219,-4.4825,-4.624,-4.7124,-4.7385,-4.371,-3.9797,0.0,0.0,0.0,0.0,0.0,0.0,0.0,0.0,0.0,0.0,0.0,0.0,0.0,0.0,0.0,0.0,0.0,0.0,0.0,0.0,0.0,0.0,0.0,0.0,0.0,0.0,0.0,0.0,0.0,0.0,0.0,0.0,0.0,0.0,0.0,0.0,0.0,0.0,0.0,0.0,0.0,0.0,0.0,0.0,0.0,0.0,0.0,0.0,0.0,0.0,0.0,0.0,0.0,0.0,0.0,0.0,0.0,0.0,0.0,0.0,0.0,0.0,0.0,0.0,0.0,0.0,0.0,0.0,0.0,0.0,0.0,0.0,0.0,0.0,0.0,0.0,0.0,0.0,0.0,0.0,0.0,0.0,0.0,0.0,0.0,0.0,0.0,0.0,0.0,0.0,0.0,0.0,0.0,0.0,0.0,0.0,0.0,0.0,0.0,0.0,0.0,0.0,0.0,0.0,0.0,0.0,0.0,-3.7257,-4.1046,-4.4566,-4.6009,-4.6692,-4.6663,-4.345,-3.9959,-3.6283,0.0,0.0,0.0,0.0,0.0,0.0,0.0,0.0,0.0,0.0,0.0,0.0,0.0,0.0,0.0,0.0,0.0,0.0,0.0,0.0,0.0,0.0,0.0,0.0,0.0,0.0,0.0,0.0,0.0,0.0,0.0,0.0,0.0,0.0,0.0,0.0,0.0,0.0,-2.5573,-2.5701,0.0,0.0,0.0,0.0,0.0,0.0,0.0,0.0,-2.4891,0.0,0.0,0.0,0.0,0.0,0.0,0.0,0.0,0.0,0.0,0.0,0.0,0.0,0.0,0.0,0.0,0.0,0.0,0.0,0.0,0.0,0.0,0.0,0.0,0.0,0.0,0.0,0.0,0.0,0.0,0.0,0.0,0.0,0.0,0.0,0.0,0.0,0.0,0.0,0.0,0.0,0.0,0.0,0.0,0.0,0.0,0.0,0.0,0.0,0.0,0.0,0.0,0.0,0.0,0.0,0.0,-3.5019,-3.7873,-4.1623,-4.6317,-4.6028,-4.5806,-4.574,-4.3133,-3.9691,-3.5454,0.0,0.0,0.0,0.0,0.0,0.0,0.0,0.0,0.0,0.0,0.0,0.0,0.0,0.0,0.0,0.0,0.0,0.0,0.0,0.0,0.0,0.0,0.0,0.0,0.0,0.0,0.0,0.0,0.0,0.0,0.0,0.0,0.0,0.0,0.0,0.0,0.0,0.0,0.0,-2.704,-2.7535,0.0,0.0,0.0,0.0,0.0,0.0,0.0,0.0,-2.496,0.0,0.0,0.0,0.0,0.0,0.0,0.0,0.0,0.0,0.0,0.0,0.0,0.0,0.0,0.0,0.0,0.0,0.0,0.0,0.0,0.0,0.0,0.0,0.0,0.0,0.0,0.0,0.0,0.0,0.0,0.0,0.0,0.0,0.0,0.0,0.0,0.0,0.0,0.0,0.0,0.0,0.0,0.0,0.0,0.0,0.0,0.0,0.0,0.0,0.0,0.0,0.0,0.0,0.0,0.0,-3.4776,-3.818,-4.1747,-4.5393,-4.5586,-4.5383,-4.4874,-4.1997,-3.875,0.0,0.0,0.0,0.0,0.0,0.0,0.0,0.0,0.0,0.0,0.0,0.0,0.0,0.0,0.0,0.0,0.0,0.0,0.0,0.0,0.0,0.0,0.0,0.0,0.0,0.0,0.0,0.0,0.0,0.0,0.0,0.0,0.0,0.0,0.0,0.0,0.0,0.0,0.0,0.0,-2.7992,-2.8511,-2.853,0.0,0.0,0.0,0.0,0.0,0.0,-2.6263,-2.5821,0.0,0.0,0.0,0.0,0.0,0.0,0.0,0.0,0.0,0.0,0.0,0.0,0.0,0.0,0.0,0.0,0.0,0.0,0.0,0.0,0.0,0.0,0.0,0.0,0.0,0.0,0.0,0.0,0.0,0.0,0.0,0.0,0.0,0.0,0.0,0.0,0.0,0.0,0.0,0.0,0.0,0.0,0.0,0.0,0.0,0.0,0.0,0.0,0.0,0.0,0.0,0.0,0.0,0.0,0.0,-3.4225,-3.8015,-4.1324,-4.3951,-4.472,-4.4586,-4.3528,-4.0537,-3.7493,0.0,0.0,0.0,0.0,0.0,0.0,0.0,0.0,0.0,0.0,0.0,0.0,0.0,0.0,0.0,0.0,0.0,0.0,0.0,0.0,0.0,0.0,0.0,0.0,0.0,0.0,0.0,0.0,0.0,0.0,0.0,0.0,0.0,0.0,0.0,0.0,0.0,0.0,0.0,0.0,0.0,-2.9819,-2.9665,-2.9781,0.0,0.0,0.0,0.0,-2.7792,-2.7811,0.0,0.0,0.0,0.0,0.0,0.0,0.0,0.0,0.0,0.0,0.0,0.0,0.0,0.0,0.0,0.0,0.0,0.0,0.0,0.0,0.0,0.0,0.0,0.0,0.0,0.0,0.0,0.0,0.0,0.0,0.0,0.0,0.0,0.0,0.0,0.0,0.0,0.0,0.0,0.0,0.0,0.0,0.0,0.0,0.0,0.0,0.0,0.0,0.0,0.0,0.0,0.0,0.0,0.0,0.0,0.0,-3.4167,-3.6892,-3.9892,-4.3047,-4.3355,-4.2613,-4.0977,-3.901,-3.602,0.0,0.0,0.0,0.0,0.0,0.0,0.0,0.0,0.0,0.0,0.0,0.0,0.0,0.0,0.0,0.0,0.0,0.0,0.0,0.0,0.0,0.0,0.0,0.0,0.0,0.0,0.0,0.0,0.0,0.0,0.0,0.0,0.0,0.0,0.0,0.0,0.0,0.0,0.0,0.0,0.0,-3.2199,-3.1506,-3.2006,-3.1866,0.0,0.0,0.0,-2.9401,-3.0307,0.0,0.0,0.0,0.0,0.0,0.0,0.0,0.0,0.0,0.0,0.0,0.0,0.0,0.0,0.0,0.0,0.0,0.0,0.0,0.0,0.0,0.0,0.0,0.0,0.0,0.0,0.0,0.0,0.0,0.0,0.0,0.0,0.0,0.0,0.0,0.0,0.0,0.0,0.0,0.0,0.0,0.0,0.0,0.0,0.0,0.0,0.0,0.0,0.0,0.0,0.0,0.0,0.0,0.0,0.0,-3.0319,-3.2795,-3.6238,-3.9181,-4.1527,-4.2104,-4.1546,-3.9861,-3.7141,-3.4131,0.0,0.0,0.0,0.0,0.0,0.0,0.0,0.0,0.0,0.0,0.0,0.0,0.0,0.0,0.0,0.0,0.0,0.0,0.0,0.0,0.0,0.0,0.0,0.0,0.0,0.0,0.0,0.0,0.0,0.0,0.0,0.0,0.0,0.0,0.0,0.0,0.0,0.0,0.0,0.0,0.0,0.0,-3.1891,-3.3231,0.0,0.0,0.0,-3.2128,-3.1166,0.0,0.0,0.0,0.0,0.0,0.0,0.0,0.0,0.0,0.0,0.0,0.0,0.0,0.0,0.0,0.0,0.0,0.0,0.0,0.0,0.0,0.0,0.0,0.0,0.0,0.0,0.0,0.0,0.0,0.0,0.0,0.0,0.0,0.0,0.0,0.0,0.0,0.0,0.0,0.0,0.0,0.0,0.0,0.0,0.0,0.0,0.0,0.0,0.0,0.0,0.0,0.0,0.0,0.0,0.0,0.0,0.0,-3.1698,-3.5238,-3.7969,-3.9815,-4.0508,-3.995,-3.8046,-3.5268,0.0,0.0,0.0,0.0,0.0,0.0,0.0,0.0,0.0,0.0,0.0,0.0,0.0,0.0,0.0,0.0,0.0,0.0,0.0,0.0,0.0,0.0,0.0,0.0,0.0,0.0,0.0,-2.5308,0.0,0.0,0.0,0.0,0.0,0.0,0.0,0.0,0.0,0.0,0.0,0.0,0.0,0.0,-3.3737,-3.2506,-3.4141,-3.5088,0.0,0.0,-3.3497,-3.2626,-3.1961,-3.0696,0.0,0.0,0.0,0.0,0.0,0.0,0.0,0.0,0.0,0.0,0.0,0.0,0.0,0.0,0.0,0.0,0.0,0.0,0.0,0.0,0.0,0.0,0.0,0.0,0.0,0.0,0.0,0.0,0.0,0.0,0.0,0.0,0.0,0.0,0.0,0.0,0.0,0.0,0.0,0.0,0.0,0.0,0.0,0.0,0.0,0.0,0.0,0.0,0.0,0.0,0.0,0.0,0.0,0.0,0.0,-3.166,-3.3513,-3.5661,-3.8046,-3.8219,-3.7065,-3.4629,-3.3531,-3.1386,0.0,0.0,0.0,0.0,0.0,0.0,0.0,0.0,0.0,0.0,0.0,0.0,0.0,0.0,0.0,0.0,0.0,0.0,0.0,0.0,0.0,0.0,0.0,0.0,0.0,0.0,0.0,0.0,0.0,0.0,0.0,0.0,0.0,0.0,0.0,0.0,0.0,0.0,0.0,0.0,0.0,-3.4148,-3.4052,-3.4872,-3.5691,0.0,0.0,-3.4508,-3.3388,-3.4278,-3.3467,-2.8607,0.0,0.0,0.0,0.0,0.0,0.0,0.0,0.0,0.0,0.0,0.0,0.0,0.0,0.0,0.0,0.0,0.0,0.0,0.0,0.0,0.0,0.0,0.0,0.0,0.0,0.0,0.0,0.0,0.0,0.0,0.0,0.0,0.0,0.0,0.0,0.0,0.0,0.0,0.0,0.0,0.0,0.0,0.0,0.0,0.0,0.0,0.0,0.0,0.0,0.0,0.0,0.0,0.0,-2.8102,-3.0108,-3.2282,-3.4141,-3.5591,-3.618,-3.5238,-3.2718,-3.1282,-2.9458,0.0,0.0,0.0,0.0,0.0,0.0,0.0,0.0,0.0,0.0,0.0,0.0,0.0,0.0,0.0,0.0,0.0,0.0,0.0,0.0,0.0,0.0,0.0,0.0,0.0,0.0,0.0,0.0,-2.5308,-2.5308,-2.5308,0.0,0.0,0.0,0.0,0.0,0.0,0.0,0.0,0.0,0.0,-3.4013,-3.3487,-3.5026,0.0,0.0,-3.5837,-3.5257,-3.3666,-3.3307,-3.2002,-2.8437,-2.724,0.0,0.0,0.0,0.0,0.0,0.0,0.0,0.0,0.0,0.0,0.0,0.0,0.0,0.0,0.0,0.0,0.0,0.0,0.0,0.0,0.0,0.0,0.0,0.0,0.0,0.0,0.0,0.0,0.0,0.0,0.0,0.0,0.0,0.0,0.0,0.0,0.0,0.0,0.0,0.0,0.0,0.0,0.0,0.0,0.0,0.0,0.0,0.0,0.0,0.0,0.0,0.0,-2.7428,-2.9088,-3.1121,-3.2699,-3.3801,-3.441,-3.3635,-3.1371,-2.9871,-2.8308,0.0,0.0,0.0,0.0,0.0,0.0,0.0,0.0,0.0,0.0,0.0,0.0,0.0,0.0,0.0,0.0,0.0,0.0,0.0,0.0,0.0,0.0,0.0,0.0,0.0,0.0,0.0,0.0,-2.5308,-2.5308,-2.5308,0.0,0.0,0.0,0.0,0.0,0.0,0.0,0.0,0.0,0.0,-3.3417,-3.3314,-3.4603,-3.5512,-3.5412,-3.5312,-3.4766,-3.3365,-3.2219,-3.0636,-2.8004,0.0,0.0,0.0,0.0,0.0,0.0,0.0,0.0,0.0,0.0,0.0,0.0,0.0,0.0,0.0,0.0,0.0,0.0,0.0,0.0,0.0,0.0,0.0,0.0,0.0,0.0,0.0,0.0,0.0,0.0,0.0,0.0,0.0,0.0,0.0,0.0,0.0,0.0,0.0,0.0,0.0,0.0,0.0,0.0,0.0,0.0,0.0,0.0,0.0,0.0,0.0,0.0,0.0,0.0,-2.9069,-3.0006,-3.125,-3.2833,-3.2949,-3.2154,-3.0481,-2.9544,-2.8299,-2.664,0.0,0.0,0.0,0.0,0.0,0.0,0.0,0.0,0.0,0.0,0.0,0.0,0.0,0.0,0.0,0.0,0.0,0.0,0.0,0.0,0.0,0.0,0.0,0.0,0.0,0.0,-2.5308,-2.5308,-2.5308,0.0,0.0,0.0,0.0,0.0,0.0,0.0,0.0,0.0,0.0,-3.1712,-3.2333,-3.3872,-3.3506,-3.3628,-3.5119,-3.3971,-3.2782,-3.2396,-3.1534,-2.9983,0.0,0.0,0.0,0.0,0.0,0.0,0.0,0.0,0.0,0.0,0.0,0.0,0.0,0.0,0.0,0.0,0.0,0.0,0.0,0.0,0.0,0.0,0.0,0.0,0.0,0.0,0.0,0.0,-2.7832,0.0,0.0,0.0,0.0,0.0,0.0,0.0,0.0,0.0,0.0,0.0,-2.7377,-2.7321,0.0,0.0,0.0,0.0,0.0,0.0,0.0,0.0,0.0,0.0,0.0,0.0,-2.6582,-2.8242,-2.9102,-3.0083,-3.1212,-3.1814,-3.1295,-2.9583,-2.8723,-2.7505,-2.5788,0.0,0.0,0.0,0.0,0.0,0.0,0.0,0.0,0.0,0.0,0.0,0.0,0.0,0.0,0.0,0.0,0.0,0.0,0.0,0.0,0.0,0.0,0.0,0.0,0.0,-2.5308,0.0,0.0,0.0,0.0,0.0,0.0,0.0,0.0,0.0,0.0,0.0,-2.9852,-3.0712,-3.1333,-3.191,-3.2449,-3.2756,-3.3103,0.0,0.0,0.0,0.0,0.0,0.0,0.0,0.0,0.0,0.0,0.0,0.0,0.0,0.0,-2.5474,-2.4392,-2.4199,-2.4199,-2.4199,0.0,0.0,0.0,0.0,0.0,0.0,0.0,0.0,0.0,0.0,0.0,0.0,0.0,0.0,0.0,0.0,-2.7832,0.0,0.0,0.0,0.0,0.0,0.0,0.0,0.0,-2.7361,-2.8199,-2.8724,-2.8405,-2.867,0.0,-2.7982,-2.6937,0.0,0.0,0.0,0.0,0.0,0.0,0.0,0.0,-2.6462,-2.7857,-2.8684,-2.9525,-3.0385,-3.0962,-3.0692,-2.9563,-2.8472,-2.7082,-2.5341,-2.5308,-2.5308,0.0,0.0,0.0,0.0,0.0,0.0,0.0,0.0,0.0,0.0,0.0,0.0,0.0,0.0,0.0,0.0,0.0,0.0,0.0,0.0,0.0,0.0,0.0,-2.5308,0.0,0.0,0.0,0.0,0.0,0.0,0.0,0.0,0.0,-2.8992,-2.9107,-2.9646,-3.1096,-3.0981,-3.1006,-3.1621,0.0,0.0,0.0,0.0,0.0,0.0,0.0,-3.0114,-2.8796,-2.8202,-2.7889,-2.7798,-2.7805,-2.764,-2.7108,0.0,0.0,-2.5217,-2.5052,-2.4942,-2.4677,-2.4622,-2.453,-2.4254,-2.4622,-2.4824,0.0,0.0,0.0,0.0,0.0,0.0,0.0,0.0,-3.0078,-2.9726,0.0,-2.8691,0.0,0.0,0.0,0.0,0.0,0.0,0.0,0.0,-2.8769,-2.959,-2.959,-2.8807,-2.8804,-2.9502,-2.8621,-2.8106,-2.7938,-2.6262,0.0,0.0,0.0,0.0,0.0,0.0,-2.7044,-2.7934,-2.8723,-2.9506,-3.0308,-3.0365,-3.0308,-3.0192,-2.8679,-2.7044,-2.5404,-2.5308,-2.5308,-2.5308,-2.5308,0.0,0.0,0.0,0.0,0.0,0.0,0.0,0.0,0.0,0.0,0.0,0.0,0.0,0.0,0.0,0.0,0.0,0.0,0.0,0.0,-2.5308,0.0,0.0,0.0,0.0,0.0,0.0,0.0,0.0,0.0,0.0,-2.9069,-2.9127,-3.0031,-3.2449,0.0,0.0,0.0,0.0,-2.9462,-3.0239,-3.0318,-3.0291,-3.013,-2.9897,-2.9691,-2.9522,0.0,0.0,-2.7853,-2.7853,-2.7853,-2.7787,-2.7126,-2.6602,-2.6565,-2.651,-2.6282,-2.5521,-2.5348,-2.5127,-2.4401,-2.43,-2.4318,-3.5913,0.0,0.0,0.0,0.0,-3.2592,-3.2648,-3.2617,-3.1797,-3.1465,-3.1328,-2.9219,0.0,0.0,0.0,0.0,0.0,0.0,-2.7578,-2.7969,-2.9082,-2.9941,-3.0508,-3.0273,-3.0605,-3.1347,-2.9843,-2.9078,-2.901,-2.7812,-2.6895,-2.6236,0.0,0.0,0.0,0.0,-2.7313,-2.8684,-2.8992,-2.9223,-2.9467,-2.9473,-2.8909,-2.7736,-2.7217,-2.6447,-2.5346,-2.5308,-2.5308,-2.5308,-2.5308,0.0,0.0,0.0,0.0,0.0,0.0,0.0,0.0,0.0,0.0,0.0,0.0,0.0,0.0,0.0,0.0,0.0,0.0,0.0,-2.5308,-2.5308,-2.5308,0.0,0.0,0.0,0.0,0.0,0.0,0.0,0.0,0.0,-2.9833,-2.9467,-2.9583,0.0,0.0,-3.0212,-3.0692,-3.0346,-3.0115,-3.034,0.0,0.0,0.0,-3.0068,-2.9869,-2.9551,-2.9516,-2.934,-2.876,-2.8638,-2.8466,-2.7908,-2.7145,-2.6602,-2.6602,-2.6602,-2.6319,-2.5595,-2.5384,-2.5136,-2.4428,-2.463,-2.4879,-3.9243,-3.6656,-3.487,-3.3981,-3.3743,-3.3738,-3.3589,-3.3295,-3.2474,-3.2322,-3.2519,-3.0312,-2.9316,-2.9238,-2.7519,0.0,0.0,0.0,-2.832,-2.8848,-2.9707,-3.0566,-3.1367,-3.1055,-3.1348,-3.209,-3.0693,-2.9977,-2.9956,-2.9018,-2.8263,-2.7686,0.0,0.0,-2.7121,-2.7428,-2.8082,-2.9069,-2.9454,-2.9454,-2.9107,-2.88,-2.7967,-2.6678,-2.6621,-2.6178,-2.5346,-2.5308,-2.5308,-2.5308,-2.5308,-2.5308,0.0,0.0,0.0,0.0,0.0,0.0,0.0,0.0,0.0,0.0,0.0,-2.5327,0.0,0.0,0.0,0.0,-2.5308,-2.5308,-2.5308,-2.5308,0.0,0.0,0.0,0.0,0.0,0.0,0.0,-2.7838,-2.8184,-2.8871,-3.0192,-2.964,-2.9563,-3.0756,-3.0038,-2.9525,-2.9846,0.0,-2.914,-2.9775,-2.959,-2.944,-2.9698,-2.9296,-2.8817,-2.8417,-2.8864,-2.8943,-2.8216,-2.8051,-2.7868,-2.7402,-2.6924,-2.6602,-2.6602,-2.6602,-2.6337,-2.5558,-2.5384,-2.5117,-2.4346,-2.4585,-2.4768,-4.22,-4.0454,-3.7454,-3.5616,-3.4693,-3.4637,-3.4228,-3.3528,-3.2611,-3.2657,-3.3261,-3.1601,-3.082,-3.0586,-2.9023,0.0,0.0,-2.9238,-2.959,-2.9629,-3.0488,-3.123,-3.1855,-3.1191,-3.1289,-3.1953,-3.1063,-3.064,-3.066,-2.9827,-2.9448,-2.9469,-2.8576,-2.8076,-2.8046,-2.8728,-2.9107,-2.9127,-2.9865,-2.9833,-2.8915,-2.8102,-2.7318,-2.654,-2.6496,-2.6121,-2.5356,-2.5322,-2.5317,-2.5317,-2.5317,-2.5317,-2.5317,0.0,0.0,0.0,0.0,0.0,0.0,0.0,0.0,0.0,0.0,0.0,0.0,0.0,0.0,0.0,-2.5313,0.0,-2.5308,-2.5308,0.0,0.0,0.0,-2.6173,-2.5385,-2.6774,-2.7838,-2.7895,0.0,0.0,0.0,0.0,-2.9665,-3.1198,-2.9371,-2.8165,-2.8896,-2.7761,-2.7274,-2.88,-2.8415,-2.8187,-2.8839,-2.8065,-2.7278,-2.6918,-2.721,-2.7475,-2.6851,-2.6565,-2.6539,-2.6521,-2.6455,-2.6374,-2.64,-2.6308,-2.619,-2.5393,-2.5338,-2.5154,-2.441,-2.4245,-2.4254,-4.3412,-4.2362,-4.0939,-3.9136,-3.719,-3.6561,-3.6248,-3.6009,-3.4532,-3.368,-3.32,-3.1499,-3.0069,-2.8887,-2.8476,-2.8652,-2.9297,-2.9492,-2.9609,-2.9668,-3.0488,-3.0312,-2.9297,-3.0351,-3.0644,-3.0215,-2.998,-3.0213,-3.0779,-2.992,-2.9785,-3.0347,-3.0094,-2.9598,-2.8934,-2.9046,-2.9107,-2.9107,-2.9294,-2.8679,-2.7236,-2.637,-2.5851,-2.5669,-2.5688,-2.5615,-2.5473,-2.5459,-2.5437,-2.5456,-2.5456,-2.5459,-2.5456,-2.5463,0.0,0.0,0.0,0.0,0.0,0.0,0.0,0.0,0.0,-2.5412,-2.5487,0.0,-2.5432,0.0,-2.5364,-2.5356,-2.5308,-2.5308,0.0,0.0,-2.55,-2.5538,-2.5341,-2.6255,-2.7178,-2.7813,-2.8607,-2.9165,-2.9396,-2.9223,-2.9011,-2.8832,-2.8299,-2.7972,-2.8145,-2.7895,-2.7703,-2.8068,-2.7992,-2.7967,-2.8069,-2.7653,-2.7058,-2.6879,-2.6849,-2.6814,-2.6649,-2.608,-2.5686,-2.5631,-2.5154,-2.4832,-2.4814,-2.4777,-2.474,-2.4575,-2.497,-2.5154,-2.4373,-2.4199,-2.4199,-4.3835,-4.3047,-4.2162,-4.0773,-3.9078,-3.7881,-3.7235,-3.6845,-3.5549,-3.4558,-3.3719,-3.2046,-3.0611,-2.9492,-2.9453,-2.9726,-3.0156,-3.0176,-2.998,-2.9648,-3.0508,-2.998,-2.8379,-2.9687,-2.9863,-2.9023,-2.9023,-2.9473,-3.0254,-2.9801,-2.9972,-3.0772,-3.0679,-3.0207,-2.9365,-2.9237,-2.9172,-2.9129,-2.8443,-2.7638,-2.6695,-2.5828,-2.539,-2.5447,-2.5451,-2.5473,-2.5517,-2.552,-2.5522,-2.551,-2.551,-2.5506,-2.5517,-2.5543,-2.5523,0.0,0.0,0.0,0.0,0.0,0.0,0.0,0.0,0.0,0.0,0.0,-2.5471,0.0,-2.539,0.0,-2.5293,-2.5308,-2.5308,-2.5308,-2.5308,-2.5308,-2.5308,-2.6077,-2.6794,-2.7274,-2.8044,-2.8569,-2.8569,-2.8236,-2.7832,-2.7371,-2.6986,-2.689,-2.7198,-2.7005,-2.6871,-2.7255,-2.7005,-2.671,-2.6622,-2.6378,-2.6129,-2.5896,-2.5746,-2.564,-2.555,-2.5162,-2.486,-2.4842,-2.4502,-2.4199,-2.4199,-2.4199,-2.4199,-2.4245,-2.4538,-2.4658,-2.4291,-2.4199,-2.4199,-4.3932,-4.3028,-4.2297,-4.1335,-4.0227,-3.8661,-3.7648,-3.6991,-3.6102,-3.5194,-3.4221,-3.2675,-3.1566,-3.0878,-3.0878,-3.0879,-3.0879,-3.0781,-3.0273,-2.9512,-3.0215,-2.9648,-2.8027,-2.8984,-2.8984,-2.8164,-2.8262,-2.8691,-2.9414,-2.9434,-2.9863,-3.0684,-3.0498,-3.0094,-2.9502,-2.9169,-2.8961,-2.8876,-2.7404,-2.6645,-2.6626,-2.5892,-2.5506,-2.5517,-2.5515,-2.552,-2.551,-2.553,-2.5537,-2.5533,-2.5513,-2.5526,-2.5532,-2.558,-2.5591,0.0,-2.5518,0.0,0.0,0.0,0.0,0.0,0.0,0.0,0.0,-2.5524,-2.5482,-2.5441,-2.5417,-2.5387,-2.5327,-2.5293,-2.5308,-2.5308,-2.5308,-2.5308,-2.5327,-2.6077,-2.6621,-2.6621,-2.7351,-2.7876,-2.7717,-2.7063,-2.6601,-2.6409,-2.5885,-2.5731,-2.6192,-2.5846,-2.5692,-2.6346,-2.5788,-2.544,-2.5229,-2.5087,-2.498,-2.4637,-2.4625,-2.4418,-2.4329,-2.4254,-2.4218,-2.4236,-2.4226,-2.4199,-2.4199,-2.4199,-2.4199,-2.4199,-2.4236,-2.4245,-2.4208,-2.4199,-2.4199,-4.4451,-4.3104,-4.2931,-4.1566,-3.9457,-3.843,-3.7926,-3.773,-3.6883,-3.5288,-3.3261,-3.2315,-3.1497,-3.0762,-3.0744,-3.0793,-3.0859,-3.0176,-2.9375,-2.8555,-2.873,-2.7871,-2.6348,-2.7793,-2.8105,-2.7324,-2.7969,-2.8398,-2.8555,-2.8555,-2.8984,-2.9805,-2.9121,-2.9017,0.0,0.0,0.0,0.0,-2.6254,-2.5741,-2.5741,-2.5593,-2.5535,-2.5577,-2.557,0.0,-2.5654,-2.5656,-2.5657,-2.5661,-2.5661,0.0,0.0,0.0,0.0,0.0,0.0,0.0,0.0,0.0,0.0,0.0,-2.5673,-2.5668,-2.5658,-2.5627,-2.5576,-2.5561,-2.5498,-2.5455,-2.5383,-2.533,-2.5308,-2.5308,-2.5308,-2.5308,-2.5327,-2.6058,-2.6621,-2.6621,-2.7351,-2.7621,-2.6928,-2.6678,-2.6327,-2.5692,-2.5404,-2.536,-2.5538,-2.5423,-2.5385,-2.5519,-2.5404,-2.5224,-2.5028,-2.4997,-2.4911,-2.4588,-2.4503,-2.4426,-2.4257,-2.4218,-2.4209,-2.4218,-2.4199,-2.4209,-2.4199,-2.4199,-2.4209,-2.4199,-2.4199,-2.4199,-2.4199,-2.4199,-2.4199,-4.3855,0.0,-4.2181,-4.0843,0.0,-3.8842,-3.8142,-3.7296,-3.6462,-3.493,-3.2958,-3.2193,-3.1404,-3.0657,-3.0657,-3.0705,-3.0793,-3.0345,-2.9724,-2.8965,-2.9394,-2.8672,-2.7012,-2.7891,-2.8066,-2.7637,-2.7207,-2.7461,-2.8242,-2.7871,-2.8105,-2.8945,-2.8496,-2.83,-2.8235,-2.6991,-2.6325,-2.6259,-2.5832,-2.5601,-2.5601,-2.5597,-2.562,-2.5633,0.0,0.0,0.0,0.0,0.0,0.0,0.0,0.0,0.0,0.0,0.0,-2.5694,-2.5687,-2.5705,-2.5688,-2.5691,-2.5694,-2.5697,-2.5699,-2.5697,-2.5689,-2.5671,-2.5644,-2.5605,-2.5576,-2.5522,-2.544,-2.5406,-2.5361,-2.5342,-2.5307,-2.5308,-2.5346,-2.5692,-2.5962,-2.5981,-2.6346,-2.6423,-2.6019,-2.5967,-2.5788,-2.5385,-2.5308,-2.5308,-2.5308,-2.5308,-2.5308,-2.5308,-2.5308,-2.5269,-2.5187,-2.5152,-2.5059,-2.483,-2.4733,-2.4678,-2.4518,-2.4495,-2.4495,-2.4495,-2.4495,-2.4469,-2.4366,-2.4339,-2.4339,-2.433,-2.4257,-2.4247,-2.4312,-2.4266,-2.4199,-4.322,-4.2951,-4.1401,-4.0104,-3.9073,-3.9073,-3.7988,-3.6238,0.0,0.0,0.0,-3.23,-3.1478,-3.0601,-3.0581,-3.0628,-3.0663,-3.0528,-3.0138,-2.9608,-3.0155,-2.9667,-2.832,-2.8144,-2.8066,-2.8008,-2.6602,-2.6582,-2.7773,-2.7266,-2.7363,-2.8008,-2.791,-2.748,-2.6758,-2.6074,-2.5703,-2.5703,-2.5703,-2.5703,-2.5703,-2.5703,-2.5703,-2.5702,-2.5702,-2.5702,-2.5702,-2.5702,-2.5703,-2.5703,-2.5703,-2.5703,-2.5703,-2.5703,-2.5702,-2.5697,-2.5696,-2.5698,-2.5701,-2.5701,-2.5702,-2.5703,-2.5703,-2.5703,-2.5701,-2.5703,-2.5682,-2.561,-2.5604,-2.557,-2.5511,-2.5459,-2.5408,-2.5415,-2.5379,-2.5335,-2.5327,-2.5322,-2.5361,-2.5293,-2.5365,-2.5308,-2.5346,-2.5346,-2.5308,-2.5308,-2.5308,-2.5308,-2.5308,-2.5308,-2.5308,-2.5308,-2.5308,-2.5308,-2.5303,-2.5298,-2.5219,-2.5016,-2.4973,-2.4949,-2.4842,-2.4804,-2.4804,-2.4768,-2.4804,-2.4723,-2.4602,-2.4561,-2.4561,-2.4561,-2.4436,-2.4367,-2.4495,-2.4418,-2.4303,-4.372,-4.3008,-4.2027,-4.0296,-3.818,-3.818,-3.6815,-3.4641,-3.5212,-3.4513,-3.2903,-3.2787,-3.1929,-3.0524,-3.0524,-3.054,-3.0578,-2.9836,-2.9503,0.0,-2.8885,-2.8487,-2.8262,-2.7539,-2.7187,-2.7168,-2.6934,-2.6543,-2.6172,-2.6699,-2.707,-2.709,-2.6426,-2.6016,-2.5898,-2.5762,-2.5703,-2.5703,-2.5703,-2.5703,-2.5703,-2.5703,-2.5702,-2.5702,-2.5701,-2.5701,-2.5702,-2.5702,-2.5703,-2.5703,-2.5703,-2.5703,-2.5703,-2.5703,-2.5703,-2.5703,-2.5703,-2.5703,-2.5703,-2.5703,-2.5703,-2.5703,-2.5703,-2.5703,-2.5703,-2.5703,-2.5703,-2.5683,-2.5654,-2.5601,-2.5593,-2.5533,-2.5495,-2.5495,-2.5488,-2.5453,-2.5391,-2.5403,-2.5356,-2.5322,-2.5308,-2.5293,-2.5322,-2.5293,-2.5308,-2.5308,-2.5308,-2.5308,-2.5308,-2.5308,-2.5308,-2.5308,-2.5308,-2.5308,-2.5308,-2.5308,-2.5238,-2.5047,-2.5016,-2.498,-2.4862,-2.4847,-2.4847,-2.4811,-2.484,-2.4811,-2.4749,-2.4741,-2.4741,-2.4734,-2.47,-2.47,-2.4727,-2.4708,-2.4602,-4.3431,-4.2951,-4.1643,-4.0181,-3.8623,-3.77,-3.6103,-3.4282,-3.4622,-3.3833,-3.2372,-3.2699,-3.1985,-3.049,-3.0451,-3.0215,-2.9837,-2.9908,-2.9781,-2.9425,-2.9037,-2.8872,-2.8775,-2.753,-2.715,-2.7571,-2.6654,-2.6286,-2.6387,-2.6367,-2.6523,-2.6953,-2.6582,-2.6172,-2.5723,-2.5703,-2.5703,-2.5703,-2.5703,-2.5703,-2.5703,-2.5703,-2.5703,-2.5703,-2.5703,-2.5703,-2.5703,-2.5703,-2.5703,-2.5703,-2.5703,-2.5703,-2.5703,-2.5703,-2.5703,-2.5703,-2.5703,-2.5703,-2.5703,-2.5703,-2.5703,-2.5703,-2.5703,-2.5703,-2.5703,-2.5703,-2.5703,-2.5703,-2.5681,-2.5659,-2.5658,-2.5598,-2.5554,-2.5535,-2.5531,-2.5498,-2.5468,-2.544,-2.5447,-2.5401,-2.5368,-2.5354,-2.5354,-2.5317,-2.5308,-2.5308,-2.5308,-2.5308,-2.5308,-2.5308,-2.5308,-2.5308,-2.5308,-2.5308,-2.5308,-2.5308,-2.5259,-2.5168,-2.5163,-2.5135,-2.5066,-2.5055,-2.5055,-2.5074,-2.5074,-2.5018,-2.4936,-2.491,-2.491,-2.4904,-2.4835,-2.4821,-2.4864,-2.4862,-2.4749,-4.297,-4.2797,-4.1184,-3.9938,-3.888,-3.7161,-3.5584,-3.4282,-3.441,-3.3449,-3.1929,-3.2372,-3.1788,-3.0481,-3.0404,-3.0067,-2.9617,-3.0168,-3.0175,-2.9664,-2.9437,-2.9466,-2.9441,-2.7717,-2.7277,-2.7911,-2.6603,-2.6246,-2.6809,-2.6264,-2.6285,-2.6953,-2.7166,-2.6952,-2.6309,-2.6289,-2.6289,-2.6289,-2.6289,-2.6094,-2.5703,-2.5703,-2.5703,-2.5703,-2.5703,-2.5703,-2.5703,-2.5703,-2.5703,-2.5703,-2.5703,-2.5703,-2.5663,-2.5683,-2.5683,-2.5661,-2.5683,-2.5703,-2.5703,-2.5703,-2.5703,-2.5703,-2.5703,-2.5703,-2.5703,-2.5703,-2.5703,-2.5703,-2.5703,-2.5703,-2.5684,-2.5659,-2.5631,-2.5629,-2.557,-2.5549,-2.5513,-2.5531,-2.5524,-2.5489,-2.5462,-2.5402,-2.5408,-2.5372,-2.5352,-2.5326,-2.5308,-2.5308,-2.5308,-2.5308,-2.5308,-2.5308,-2.5308,-2.5308,-2.5308,-2.5308,-2.5308,-2.5308,-2.5284,-2.5274,-2.5269,-2.5279,-2.5284,-2.5269,-2.5274,-2.5233,-2.5099,-2.5077,-2.5077,-2.5071,-2.4993,-2.4962,-2.5041,-2.5012,-2.4888,-4.2543,-4.2354,-4.1072,-3.9573,-3.8027,-3.6365,-3.5141,-3.4359,-3.5026,-3.3981,-3.1814,-3.1795,-3.1288,-3.0481,-3.0404,-3.0319,-3.0221,-3.0369,-3.0374,-3.0236,-2.957,-2.9659,-3.0107,-2.7943,-2.7269,-2.787,-2.7084,-2.67,-2.6887,-2.6787,-2.6794,-2.6988,-2.7692,-2.8055,-2.8008,-2.8008,-2.8027,-2.8047,-2.8066,-2.7285,-2.5801,-2.5703,-2.5703,-2.5703,-2.5703,-2.5703,-2.5703,-2.5703,-2.5703,-2.5703,-2.5703,-2.5681,-2.5631,-2.5661,-2.5657,-2.5543,-2.5633,-2.5703,-2.5703,-2.5703,-2.5703,-2.5703,-2.5703,-2.5703,-2.5703,-2.5703,-2.5703,-2.5703,-2.5703,-2.5703,-2.5703,-2.5684,-2.5684,-2.5684,-2.5684,-2.566,-2.5603,-2.5597,-2.5564,-2.5517,-2.5491,-2.5481,-2.5481,-2.5465,-2.5453,-2.5395,-2.5346,-2.5336,-2.5312,-2.5331,-2.5317,-2.5303,-2.5293,-2.5293,-2.5288,-2.5308,-2.5308,-2.5308,-2.5308,-2.5308,-2.5308,-2.5308,-2.5308,-2.5308,-2.5308,-2.5274,-2.5269,-2.5269,-2.5264,-2.5205,-2.517,-2.5186,-2.5264,-2.5104,-2.4954,-4.2268,-4.2132,-4.0817,-3.9388,-3.7962,-3.7257,-3.5911,-3.4237,-3.4026,-3.3103,-3.1737,-3.1154,-3.0731,-3.0404,-3.0404,-3.0135,-2.9698,-3.0154,-3.013,-2.9674,-2.9293,-2.911,-2.8823,-2.7458,-2.692,-2.7239,-2.6905,-2.7026,-2.7565,-2.8021,-2.8062,-2.7753,-2.8457,-2.8645,-2.8236,-2.8177,-2.8177,-2.8177,-2.8177,-2.7826,-2.7168,-2.6694,-2.6484,-2.6406,-2.5977,-2.5703,-2.5703,-2.5661,-2.5636,-2.5636,-2.5603,-2.5584,-2.5547,-2.5564,-2.5558,-2.5517,-2.5552,-2.5591,-2.5572,-2.5591,-2.5591,-2.5573,-2.5609,-2.5636,-2.5657,-2.5682,-2.5703,-2.5703,-2.5703,-2.5703,-2.5703,-2.5703,-2.5703,-2.5703,-2.5703,-2.5684,-2.5661,-2.5664,-2.5637,-2.5629,-2.5573,-2.5558,-2.5554,-2.5533,-2.5503,-2.5468,-2.5428,-2.5424,-2.5408,-2.5411,-2.5402,-2.5371,-2.5359,-2.5329,-2.5313,-2.5308,-2.5308,-2.5308,-2.5308,-2.5308,-2.5308,-2.5308,-2.5308,-2.5308,-2.5308,-2.5308,-2.5284,-2.5308,-2.5288,-2.5231,-2.4812,-2.4586,-2.4582,-2.4178,-2.3981,-4.1613,-4.1349,-3.9933,-3.8689,-3.7748,-3.7352,-3.6024,-3.4196,-3.3487,-3.2679,-3.1679,-3.1019,-3.0615,-3.0423,-3.0404,-3.0044,-2.9563,-2.9865,-2.9852,-2.939,-2.9011,-2.8703,-2.8448,-2.7198,-2.6762,-2.6985,-2.7037,-2.75,-2.8392,-2.9194,-2.9209,-2.8625,-2.9237,-2.9347,-2.8857,-2.8801,-2.8782,-2.8801,-2.8782,-2.8782,-2.8699,-2.8029,-2.7412,-2.6925,-2.6106,-2.5638,-2.5657,-2.5601,-2.5567,-2.5567,-2.5513,-2.5481,-2.5463,-2.5481,-2.551,-2.5508,-2.549,-2.549,-2.5508,-2.551,-2.551,-2.5515,-2.5531,-2.5567,-2.5591,-2.5628,-2.5636,-2.5644,-2.5661,-2.5684,-2.5703,-2.5703,-2.5703,-2.5703,-2.5703,-2.5703,-2.5703,-2.5703,-2.5684,-2.5703,-2.5639,-2.5632,-2.5629,-2.5567,-2.5537,-2.5516,-2.55,-2.551,-2.551,-2.5506,-2.5468,-2.5431,-2.5428,-2.5395,-2.5312,-2.5308,-2.5308,-2.5308,-2.5308,-2.5308,-2.5308,-2.5308,-2.5308,-2.5308,-2.5308,-2.5308,-2.5308,-2.5308,-2.5192,-2.5135,-2.4639,-2.4072,-2.4202,-2.3567,-2.3413,-4.0365,-4.0066,-3.8108,-3.7257,-3.7051,-3.5864,-3.4759,-3.3909,-3.3956,-3.3192,-3.1827,-3.1565,-3.1148,-3.038,-3.0349,-3.0359,-3.0231,-2.9602,-2.9679,-3.0058,-2.8736,-2.8794,-3.0077,-2.7808,-2.701,-2.7589,-2.771,-2.821,-2.9082,-2.9899,-2.9934,-2.9244,-2.9965,-3.042,-3.0345,-3.0293,-3.0441,-3.0293,-3.0293,-3.0399,-3.0305,-2.9569,-2.8365,-2.7023,-2.6004,-2.5565,-2.5524,-2.5517,-2.5515,-2.5515,-2.5506,-2.5474,-2.5424,-2.5465,-2.5501,-2.5479,-2.5434,-2.5447,-2.549,-2.5498,-2.5501,-2.5506,-2.5489,-2.5513,-2.5515,-2.5526,-2.5535,-2.5524,-2.5567,-2.5633,-2.5664,-2.5703,-2.5703,-2.5703,-2.5703,-2.5703,-2.5703,-2.5703,-2.5703,-2.5703,-2.5684,-2.5684,-2.5703,-2.5654,-2.5603,-2.5575,-2.5547,-2.5522,-2.5531,-2.5524,-2.5517,-2.5491,-2.5476,-2.5437,-2.5339,-2.533,-2.5317,-2.5312,-2.5339,-2.5308,-2.5293,-2.5308,-2.5313,-2.5308,-2.5308,-2.5308,-2.5308,-2.5212,-2.5038,-2.4769,-2.4178,-2.3798,-2.3451,-2.3879,-2.359,-3.9544,-3.8646,-3.7374,-3.6641,-3.6291,-3.5797,-3.5126,-3.4292,-3.332,-3.2602,-3.1909,-3.0901,-3.0247,-2.9943,-2.9962,-3.0121,-3.0354,-3.0058,-3.0096,-3.0269,-2.9198,-2.8717,-2.8582,-2.7274,-2.6736,-2.7101,-2.7645,-2.8602,-2.9852,-3.0269,-3.0273,-3.0048,-3.0276,-3.0456,-3.0472,-3.0482,-3.0463,-3.0463,-3.0482,-3.0463,-3.0409,-2.9631,-2.8834,-2.8259,-2.7019,-2.6067,-2.553,-2.5449,-2.5438,-2.5431,-2.5398,-2.5363,-2.5329,-2.5354,-2.5379,-2.5375,-2.5342,-2.5352,-2.5371,-2.536,-2.5379,-2.5383,-2.5408,-2.5438,-2.5444,-2.5482,-2.551,-2.5515,-2.5507,-2.5552,-2.5572,-2.5657,-2.5703,-2.5703,-2.5703,-2.5684,-2.5703,-2.5703,-2.5703,-2.5703,-2.5703,-2.5703,-2.5703,-2.5684,-2.5661,-2.5661,-2.5644,-2.5625,-2.5625,-2.5625,-2.5625,-2.5567,-2.5559,-2.5539,-2.5453,-2.5431,-2.5425,-2.5408,-2.5394,-2.5376,-2.5352,-2.5326,-2.5312,-2.5326,-2.5331,-2.5317,-2.5311,-2.483,-2.4648,-2.3542,-2.3003,-2.3067,-2.2432,-2.2663,-2.2374,-3.8837,-3.7733,-3.6893,-3.6186,-3.5619,-3.5431,-3.4889,-3.4033,-3.2769,-3.2053,-3.1534,-3.0308,-2.9705,-2.9705,-2.9705,-2.9856,-3.0098,-2.9698,-2.9749,-3.01,-2.8906,-2.828,-2.8126,-2.714,-2.675,-2.7121,-2.7876,-2.9044,-3.025,-3.0404,-3.0404,-3.0385,-3.0404,-3.0404,-3.0404,-3.0404,-3.0519,-3.0712,-3.0538,-3.0519,-3.0654,-2.9967,-2.9377,-2.8956,-2.7832,-2.6743,-2.5877,-2.582,-2.5626,-2.5417,-2.5331,-2.5308,-2.5308,-2.5308,-2.5308,-2.5308,-2.5308,-2.5308,-2.5308,-2.5308,-2.5288,-2.5293,-2.5344,-2.5375,-2.5375,-2.5417,-2.5428,-2.5438,-2.5465,-2.5457,-2.5481,-2.5564,-2.5634,-2.5635,-2.5634,-2.5638,-2.5661,-2.5664,-2.5664,-2.5684,-2.5703,-2.5703,-2.5703,-2.5703,-2.5703,-2.5703,-2.5703,-2.5703,-2.5703,-2.5703,-2.5683,-2.5636,-2.5614,-2.5628,-2.5586,-2.5566,-2.5508,-2.5476,-2.5454,-2.5425,-2.5399,-2.5376,-2.5354,-2.5359,-2.5359,-2.5363,-2.5088,-2.457,-2.3631,-2.2466,-2.2372,-2.2624,-2.1947,-2.1273,-2.1251,-3.8227,-3.7375,-3.6597,-3.574,-3.4971,-3.4488,-3.3804,-3.3156,-3.2518,-3.1826,-3.1073,-3.0085,-2.971,-2.9661,-2.9616,-2.9678,-2.9477,-2.8446,-2.8663,-2.9727,-2.7934,-2.7753,-2.8816,-2.7442,-2.7178,-2.7895,-2.8684,-2.9525,-3.0346,-3.0404,-3.0404,-3.0404,-3.0404,-3.0404,-3.0404,-3.0423,-3.0788,-3.116,-3.0731,-3.0788,-3.1462,-3.0712,-2.9948,-2.9223,-2.8417,-2.7594,-2.666,-2.652,-2.6039,-2.5399,-2.5293,-2.5308,-2.5308,-2.5279,-2.5298,-2.5288,-2.5308,-2.5308,-2.5308,-2.5308,-2.5308,-2.5288,-2.5293,-2.5313,-2.5317,-2.5322,-2.5327,-2.533,-2.5371,-2.5402,-2.5401,-2.5465,-2.5498,-2.5515,-2.5531,-2.5551,-2.5593,-2.5601,-2.563,-2.5664,-2.5664,-2.5703,-2.5703,-2.5703,-2.5703,-2.5703,-2.5703,-2.5703,-2.5703,-2.5703,-2.5703,-2.5684,-2.5684,-2.5664,-2.5684,-2.5684,-2.5605,-2.5531,-2.5511,-2.5491,-2.5484,-2.5451,-2.5447,-2.5441,-2.5438,-2.5421,-2.5008,-2.4494,-2.3967,-2.3063,-2.2848,-2.2173,-2.1478,-2.0894,-2.0795,-3.7419,-3.6597,-3.5771,-3.4912,-3.4206,-3.3981,-3.3762,-3.3473,-3.2785,-3.2006,-3.1209,-3.0394,-2.9735,-2.9302,-2.9217,-2.9228,-2.9127,-2.8362,-2.8608,-2.9399,-2.8569,-2.8294,-2.8613,-2.7936,-2.7909,-2.8626,-2.8973,-2.9563,-3.025,-3.0404,-3.0404,-3.0404,-3.0404,-3.0404,-3.0404,-3.0404,-3.0577,-3.0712,-3.0538,-3.0558,-3.0788,-3.0558,-3.025,-3.0,-2.9731,-2.8962,-2.7568,-2.6346,-2.561,-2.5303,-2.5308,-2.5308,-2.5274,-2.5168,-2.5182,-2.5279,-2.5308,-2.5308,-2.5308,-2.5284,-2.5279,-2.5284,-2.5284,-2.5308,-2.5308,-2.5284,-2.5284,-2.5308,-2.5327,-2.5326,-2.5335,-2.5361,-2.5409,-2.5481,-2.551,-2.551,-2.5533,-2.5539,-2.5545,-2.5561,-2.5602,-2.5612,-2.5636,-2.566,-2.5684,-2.5684,-2.5684,-2.5684,-2.5703,-2.5684,-2.5703,-2.5703,-2.5703,-2.5703,-2.5703,-2.5703,-2.5664,-2.5605,-2.5576,-2.5566,-2.5542,-2.5533,-2.5537,-2.5531,-2.5529,-2.5371,-2.494,-2.4535,-2.4129,-2.3147,-2.2327,-2.1637,-2.0972,-2.0687,-2.0587,-3.7309,-3.6285,-3.5716,-3.4816,-3.3862,-3.3807,-3.3807,-3.3697,-3.2949,-3.2155,-3.1397,-3.0883,-3.0026,-2.9244,-2.9299,-2.9262,-2.8998,-2.8576,-2.8792,-2.9223,-2.8545,-2.8347,-2.8552,-2.8278,-2.8383,-2.895,-2.9302,-2.9774,-3.0365,-3.0404,-3.0404,-3.0404,-3.0404,-3.0404,-3.0404,-3.0404,-3.05,-3.0769,-3.0596,-3.0558,-3.075,-3.0558,-3.0404,-3.0346,-3.0096,-2.9236,-2.7915,-2.6458,-2.5524,-2.5264,-2.5154,-2.5115,-2.5109,-2.4987,-2.4981,-2.5091,-2.5115,-2.5109,-2.5115,-2.5078,-2.5115,-2.5096,-2.5115,-2.5149,-2.5182,-2.5198,-2.5214,-2.5279,-2.5313,-2.5308,-2.5308,-2.5313,-2.5329,-2.5424,-2.5434,-2.5438,-2.5459,-2.5476,-2.5491,-2.5524,-2.5545,-2.5558,-2.5588,-2.5597,-2.5611,-2.5612,-2.5612,-2.5636,-2.5658,-2.5664,-2.5664,-2.5684,-2.5703,-2.5703,-2.5703,-2.5703,-2.5703,-2.5664,-2.564,-2.5637,-2.5634,-2.561,-2.5603,-2.5605,-2.5604,-2.5587,-2.5234,-2.5057,-2.465,-2.3324,-2.2072,-2.1612,-2.1201,-2.0623,-2.0439,-3.7771,-3.6358,-3.6285,-3.5275,-3.3899,-3.3807,-3.3807,-3.3697,-3.306,-3.2247,-3.1525,-3.1323,-3.0448,-2.9427,-2.9592,-2.9537,-2.9097,-2.8943,-2.8922,-2.8772,-2.8138,-2.7988,-2.8579,-2.8612,-2.8734,-2.9024,-2.9698,-3.0109,-3.0273,-3.0414,-3.0393,-3.0299,-3.0286,-3.0432,-3.0477,-3.0444,-3.077,-3.1365,-3.0796,-3.0739,-3.1335,-3.074,-3.033,-3.0286,-2.9633,-2.8827,-2.7792,-2.6581,-2.5679,-2.5088,-2.4883,-2.4825,-2.4811,-2.4797,-2.479,-2.4847,-2.4818,-2.484,-2.4818,-2.4861,-2.4854,-2.4861,-2.4849,-2.483,-2.4987,-2.5018,-2.5053,-2.5187,-2.5228,-2.5238,-2.5238,-2.5233,-2.5234,-2.5279,-2.5303,-2.5329,-2.5383,-2.5447,-2.5465,-2.5482,-2.5498,-2.5506,-2.5506,-2.5496,-2.5507,-2.5507,-2.5511,-2.5552,-2.5569,-2.5602,-2.5632,-2.5644,-2.5644,-2.5644,-2.5625,-2.5625,-2.5625,-2.5644,-2.5644,-2.5664,-2.5664,-2.5664,-2.5644,-2.5664,-2.5664,-2.5644,-2.5586,-2.5371,-2.4687,-2.34,-2.2509,-2.2008,-2.1367,-2.0703,-2.043,-3.7771,-3.634,-3.6285,-3.533,-3.3917,-3.3807,-3.3807,-3.377,-3.3587,-3.2614,-3.1654,-3.1403,-3.054,-2.9133,-2.9244,-2.9189,-2.9042,-2.8987,-2.8987,-2.8973,-2.8732,-2.8817,-2.9258,-2.9357,-2.9345,-2.9517,-3.0122,-3.0383,-2.9967,-3.0416,-3.0427,-2.9891,-2.9996,-3.0335,-3.0866,-3.0447,-3.0694,-3.1411,-3.0636,-3.0192,-3.035,-3.0137,-2.988,-2.9842,-2.9641,-2.8795,-2.7406,-2.5823,-2.4983,-2.4872,-2.4685,-2.4654,-2.4753,-2.4654,-2.4623,-2.4746,-2.4782,-2.479,-2.479,-2.4782,-2.479,-2.4804,-2.476,-2.4806,-2.4849,-2.4855,-2.4883,-2.4942,-2.4942,-2.4955,-2.4929,-2.4955,-2.4987,-2.5077,-2.5192,-2.5288,-2.5317,-2.5324,-2.5346,-2.5354,-2.5402,-2.5434,-2.5431,-2.5446,-2.5498,-2.5498,-2.5498,-2.5508,-2.5505,-2.5516,-2.5549,-2.5545,-2.5547,-2.5547,-2.5547,-2.5547,-2.5566,-2.5605,-2.5615,-2.5639,-2.5664,-2.5684,-2.5684,-2.5684,-2.5684,-2.5664,-2.5684,-2.5586,-2.4492,-2.3379,-2.2891,-2.2305,-2.1309,-2.0547,-2.0547,-3.7549,-3.6285,-3.6285,-3.533,-3.3899,-3.3807,-3.3807,-3.3733,-3.3403,-3.2614,-3.1672,-3.1788,-3.0815,-2.9152,-2.9702,-2.9604,-2.906,-2.8987,-2.8987,-2.8987,-2.8962,-2.9115,-2.9328,-2.9407,-2.9465,-2.9608,-3.0058,-3.002,-2.9828,-3.0186,-3.0092,-2.9883,-3.0035,-3.0548,-3.0999,-3.0731,-3.0665,-3.1074,-3.0388,-2.9858,-2.9861,-2.9754,-2.9703,-2.9705,-2.9648,-2.8887,-2.7129,-2.541,-2.4569,-2.4607,-2.4476,-2.4418,-2.451,-2.4454,-2.4418,-2.4534,-2.4561,-2.4553,-2.4534,-2.4534,-2.4553,-2.4553,-2.4561,-2.461,-2.4647,-2.467,-2.4685,-2.4804,-2.4804,-2.4804,-2.4804,-2.4804,-2.4835,-2.491,-2.5043,-2.5143,-2.5283,-2.5298,-2.5308,-2.5308,-2.5326,-2.5354,-2.535,-2.5398,-2.542,-2.5424,-2.5409,-2.5418,-2.5431,-2.5459,-2.5474,-2.5482,-2.5495,-2.5508,-2.5513,-2.5513,-2.5515,-2.5549,-2.5588,-2.5601,-2.5644,-2.5684,-2.5684,-2.5684,-2.5684,-2.5684,-2.5684,-2.541,-2.4414,-2.3555,-2.3125,-2.2305,-2.1211,-2.0605,-2.0605,-3.7102,-3.6131,-3.6058,-3.5125,-3.3748,-3.3666,-3.3578,-3.3488,-3.288,-3.2101,-3.1528,-3.2025,-3.0858,-2.9133,-3.0044,-3.0265,-2.9005,-2.8987,-2.8987,-2.8987,-2.8987,-2.9044,-2.9048,-2.9082,-2.9181,-2.9378,-2.9417,-2.9659,-2.9879,-2.9927,-2.9973,-3.0152,-3.0649,-3.1017,-3.1224,-3.1026,-3.0922,-3.0977,-3.0195,-2.9688,-2.9652,-2.9588,-2.9533,-2.9495,-2.9082,-2.84,-2.686,-2.5382,-2.4461,-2.4479,-2.4275,-2.4247,-2.4228,-2.4209,-2.4218,-2.4247,-2.4257,-2.4266,-2.4218,-2.4257,-2.4237,-2.4256,-2.4247,-2.4284,-2.4436,-2.4469,-2.4528,-2.4647,-2.4731,-2.4685,-2.4685,-2.4731,-2.4753,-2.4782,-2.4797,-2.4968,-2.516,-2.5259,-2.5269,-2.5274,-2.5274,-2.5308,-2.5308,-2.5308,-2.5298,-2.535,-2.5357,-2.5363,-2.5372,-2.5383,-2.5417,-2.5434,-2.5453,-2.5451,-2.5454,-2.5454,-2.546,-2.5479,-2.5524,-2.5549,-2.5602,-2.5644,-2.5664,-2.5664,-2.5644,-2.5644,-2.5644,-2.5078,-2.4316,-2.3555,-2.3027,-2.1973,-2.0918,-2.0684,-2.0605,-3.59,-3.5077,-3.4504,-3.37,-3.2882,-3.2759,-3.2793,-3.2769,-3.2321,-3.1622,-3.1043,-3.0812,-3.0088,-2.9025,-2.9441,-2.928,-2.902,-2.8965,-2.8987,-2.8987,-2.8987,-2.9005,-2.8994,-2.8952,-2.9021,-2.9211,-2.9752,-3.0037,-3.0179,-3.0613,-3.1018,-3.1041,-3.111,-3.17,-3.2187,-3.1163,-3.1117,-3.145,-3.0311,-2.9492,-2.9405,-2.9272,-2.9177,-2.9084,-2.803,-2.7231,-2.6524,-2.5112,-2.4312,-2.4256,-2.4228,-2.4199,-2.4199,-2.4199,-2.4199,-2.4199,-2.4199,-2.4199,-2.4199,-2.4199,-2.4199,-2.4199,-2.4199,-2.42,-2.4256,-2.4275,-2.4294,-2.4321,-2.4312,-2.4375,-2.4384,-2.4486,-2.4534,-2.4583,-2.4685,-2.4797,-2.4915,-2.5018,-2.5065,-2.5094,-2.5192,-2.5284,-2.5279,-2.5274,-2.5274,-2.5303,-2.5293,-2.5303,-2.5303,-2.5321,-2.5346,-2.5383,-2.5379,-2.5395,-2.5395,-2.5379,-2.5397,-2.5411,-2.5447,-2.5471,-2.5526,-2.5551,-2.5552,-2.5585,-2.5586,-2.5603,-2.561,-2.5371,-2.4727,-2.3828,-2.2852,-2.1875,-2.1074,-2.082,-2.0586,-3.5344,-3.4748,-3.4003,-3.3224,-3.2571,-3.2501,-3.2501,-3.2304,-3.15,-3.0927,-3.0471,-2.9945,-2.9434,-2.9016,-2.9042,-2.9042,-2.8902,-2.8626,-2.8469,-2.8469,-2.8469,-2.8482,-2.8533,-2.8676,-2.8803,-2.9087,-2.9806,-3.0173,-3.0411,-3.0962,-3.1348,-3.1403,-3.1421,-3.1605,-3.2033,-3.1083,-3.0724,-3.0823,-2.9978,-2.9222,-2.9171,-2.9078,-2.8987,-2.8693,-2.7501,-2.6602,-2.6484,-2.5052,-2.4346,-2.4199,-2.4218,-2.419,-2.419,-2.4199,-2.4199,-2.4199,-2.4199,-2.4199,-2.4199,-2.4199,-2.4199,-2.4199,-2.4199,-2.4199,-2.4199,-2.4199,-2.4199,-2.4199,-2.4209,-2.4199,-2.4199,-2.4266,-2.4348,-2.4356,-2.4452,-2.4528,-2.4559,-2.4737,-2.491,-2.4942,-2.4993,-2.5043,-2.5074,-2.5143,-2.5152,-2.5135,-2.5269,-2.5279,-2.5293,-2.5313,-2.5308,-2.5317,-2.5317,-2.5317,-2.5317,-2.5312,-2.5315,-2.5337,-2.5367,-2.5383,-2.5398,-2.5427,-2.5447,-2.5479,-2.5509,-2.5543,-2.5501,-2.5288,-2.4807,-2.3613,-2.2578,-2.1777,-2.1133,-2.0684,-2.0527,-3.4787,-3.4357,-3.3635,-3.2914,-3.2352,-3.2282,-3.216,-3.1878,-3.0709,-3.0055,-2.9801,-2.9192,-2.8842,-2.8811,-2.8834,-2.8847,-2.867,-2.8294,-2.8024,-2.8024,-2.8024,-2.8037,-2.8061,-2.8237,-2.8595,-2.9053,-2.9813,-3.0198,-3.0613,-3.1164,-3.1843,-3.1806,-3.1837,-3.212,-3.1758,-3.1048,-3.0747,-3.0636,-2.9858,-2.9198,-2.9058,-2.9017,-2.8987,-2.873,-2.7721,-2.6932,-2.6649,-2.5585,-2.4612,-2.442,-2.4392,-2.428,-2.4141,-2.4198,-2.4199,-2.4199,-2.4199,-2.4199,-2.4199,-2.4199,-2.4199,-2.4199,-2.4199,-2.4199,-2.4199,-2.4199,-2.4199,-2.4199,-2.4199,-2.4199,-2.4199,-2.4228,-2.4218,-2.4218,-2.4209,-2.4199,-2.4247,-2.452,-2.4662,-2.476,-2.4847,-2.4908,-2.4896,-2.4923,-2.4943,-2.4992,-2.5135,-2.5238,-2.5243,-2.5228,-2.5195,-2.5143,-2.5115,-2.5152,-2.5163,-2.5274,-2.5288,-2.5284,-2.5303,-2.5303,-2.5313,-2.5344,-2.5383,-2.5415,-2.5449,-2.5465,-2.5408,-2.5239,-2.4499,-2.3288,-2.2539,-2.196,-2.1284,-2.0563,-2.0454,-3.3325,-3.2659,-3.1905,-3.153,-3.1445,-3.1428,-3.1124,-3.0476,-2.992,-2.9258,-2.8714,-2.8302,-2.8102,-2.812,-2.811,-2.811,-2.8026,-2.7821,-2.7779,-2.7811,-2.7797,-2.7797,-2.7779,-2.7894,-2.8322,-2.907,-2.9802,-3.046,-3.1181,-3.1977,-3.2457,-3.3138,-3.3183,-3.3164,-3.2908,-3.2564,-3.1549,-3.098,-3.0283,-2.9647,-2.9354,-2.9152,-2.9,-2.8897,-2.7885,-2.7482,-2.731,-2.6654,-2.5897,-2.5283,-2.5209,-2.4657,-2.406,-2.4024,-2.4122,-2.4113,-2.4123,-2.4113,-2.4094,-2.4151,-2.418,-2.4199,-2.4123,-2.4151,-2.4161,-2.4161,-2.4084,-2.4103,-2.4113,-2.4161,-2.419,-2.4094,-2.417,-2.418,-2.417,-2.418,-2.4209,-2.4294,-2.4409,-2.4537,-2.4662,-2.476,-2.4719,-2.4734,-2.478,-2.483,-2.4929,-2.5006,-2.5006,-2.4981,-2.4935,-2.4902,-2.4874,-2.4936,-2.5004,-2.5157,-2.5253,-2.5228,-2.5233,-2.5228,-2.5243,-2.5284,-2.5326,-2.5316,-2.5348,-2.5404,-2.5295,-2.5149,-2.4341,-2.3243,-2.2681,-2.2174,-2.1254,-2.0413,-2.0412,-3.2632,-3.2226,-3.1495,-3.119,-3.119,-3.119,-3.0784,-3.0076,-2.9481,-2.8819,-2.8099,-2.7558,-2.7514,-2.7653,-2.7393,-2.7288,-2.7303,-2.7288,-2.7288,-2.7288,-2.7288,-2.7288,-2.7348,-2.7485,-2.7752,-2.844,-2.9465,-3.0558,-3.1347,-3.1992,-3.2752,-3.3208,-3.3296,-3.3183,-3.2999,-3.2284,-3.1849,-3.1262,-3.0644,-3.0222,-3.0112,-2.9837,-2.9374,-2.8609,-2.7943,-2.7435,-2.7096,-2.6459,-2.5637,-2.4971,-2.4802,-2.4302,-2.3795,-2.3595,-2.371,-2.3703,-2.3827,-2.3837,-2.3742,-2.3682,-2.366,-2.3682,-2.3692,-2.3682,-2.3664,-2.3642,-2.3714,-2.3703,-2.3682,-2.3682,-2.366,-2.3721,-2.3756,-2.3907,-2.3955,-2.4034,-2.4141,-2.417,-2.4238,-2.4312,-2.4393,-2.4444,-2.4478,-2.452,-2.4607,-2.4678,-2.4719,-2.4753,-2.476,-2.4746,-2.4716,-2.4746,-2.4738,-2.4792,-2.4865,-2.4987,-2.5121,-2.5115,-2.5109,-2.5103,-2.5109,-2.5132,-2.5135,-2.5135,-2.5187,-2.5277,-2.5142,-2.4935,-2.4052,-2.3205,-2.2462,-2.1723,-2.0897,-2.0366,-2.0371,-3.2226,-3.2022,-3.1464,-3.119,-3.1173,-3.1021,-3.0548,-2.982,-2.9061,-2.8282,-2.7571,-2.7029,-2.7063,-2.7317,-2.7063,-2.6792,-2.6877,-2.6877,-2.686,-2.7012,-2.6859,-2.6741,-2.6808,-2.7005,-2.7333,-2.7847,-2.8727,-3.0203,-3.1049,-3.1882,-3.2505,-3.2835,-3.27,-3.257,-3.2479,-3.2155,-3.1659,-3.1203,-3.0839,-3.0766,-3.067,-3.0274,-2.9444,-2.8414,-2.7674,-2.7263,-2.7076,-2.6641,-2.5724,-2.5032,-2.4569,-2.4161,-2.3312,-2.3165,-2.3129,-2.3099,-2.3398,-2.3392,-2.3323,-2.3253,-2.3311,-2.3305,-2.3224,-2.3212,-2.3224,-2.3294,-2.3247,-2.3189,-2.3224,-2.3259,-2.3311,-2.3224,-2.3357,-2.3511,-2.361,-2.3671,-2.3845,-2.3907,-2.3927,-2.3998,-2.4074,-2.4162,-2.4238,-2.433,-2.4436,-2.4444,-2.4503,-2.4501,-2.4537,-2.4578,-2.4578,-2.4615,-2.4647,-2.4693,-2.4741,-2.4799,-2.4889,-2.4942,-2.4935,-2.4935,-2.4916,-2.4923,-2.4943,-2.4962,-2.503,-2.5072,-2.491,-2.4635,-2.3884,-2.3056,-2.2145,-2.1332,-2.0641,-2.0334,-2.0315,-3.1938,-3.1326,-3.1241,-3.119,-3.1089,-3.0548,-2.982,-2.9111,-2.8331,-2.752,-2.6928,-2.6776,-2.6759,-2.6826,-2.681,-2.7063,-2.7266,-2.7012,-2.7012,-2.7367,-2.7063,-2.6877,-2.6793,-2.6725,-2.7249,-2.7624,-2.8032,-2.8951,-3.0264,-3.1634,-3.2388,-3.2509,-3.2572,-3.2519,-3.2485,-3.2304,-3.2026,-3.144,-3.1224,-3.0599,-2.9579,-2.9326,-2.8852,-2.8156,-2.7812,-2.7649,-2.7451,-2.7091,-2.6503,-2.5332,-2.523,-2.444,-2.3187,-2.3057,-2.2845,-2.2751,-2.2887,-2.3253,-2.3129,-2.3099,-2.3069,-2.3075,-2.3105,-2.3177,-2.3111,-2.3099,-2.3111,-2.3189,-2.3153,-2.3123,-2.3087,-2.3141,-2.3218,-2.3242,-2.3259,-2.33,-2.341,-2.3588,-2.3621,-2.3692,-2.3764,-2.3945,-2.4066,-2.4152,-2.4237,-2.4247,-2.4266,-2.4294,-2.4312,-2.4384,-2.4401,-2.4435,-2.4459,-2.4528,-2.4553,-2.4607,-2.4647,-2.4708,-2.4708,-2.4716,-2.4716,-2.4712,-2.4804,-2.4828,-2.4883,-2.4841,-2.4675,-2.4297,-2.3712,-2.2911,-2.1967,-2.1194,-2.0485,-2.0342,-2.0265,-3.1498,-3.119,-3.119,-3.119,-3.1089,-3.0429,-2.9685,-2.8942,-2.8128,-2.7367,-2.6793,-2.6708,-2.6708,-2.6708,-2.6708,-2.6843,-2.7063,-2.6843,-2.7114,-2.7655,-2.7469,-2.752,-2.7824,-2.7571,-2.7587,-2.7672,-2.7909,-2.8423,-2.9678,-3.0783,-3.1637,-3.2109,-3.2349,-3.2515,-3.2401,-3.2484,-3.2306,-3.2075,-3.1828,-3.091,-2.9637,-2.9286,-2.8981,-2.7662,-2.7577,-2.7457,-2.7232,-2.6724,-2.6117,-2.5014,-2.4614,-2.3798,-2.2819,-2.2581,-2.2535,-2.2402,-2.2521,-2.2673,-2.2673,-2.2695,-2.2721,-2.2712,-2.2712,-2.2677,-2.2703,-2.2725,-2.2725,-2.2686,-2.2686,-2.2699,-2.2725,-2.2686,-2.2794,-2.2853,-2.2923,-2.3033,-2.3111,-2.3189,-2.3305,-2.3369,-2.3437,-2.3588,-2.3785,-2.3966,-2.4036,-2.4094,-2.4113,-2.4152,-2.42,-2.4257,-2.4257,-2.4247,-2.4284,-2.4312,-2.4348,-2.4366,-2.4365,-2.4409,-2.441,-2.4409,-2.4452,-2.4503,-2.4559,-2.4678,-2.4768,-2.4661,-2.4454,-2.3957,-2.3342,-2.2587,-2.1815,-2.107,-2.038,-2.023,-2.0186,-3.0426,-3.0726,-3.1064,-3.119,-3.1089,-3.0226,-2.9499,-2.8925,-2.7926,-2.7215,-2.6826,-2.6708,-2.6708,-2.6708,-2.6725,-2.6843,-2.7012,-2.6793,-2.7182,-2.7553,-2.7705,-2.7909,-2.7994,-2.7841,-2.7553,-2.7824,-2.7789,-2.83,-2.912,-3.0069,-3.0988,-3.1625,-3.1879,-3.2092,-3.2144,-3.2092,-3.2004,-3.1969,-3.1725,-3.0695,-2.9403,-2.9278,-2.8508,-2.7639,-2.7115,-2.702,-2.6656,-2.6047,-2.5318,-2.462,-2.3905,-2.3206,-2.2488,-2.2363,-2.2394,-2.2296,-2.2391,-2.229,-2.226,-2.2245,-2.2282,-2.2313,-2.2313,-2.2391,-2.2366,-2.2313,-2.231,-2.2377,-2.2363,-2.2366,-2.231,-2.2321,-2.244,-2.2567,-2.2612,-2.2781,-2.2903,-2.2903,-2.2965,-2.3063,-2.3123,-2.3177,-2.3392,-2.3692,-2.3837,-2.3907,-2.3955,-2.3976,-2.3996,-2.4016,-2.3976,-2.3917,-2.3988,-2.4027,-2.4047,-2.4075,-2.4085,-2.4113,-2.4094,-2.417,-2.4229,-2.4238,-2.4266,-2.4398,-2.4513,-2.4217,-2.3859,-2.3429,-2.2946,-2.2035,-2.1231,-2.08,-2.0325,-2.0191,-2.0058,-2.8306,-2.9439,-3.0636,-3.1098,-3.1013,-2.967,-2.9042,-2.8713,-2.7401,-2.681,-2.6708,-2.6708,-2.6708,-2.6725,-2.6843,-2.7114,-2.7604,-2.6996,-2.7334,-2.7452,-2.7266,-2.7588,-2.7841,-2.7791,-2.7368,-2.7824,-2.7993,-2.8399,-2.8959,-2.9659,-3.0476,-3.1152,-3.1211,-3.1266,-3.127,-3.125,-3.1232,-3.1127,-3.0801,-3.0098,-2.9005,-2.8459,-2.7675,-2.7046,-2.6758,-2.6708,-2.6657,-2.5812,-2.5004,-2.4277,-2.3615,-2.2874,-2.2226,-2.2183,-2.2166,-2.2094,-2.2077,-2.193,-2.1811,-2.1988,-2.224,-2.2299,-2.2268,-2.2194,-2.218,-2.2282,-2.2313,-2.2313,-2.2313,-2.2313,-2.2313,-2.231,-2.2349,-2.2374,-2.244,-2.248,-2.2561,-2.2508,-2.2584,-2.2751,-2.2824,-2.2857,-2.2903,-2.3177,-2.3466,-2.3533,-2.3566,-2.3577,-2.3577,-2.3588,-2.3533,-2.3522,-2.3649,-2.3703,-2.3724,-2.3735,-2.3756,-2.3806,-2.3806,-2.3917,-2.4056,-2.4037,-2.3893,-2.3928,-2.3943,-2.3603,-2.3179,-2.2629,-2.2013,-2.1292,-2.0696,-2.0452,-2.0452,-2.0464,-2.0191,-2.7687,-2.8196,-2.9103,-2.9718,-3.0004,-2.8547,-2.7961,-2.7771,-2.6768,-2.6453,-2.6674,-2.6708,-2.6708,-2.6776,-2.7199,-2.7249,-2.7215,-2.7401,-2.7755,-2.8061,-2.7943,-2.8162,-2.8466,-2.8413,-2.8315,-2.8414,-2.8482,-2.8602,-2.901,-2.9186,-2.9448,-2.9873,-3.0147,-3.0144,-3.011,-3.0294,-3.0277,-3.0057,-2.9922,-2.9533,-2.8382,-2.801,-2.7435,-2.6759,-2.615,-2.6065,-2.5828,-2.4814,-2.4049,-2.3453,-2.299,-2.2343,-2.1789,-2.1812,-2.1766,-2.1615,-2.1584,-2.1446,-2.1385,-2.16,-2.1766,-2.1584,-2.169,-2.1869,-2.1899,-2.2092,-2.2268,-2.2313,-2.2254,-2.218,-2.2282,-2.2282,-2.231,-2.2313,-2.2282,-2.2268,-2.2313,-2.2313,-2.2338,-2.2548,-2.2521,-2.2508,-2.2544,-2.2638,-2.292,-2.3159,-2.3165,-2.3177,-2.3177,-2.32,-2.3195,-2.3195,-2.3306,-2.3369,-2.3392,-2.3414,-2.3437,-2.3482,-2.3522,-2.3599,-2.3692,-2.3566,-2.3446,-2.3451,-2.3202,-2.2702,-2.221,-2.1706,-2.1303,-2.1038,-2.0681,-2.0317,-2.0415,-2.0741,-2.0569,-2.6477,-2.6819,-2.7125,-2.7872,-2.859,-2.7731,-2.7182,-2.688,-2.6132,-2.5926,-2.6246,-2.6246,-2.6263,-2.6429,-2.666,-2.6709,-2.6424,-2.6656,-2.721,-2.7274,-2.7223,-2.7979,-2.8546,-2.8522,-2.7845,-2.8346,-2.8213,-2.8073,-2.8004,-2.8165,-2.8139,-2.8287,-2.8684,-2.8707,-2.9365,-2.9397,-2.9482,-2.9281,-2.9042,-2.9024,-2.7874,-2.7519,-2.7144,-2.6437,-2.5799,-2.533,-2.4846,-2.3901,-2.3042,-2.2584,-2.2156,-2.1637,-2.1338,-2.1181,-2.1228,-2.1086,-2.0975,-2.0926,-2.0926,-2.1134,-2.1275,-2.1197,-2.126,-2.1399,-2.1522,-2.1736,-2.1783,-2.1827,-2.1871,-2.193,-2.193,-2.1796,-2.1915,-2.1886,-2.1974,-2.2003,-2.224,-2.2313,-2.2313,-2.238,-2.2338,-2.2335,-2.2363,-2.2443,-2.2531,-2.2747,-2.2751,-2.2773,-2.2794,-2.2857,-2.2928,-2.2945,-2.2982,-2.3026,-2.3057,-2.3069,-2.3105,-2.3259,-2.3271,-2.3212,-2.3224,-2.3117,-2.2953,-2.2805,-2.2417,-2.1785,-2.1341,-2.103,-2.106,-2.1124,-2.1009,-2.1091,-2.1071,-2.1398,-2.1232,-2.4457,-2.5352,-2.4963,-2.5836,-2.7269,-2.7315,-2.6869,-2.6197,-2.5534,-2.5278,-2.5392,-2.5373,-2.5373,-2.5441,-2.5729,-2.5716,-2.5584,-2.5556,-2.5785,-2.594,-2.5964,-2.6389,-2.6836,-2.7038,-2.7084,-2.7093,-2.7118,-2.698,-2.6606,-2.6821,-2.6713,-2.6548,-2.6883,-2.7312,-2.8766,-2.8939,-2.8956,-2.8821,-2.8106,-2.7817,-2.7394,-2.689,-2.6413,-2.597,-2.5174,-2.459,-2.4056,-2.2915,-2.2135,-2.1826,-2.1488,-2.1103,-2.0878,-2.091,-2.0926,-2.0862,-2.0878,-2.0715,-2.0399,-2.0797,-2.0862,-2.0829,-2.0862,-2.0975,-2.1007,-2.1087,-2.1197,-2.1338,-2.1229,-2.1166,-2.1086,-2.1118,-2.1385,-2.1507,-2.1598,-2.169,-2.1901,-2.2005,-2.1947,-2.1886,-2.2092,-2.2265,-2.2282,-2.2296,-2.2293,-2.2332,-2.2324,-2.2363,-2.2453,-2.2527,-2.2643,-2.2669,-2.2699,-2.2721,-2.2742,-2.2725,-2.2772,-2.2947,-2.2984,-2.2903,-2.2865,-2.2815,-2.2595,-2.2294,-2.1948,-2.1552,-2.0987,-2.0441,-2.0919,-2.1496,-2.2142,-2.231,-2.219,-2.1888,-2.1605,-2.3838,-2.423,-2.4477,-2.4707,-2.4946,-2.5339,-2.5363,-2.5152,-2.4869,-2.4855,-2.5163,-2.5202,-2.5202,-2.5314,-2.5547,-2.5543,-2.5259,-2.583,-2.5926,-2.579,-2.5348,-2.583,-2.625,-2.6377,-2.6358,-2.6663,-2.6663,-2.6481,-2.6386,-2.6114,-2.587,-2.5734,-2.5564,-2.5876,-2.6469,-2.6809,-2.7003,-2.6627,-2.6542,-2.6591,-2.6136,-2.5858,-2.5672,-2.5438,-2.4418,-2.3695,-2.3369,-2.209,-2.1305,-2.1075,-2.0778,-2.073,-2.0398,-2.0364,-2.0431,-2.026,-2.0172,-2.0102,-1.9945,-2.0085,-2.0122,-2.0243,-2.0414,-2.0533,-2.0533,-2.0862,-2.0943,-2.0958,-2.0894,-2.091,-2.1007,-2.1007,-2.115,-2.115,-2.1197,-2.1213,-2.1323,-2.1338,-2.1323,-2.1323,-2.1432,-2.1675,-2.1779,-2.1855,-2.1899,-2.2032,-2.2063,-2.218,-2.229,-2.2332,-2.2412,-2.2415,-2.2429,-2.2426,-2.2422,-2.2358,-2.2317,-2.2381,-2.2483,-2.2508,-2.2494,-2.2514,-2.2396,-2.2164,-2.178,-2.1381,-2.0968,-2.0744,-2.1377,-2.2007,-2.2367,-2.238,-2.1946,-2.1742,-2.1631,-2.3595,-2.3655,-2.4066,-2.4014,-2.3744,-2.4321,-2.45,-2.4267,-2.4167,-2.4328,-2.4572,-2.4632,-2.4632,-2.4773,-2.5049,-2.521,-2.4715,-2.508,-2.5331,-2.5304,-2.4887,-2.5087,-2.5467,-2.5728,-2.5601,-2.5885,-2.6031,-2.5968,-2.5212,-2.531,-2.505,-2.4692,-2.4672,-2.4686,-2.4988,-2.5397,-2.5828,-2.5641,-2.5773,-2.5767,-2.5442,-2.524,-2.5163,-2.4627,-2.3787,-2.2794,-2.229,-2.1452,-2.0431,-2.0296,-2.0277,-2.0311,-1.9962,-1.9874,-1.9947,-1.978,-1.9723,-1.9726,-1.9744,-1.9744,-1.9833,-1.9815,-1.9997,-2.0087,-2.0122,-2.0328,-2.043,-2.0497,-2.0598,-2.0581,-2.0581,-2.0614,-2.0649,-2.0649,-2.0748,-2.078,-2.0975,-2.1023,-2.1007,-2.0958,-2.0958,-2.115,-2.1306,-2.1368,-2.1461,-2.163,-2.1812,-2.193,-2.2034,-2.2046,-2.2003,-2.1959,-2.1915,-2.1823,-2.1851,-2.1924,-2.1897,-2.1855,-2.1991,-2.2152,-2.218,-2.2184,-2.2099,-2.1992,-2.1596,-2.1241,-2.1075,-2.1152,-2.1627,-2.1923,-2.2106,-2.1959,-2.1596,-2.1707,-2.189,-2.3595,-2.3595,-2.3595,-2.3625,-2.3714,-2.4246,-2.4156,-2.364,-2.3616,-2.3638,-2.3659,-2.373,-2.3794,-2.3687,-2.3726,-2.379,-2.3803,-2.3848,-2.39,-2.3878,-2.3931,-2.4247,-2.4497,-2.4648,-2.4704,-2.4656,-2.4701,-2.4706,-2.3793,-2.4046,-2.3964,-2.3782,-2.3879,-2.3879,-2.4183,-2.4549,-2.5025,-2.51,-2.5178,-2.5206,-2.506,-2.4977,-2.4614,-2.3966,-2.296,-2.214,-2.1462,-2.0582,-2.0002,-1.9797,-1.978,-1.9762,-1.9708,-1.9723,-1.9723,-1.9723,-1.9723,-1.9723,-1.9723,-1.9723,-1.9723,-1.9723,-1.9744,-1.9744,-1.9797,-1.9889,-1.9995,-1.9977,-2.0013,-1.9889,-1.9833,-1.9925,-2.0015,-2.0106,-2.0263,-2.0465,-2.0731,-2.0829,-2.0797,-2.078,-2.0763,-2.0845,-2.091,-2.0991,-2.1039,-2.126,-2.1385,-2.1338,-2.1446,-2.1583,-2.1507,-2.1323,-2.126,-2.115,-2.1245,-2.1477,-2.1492,-2.1461,-2.1721,-2.1886,-2.1901,-2.1809,-2.1693,-2.1535,-2.1317,-2.111,-2.0961,-2.1231,-2.1731,-2.1932,-2.1997,-2.2176,-2.2034,-2.2314,-2.2548,-2.3595,-2.3595,-2.3595,-2.3595,-2.3625,-2.3804,-2.3789,-2.361,-2.3595,-2.3595,-2.3595,-2.3595,-2.3595,-2.3595,-2.3595,-2.358,-2.3595,-2.3595,-2.3631,-2.3595,-2.3595,-2.3744,-2.3849,-2.3932,-2.3924,-2.3924,-2.3894,-2.3864,-2.3691,-2.3595,-2.3595,-2.3616,-2.3595,-2.3595,-2.3702,-2.3921,-2.4365,-2.4679,-2.4798,-2.4737,-2.4593,-2.4399,-2.3926,-2.3148,-2.2211,-2.1472,-2.0884,-2.0258,-1.9828,-1.9753,-1.9723,-1.969,-1.9723,-1.9723,-1.9723,-1.9723,-1.9723,-1.9723,-1.9723,-1.9705,-1.9636,-1.9581,-1.9603,-1.9723,-1.9723,-1.9654,-1.9672,-1.9723,-1.9723,-1.9723,-1.9723,-1.9762,-1.9782,-1.9874,-1.9982,-2.0087,-2.0344,-2.0344,-2.0311,-2.0311,-2.0326,-2.0396,-2.0465,-2.0515,-2.0599,-2.0845,-2.0943,-2.0862,-2.0894,-2.1023,-2.0991,-2.0813,-2.078,-2.0714,-2.0878,-2.1118,-2.1102,-2.1118,-2.1369,-2.1493,-2.1338,-2.1258,-2.1224,-2.1168,-2.1106,-2.1032,-2.0917,-2.1246,-2.1611,-2.1826,-2.1927,-2.2251,-2.2525,-2.2594,-2.2673,-2.2847,-2.2847,-2.2847,-2.2996,-2.3242,-2.3242,-2.334,-2.3565,-2.3595,-2.3595,-2.3595,-2.3595,-2.3595,-2.355,-2.3355,-2.3325,-2.3565,-2.3295,-2.3295,-2.3595,-2.3595,-2.3625,-2.361,-2.3595,-2.364,-2.3595,-2.3595,-2.3655,-2.3595,-2.3595,-2.3595,-2.3595,-2.3595,-2.3595,-2.3638,-2.3726,-2.4028,-2.4289,-2.4402,-2.4246,-2.4051,-2.3812,-2.3295,-2.2607,-2.1675,-2.1217,-2.0635,-2.0117,-2.0057,-1.9901,-1.9838,-1.955,-1.9505,-1.9426,-1.9072,-1.9001,-1.9001,-1.8964,-1.8949,-1.8968,-1.9058,-1.9095,-1.9099,-1.9024,-1.9244,-1.9332,-1.9548,-1.9723,-1.9723,-1.9723,-1.9723,-1.9723,-1.9723,-1.9726,-1.9726,-1.9726,-1.9744,-1.9744,-1.9744,-1.9762,-1.9815,-1.9907,-1.998,-2.0035,-2.0104,-2.026,-2.0311,-2.0277,-2.0347,-2.0516,-2.0449,-2.0278,-2.0328,-2.0345,-2.0548,-2.0649,-2.0615,-2.0682,-2.0975,-2.1007,-2.0829,-2.0894,-2.099,-2.1038,-2.1022,-2.0911,-2.0767,-2.1037,-2.1351,-2.1507,-2.1568,-2.1688,-2.194,-2.2231,-2.2287,-2.165,-2.166,-2.162,-2.2017,-2.2521,-2.253,-2.2835,-2.343,-2.3325,-2.3505,-2.355,-2.3595,-2.3595,-2.352,-2.3221,-2.3182,-2.3266,-2.3137,-2.3161,-2.355,-2.3595,-2.3595,-2.3595,-2.3595,-2.3595,-2.3595,-2.3595,-2.3595,-2.3573,-2.3486,-2.3399,-2.3573,-2.3595,-2.3595,-2.3595,-2.3595,-2.3789,-2.3857,-2.3797,-2.3655,-2.3761,-2.3581,-2.3216,-2.2548,-2.2025,-2.1598,-2.0709,-2.0387,-2.0485,-2.0081,-1.9685,-1.9171,-1.9064,-1.8968,-1.8498,-1.8327,-1.8447,-1.8425,-1.8403,-1.838,-1.8288,-1.8263,-1.8112,-1.8288,-1.8631,-1.8912,-1.9132,-1.9188,-1.9151,-1.9147,-1.9147,-1.9132,-1.9132,-1.9151,-1.9151,-1.9277,-1.9406,-1.953,-1.9723,-1.9723,-1.9726,-1.9797,-1.9815,-1.9889,-1.9907,-1.9854,-1.9836,-1.9836,-1.9874,-2.0054,-1.9984,-1.9841,-1.998,-2.0032,-2.0032,-2.0122,-2.007,-2.0193,-2.0515,-2.0532,-2.0347,-2.0549,-2.0845,-2.0698,-2.0531,-2.0665,-2.0699,-2.083,-2.0894,-2.0975,-2.1039,-2.1039,-2.1291,-2.1691,-2.1827,-2.107,-2.107,-2.1105,-2.1187,-2.1324,-2.1339,-2.1654,-2.2143,-2.2143,-2.267,-2.346,-2.3543,-2.3565,-2.3445,-2.3325,-2.3257,-2.3002,-2.3152,-2.3167,-2.3266,-2.3385,-2.352,-2.3558,-2.35,-2.3522,-2.3595,-2.3595,-2.3428,-2.3326,-2.315,-2.315,-2.3463,-2.3367,-2.3235,-2.3235,-2.3235,-2.322,-2.3058,-2.2931,-2.3139,-2.3674,-2.3069,-2.2498,-2.1418,-2.0649,-1.9874,-1.9146,-1.8885,-1.8804,-1.8574,-1.8478,-1.84,-1.8484,-1.8575,-1.8466,-1.8232,-1.8262,-1.8167,-1.8023,-1.7894,-1.7894,-1.7987,-1.804,-1.8086,-1.819,-1.84,-1.8496,-1.8511,-1.8554,-1.8568,-1.8588,-1.8574,-1.8574,-1.8593,-1.8593,-1.8822,-1.9062,-1.9332,-1.9599,-1.9636,-1.9636,-1.9636,-1.9617,-1.9636,-1.9723,-1.9726,-1.9726,-1.9726,-1.9621,-1.9696,-1.9594,-1.9536,-1.9729,-1.9782,-1.9747,-1.9764,-1.9821,-1.9818,-2.005,-1.9997,-1.9874,-2.0087,-2.0311,-2.0087,-1.9962,-2.0174,-2.0313,-2.0364,-2.0431,-2.0483,-2.0615,-2.0665,-2.0796,-2.1134,-2.1213,-1.9656,-1.9642,-1.9656,-1.9833,-2.0081,-2.0109,-2.0452,-2.0918,-2.1003,-2.1365,-2.2162,-2.2778,-2.3191,-2.3176,-2.3191,-2.3253,-2.2954,-2.3101,-2.3206,-2.3236,-2.318,-2.3317,-2.3357,-2.3193,-2.2871,-2.2871,-2.2773,-2.2659,-2.2706,-2.2245,-2.21,-2.2388,-2.2316,-2.2185,-2.2156,-2.2062,-2.1981,-2.1533,-2.1624,-2.201,-2.2739,-2.2018,-2.1241,-2.0118,-1.96,-1.8817,-1.8479,-1.8339,-1.8567,-1.8459,-1.8406,-1.7752,-1.7642,-1.7529,-1.7597,-1.7491,-1.751,-1.7705,-1.7521,-1.7509,-1.7543,-1.7583,-1.776,-1.7731,-1.7368,-1.7555,-1.8065,-1.8132,-1.8271,-1.8302,-1.8302,-1.8302,-1.8288,-1.8288,-1.8288,-1.8419,-1.8535,-1.8669,-1.8798,-1.8798,-1.8798,-1.8798,-1.8779,-1.8798,-1.8836,-1.8836,-1.8968,-1.9058,-1.9076,-1.9221,-1.9151,-1.9169,-1.9332,-1.9584,-1.9726,-1.9726,-1.9744,-1.9726,-1.9599,-1.9675,-1.9696,-1.9726,-1.9726,-1.9621,-1.9621,-1.978,-1.9907,-1.9929,-1.9982,-2.0052,-2.0191,-2.0328,-2.0464,-2.0548,-2.0548,-1.8008,-1.7913,-1.7994,-1.8349,-1.8817,-1.8879,-1.9232,-1.9782,-1.983,-1.9837,-2.0112,-2.1535,-2.2206,-2.245,-2.2494,-2.2865,-2.2935,-2.2615,-2.2834,-2.2907,-2.3128,-2.2871,-2.2643,-2.2532,-2.229,-2.1849,-2.1531,-2.1616,-2.1722,-2.1232,-2.0914,-2.0766,-2.0529,-2.0261,-2.0184,-2.0158,-2.0322,-2.0239,-2.0182,-1.9956,-2.0111,-2.0309,-1.9887,-1.9593,-1.9327,-1.903,-1.8481,-1.831,-1.8659,-1.8486,-1.8022,-1.7452,-1.7089,-1.6982,-1.6863,-1.6884,-1.7199,-1.713,-1.6934,-1.7079,-1.7014,-1.7024,-1.7275,-1.7277,-1.6986,-1.7091,-1.7643,-1.7739,-1.7882,-1.7847,-1.7827,-1.7847,-1.7847,-1.7874,-1.7874,-1.7933,-1.7993,-1.8072,-1.8131,-1.8131,-1.8131,-1.8131,-1.8112,-1.8112,-1.8092,-1.8072,-1.8072,-1.8092,-1.819,-1.8458,-1.8593,-1.8669,-1.8836,-1.9132,-1.9402,-1.9402,-1.9277,-1.9188,-1.9058,-1.9314,-1.9424,-1.9207,-1.9132,-1.9295,-1.9314,-1.9314,-1.9457,-1.9518,-1.957,-1.9657,-1.9889,-2.0032,-2.0013,-2.0048,-1.9907,-1.7188,-1.6837,-1.7284,-1.7543,-1.7657,-1.7657,-1.797,-1.8417,-1.8486,-1.8471,-1.8789,-1.937,-2.0246,-2.1237,-2.1237,-2.1524,-2.1908,-2.1846,-2.1547,-2.1358,-2.2147,-2.2089,-2.1786,-2.1482,-2.1727,-2.1272,-2.0595,-2.0293,-2.0755,-2.0479,-2.0404,-2.0699,-2.0707,-2.0536,-2.0545,-2.0241,-1.9555,-1.9312,-1.9009,-1.885,-1.8395,-1.8628,-1.8992,-1.8631,-1.807,-1.7523,-1.7059,-1.6931,-1.6991,-1.6961,-1.7021,-1.6811,-1.68,-1.6835,-1.6773,-1.6763,-1.7052,-1.7287,-1.725,-1.7324,-1.7341,-1.7442,-1.7692,-1.7648,-1.7399,-1.7223,-1.742,-1.7178,-1.7191,-1.6969,-1.6926,-1.6964,-1.6985,-1.7118,-1.7146,-1.7333,-1.7442,-1.7727,-1.7913,-1.7913,-1.7913,-1.7913,-1.7913,-1.7894,-1.7874,-1.7867,-1.7847,-1.7867,-1.7807,-1.7913,-1.7993,-1.8106,-1.8243,-1.8322,-1.84,-1.8574,-1.8535,-1.8496,-1.8516,-1.8708,-1.8708,-1.8438,-1.8438,-1.8722,-1.8703,-1.8612,-1.8784,-1.9043,-1.9225,-1.935,-1.9617,-1.9762,-1.9654,-1.953,-1.935]},{"header":{"parameterUnit":"m.s-1","parameterCategory":1,"la1":31.0,"la2":29.5877,"lo1":-88.7671,"lo2":-86.6584,"dy":0.0162,"dx":0.0185,"nx":115,"ny":88,"refTime":"2023-07-26T12:00:00:Z","depth":0,"parameterNumber":3,"parameterNumberName":"V-component_of_WINDS"},"data":[0.0,0.0,0.0,0.0,0.0,0.0,0.0,0.0,0.0,0.0,0.0,0.0,0.0,0.0,0.0,0.0,0.0,0.0,0.0,0.0,0.0,0.0,0.0,0.0,0.0,0.0,0.0,0.0,0.0,0.0,0.0,0.0,0.0,0.0,0.0,0.0,0.0,0.0,0.0,0.0,0.0,0.0,0.0,0.0,0.0,0.0,0.0,0.0,0.0,0.0,0.0,0.0,0.0,0.0,0.0,0.0,0.0,0.0,0.0,0.0,0.0,0.0,0.0,0.0,0.0,0.0,0.0,0.0,0.0,0.0,0.0,0.0,0.0,0.0,0.0,0.0,0.0,0.0,0.0,0.0,0.0,0.0,0.0,0.0,0.0,0.0,0.0,0.0,0.0,0.0,0.0,0.0,0.0,0.0,0.0,0.0,0.0,0.0,0.0,0.0,0.0,0.0,0.0,0.0,0.0,0.0,0.0,0.0,0.0,0.0,0.0,0.0,0.0,0.0,0.0,0.0,0.0,0.0,0.0,0.0,0.0,0.0,0.0,0.0,0.0,0.0,0.0,0.0,0.0,0.0,0.0,0.0,0.0,0.0,0.0,0.0,0.0,0.0,0.0,0.0,0.0,0.0,0.0,0.0,0.0,0.0,0.0,0.0,0.0,0.0,0.0,0.0,0.0,0.0,0.0,0.0,0.0,0.0,0.0,0.0,0.0,0.0,0.0,0.0,0.0,0.0,0.0,0.0,0.0,0.0,0.0,0.0,0.0,0.0,0.0,0.0,0.0,0.0,0.0,0.0,0.0,0.0,0.0,0.0,0.0,0.0,0.0,0.0,0.0,0.0,0.0,0.0,0.0,0.0,0.0,0.0,0.0,0.0,0.0,0.0,0.0,0.0,0.0,0.0,0.0,0.0,0.0,0.0,0.0,0.0,0.0,0.0,0.0,0.0,0.0,0.0,0.0,0.0,0.0,0.0,0.0,0.0,0.0,0.0,0.0,0.0,0.0,0.0,0.0,0.0,0.0,0.0,0.0,0.0,0.0,0.0,0.0,0.0,0.0,0.0,0.0,0.0,0.0,0.0,0.0,0.0,0.0,0.0,0.0,0.0,0.0,0.0,0.0,0.0,0.0,0.0,0.0,0.0,0.0,0.0,0.0,0.0,0.0,0.0,0.0,0.0,0.0,0.0,0.0,0.0,0.0,0.0,0.0,0.0,0.0,0.0,0.0,0.0,0.0,0.0,0.0,0.0,0.0,0.0,0.0,0.0,0.0,0.0,0.0,0.0,0.0,0.0,0.0,0.0,0.0,0.0,0.0,0.0,0.0,0.0,0.0,0.0,0.0,0.0,0.0,0.0,0.0,0.0,0.0,0.0,0.0,0.0,0.0,0.0,0.0,0.0,0.0,0.0,0.0,0.0,0.0,0.0,0.0,0.0,0.0,0.0,0.0,0.0,0.0,0.0,0.0,0.0,0.0,0.0,0.0,0.0,0.0,0.0,0.0,0.0,0.0,0.0,0.0,0.0,0.0,0.0,0.0,0.0,0.0,0.0,0.0,0.0,0.0,0.0,0.0,0.0,0.0,0.0,0.0,0.0,0.0,0.0,0.0,0.0,0.0,0.0,0.0,0.0,0.0,0.0,0.0,0.0,0.0,0.0,0.0,0.0,0.0,0.0,0.0,0.0,0.0,0.0,0.0,0.0,0.0,0.0,0.0,0.0,0.0,0.0,0.0,0.0,0.0,0.0,0.0,0.0,0.0,0.0,0.0,0.0,0.0,0.0,0.0,0.0,0.0,0.0,0.0,0.0,0.0,0.0,0.0,0.0,0.0,0.0,0.0,0.0,0.0,0.0,0.0,0.0,0.0,0.0,0.0,0.0,0.0,0.0,0.0,0.0,0.0,0.0,0.0,0.0,0.0,0.0,0.0,0.0,0.0,0.0,0.0,0.0,0.0,0.0,0.0,0.0,0.0,0.0,0.0,0.0,0.0,0.0,0.0,0.0,0.0,0.0,0.0,0.0,0.0,0.0,0.0,0.0,0.0,0.0,0.0,0.0,0.0,0.0,0.0,0.0,0.0,0.0,0.0,0.0,0.0,0.0,0.0,0.0,0.0,0.0,0.0,0.0,0.0,0.0,0.0,0.0,0.0,0.0,0.0,0.0,0.0,0.0,0.0,0.0,0.0,0.0,0.0,0.0,0.0,0.0,0.0,0.0,0.0,0.0,0.0,0.0,0.0,0.0,0.0,0.0,0.0,0.0,0.0,0.0,0.0,0.0,0.0,0.0,0.0,0.0,0.0,0.0,0.0,0.0,0.0,0.0,0.0,0.0,0.0,0.0,0.0,0.0,0.0,0.0,0.0,0.0,0.0,0.0,0.0,0.0,0.0,0.0,0.0,0.0,0.0,0.0,0.0,0.0,0.0,0.0,0.0,0.0,0.0,0.0,0.0,0.0,0.0,0.0,0.0,0.0,0.0,0.0,0.0,0.0,0.0,0.0,0.0,0.0,0.0,0.0,0.0,0.0,0.0,0.0,0.0,0.0,0.0,0.0,0.0,0.0,0.0,0.0,0.0,0.0,0.0,0.0,0.0,0.0,0.0,0.0,0.0,0.0,0.0,0.0,0.0,0.0,0.0,0.0,0.0,0.0,0.0,0.0,0.0,0.0,0.0,0.0,0.0,0.0,0.0,0.0,0.0,0.0,0.0,0.0,0.0,0.0,0.0,0.0,0.0,0.0,0.0,0.0,0.0,0.0,0.0,0.0,0.0,0.0,0.0,0.0,0.0,0.0,0.0,0.0,0.0,0.0,0.0,0.0,0.0,0.0,0.0,0.0,0.0,0.0,0.0,0.0,0.0,0.0,0.0,0.0,0.0,0.0,0.0,0.0,0.0,0.0,0.0,0.0,0.0,0.0,0.0,0.0,0.0,0.0,0.0,0.0,0.0,0.0,0.0,0.0,0.0,0.0,0.0,0.0,0.0,0.0,0.0,0.0,0.0,0.0,0.0,0.0,0.0,0.0,0.0,0.0,0.0,0.0,0.0,0.0,0.0,0.0,0.0,0.0,0.0,0.0,0.0,0.0,0.0,0.0,0.0,0.0,0.0,0.0,0.0,0.0,0.0,0.0,0.0,0.0,0.0,0.0,0.0,0.0,0.0,0.0,0.0,0.0,0.0,0.0,0.0,0.0,0.0,0.0,0.0,0.0,0.0,0.0,0.0,0.0,0.0,0.0,0.0,0.0,0.0,0.0,0.0,0.0,0.0,0.0,0.0,0.0,0.0,0.0,0.0,0.0,0.0,0.0,0.0,0.0,0.0,0.0,0.0,0.0,0.0,0.0,0.0,0.0,0.0,0.0,0.0,0.0,0.0,0.0,0.0,0.0,0.0,0.0,0.0,0.0,0.0,0.0,0.0,0.0,0.0,0.0,0.0,0.0,0.0,0.0,0.0,0.0,0.0,0.0,0.0,0.0,0.0,0.0,0.0,0.0,0.0,0.0,0.0,0.0,0.0,0.0,0.0,0.0,0.0,0.0,0.0,0.0,0.0,0.0,0.0,0.0,0.0,0.0,0.0,0.0,0.0,0.0,0.0,0.0,0.0,0.0,0.0,0.0,0.0,0.0,0.0,0.0,0.0,0.0,0.0,0.0,0.0,0.0,0.0,0.0,0.0,0.0,0.0,0.0,0.0,0.0,0.0,0.0,0.0,0.0,0.0,0.0,0.0,0.0,0.0,0.0,0.0,0.0,0.0,0.0,0.0,0.0,0.0,0.0,0.0,0.0,0.0,0.0,0.0,0.0,0.0,0.0,0.0,0.0,0.0,0.0,0.0,0.0,0.0,0.0,0.0,0.0,0.0,0.0,0.0,0.0,0.0,0.0,0.0,0.0,0.0,0.0,0.0,0.0,0.0,0.0,0.0,0.0,0.0,0.0,0.0,0.0,0.0,0.0,0.0,0.0,0.0,0.0,0.0,0.0,0.0,0.0,0.0,0.0,0.0,0.0,0.0,0.0,0.0,0.0,0.0,0.0,0.0,0.0,0.0,0.0,0.0,0.0,0.0,0.0,0.0,0.0,0.0,0.0,0.0,0.0,0.0,0.0,0.0,0.0,0.0,0.0,0.0,0.0,0.0,0.0,0.0,0.0,0.0,0.0,0.0,0.0,0.0,0.0,0.0,0.0,0.0,0.0,0.0,0.0,0.0,0.0,0.0,0.0,0.0,0.0,0.0,0.0,0.0,0.0,0.0,0.0,0.0,0.0,0.0,0.0,0.0,0.0,-0.2983,0.0,0.0,0.0,0.0,0.0,0.0,0.0,0.0,0.0,0.0,0.0,0.0,0.0,0.0,0.0,0.0,0.0,0.0,0.0,0.0,0.0,0.0,0.0,0.0,0.0,0.0,0.0,0.0,0.0,0.0,0.0,0.0,0.0,0.0,0.0,0.0,0.0,0.0,0.0,0.0,0.0,0.0,0.0,0.0,0.0,0.0,0.0,0.0,0.0,0.0,0.0,0.0,0.0,0.0,0.0,0.0,0.0,0.0,0.0,0.0,0.0,0.0,0.0,0.0,0.0,0.0,0.0,0.0,0.0,0.0,0.0,0.0,0.0,0.0,0.0,0.0,0.0,0.0,0.0,0.0,0.0,0.0,0.0,0.0,0.0,0.0,0.0,0.0,0.0,0.0,0.0,0.0,0.0,0.0,0.0,0.0,0.0,0.0,0.0,0.0,0.0,0.0,0.0,0.0,0.0,0.0,0.0,0.0,0.0,0.0,-0.0769,-0.1149,-0.181,-0.2492,-0.3208,0.0,0.0,0.0,0.0,0.0,0.0,0.0,0.0,0.0,0.0,0.0,0.0,0.0,0.0,0.0,0.0,0.0,0.0,0.0,0.0,0.0,0.0,0.0,0.0,0.0,0.0,0.0,0.0,0.0,0.0,0.0,0.0,0.0,0.0,0.0,0.0,0.0,0.0,0.0,0.0,0.0,0.0,0.0,0.0,0.0,0.0,0.0,0.0,0.0,0.0,0.0,0.0,0.0,0.0,0.0,0.0,0.0,0.0,0.0,0.0,0.0,0.0,0.0,0.0,0.0,0.0,0.0,0.0,0.0,0.0,0.0,0.0,0.0,0.0,0.0,0.0,0.0,0.0,0.0,0.0,0.0,0.0,0.0,0.0,0.0,0.0,0.0,0.0,0.0,0.0,0.0,0.0,0.0,0.0,0.0,0.0,0.0,0.0,0.0,0.0,0.0,0.0,0.0,0.0,0.0,0.0,0.0,0.0,0.0,0.0,0.0,0.0,-0.2241,-0.297,-0.3637,0.0,0.0,0.0,0.0,0.0,0.0,0.0,0.0,0.0,0.0,0.0,0.0,0.0,0.0,0.0,0.0,0.0,0.0,0.0,0.0,0.0,0.0,0.0,0.0,0.0,0.0,0.0,0.0,0.0,0.0,0.0,0.0,0.0,0.0,0.0,0.0,0.0,0.0,0.0,0.0,0.0,0.0,0.0,0.0,0.0,0.0,0.0,0.0,0.0,0.0,0.0,0.0,0.0,0.0,0.0,0.0,0.0,0.0,0.0,0.0,0.0,0.0,0.0,0.0,0.0,0.0,0.0,0.0,0.0,0.0,0.0,0.0,0.0,0.0,0.0,0.0,0.0,0.0,0.0,0.0,0.0,0.0,0.0,0.0,0.0,0.0,0.0,0.0,0.0,0.0,0.0,0.0,0.0,0.0,0.0,0.0,0.0,0.0,0.0,0.0,0.0,0.0,0.0,0.0,0.0,0.0,0.0,0.0,0.0,0.0,-0.1455,-0.1852,-0.2501,0.0,-0.4343,0.0,0.0,0.0,0.0,0.0,0.0,0.0,0.0,0.0,0.0,0.0,0.0,0.0,0.0,0.0,0.0,0.0,0.0,0.0,0.0,0.0,0.0,0.0,0.0,0.0,0.0,0.0,0.0,0.0,0.0,0.0,0.0,0.0,0.0,0.0,0.0,0.0,0.0,0.0,0.0,0.0,0.0,0.0,0.0,0.0,0.0,0.0,0.0,0.0,0.0,0.0,0.0,0.0,0.0,0.0,0.0,0.0,0.0,0.0,0.0,0.0,0.0,0.0,0.0,0.0,0.0,0.0,0.0,0.0,0.0,0.0,0.0,0.0,0.0,0.0,0.0,0.0,0.0,0.0,0.0,0.0,0.0,0.0,0.0,0.0,0.0,0.0,0.0,0.0,0.0,0.0,0.0,0.0,0.0,0.0,0.0,0.0,0.0,0.0,0.0,0.0,0.0,0.0,0.0,0.0,0.0,0.0,0.0,0.0,0.0,-0.2084,-0.2463,-0.3207,-0.4007,0.0,0.0,0.0,0.0,0.0,0.0,0.0,0.0,0.0,0.0,0.0,0.0,0.0,0.0,0.0,0.0,0.0,0.0,0.0,0.0,0.0,0.0,0.0,0.0,0.0,0.0,0.0,0.0,0.0,0.0,0.0,0.0,0.0,0.0,0.0,0.0,0.0,0.0,0.0,0.0,0.0,0.0,0.0,0.0,0.0,0.0,0.0,0.0,0.0,0.0,0.0,0.0,0.0,0.0,0.0,0.0,0.0,0.0,0.0,0.0,0.0,0.0,0.0,0.0,0.0,0.0,0.0,0.0,0.0,0.0,0.0,0.0,0.0,0.0,0.0,0.0,0.0,0.0,0.0,0.0,0.0,0.0,0.0,0.0,0.0,0.0,0.0,0.0,0.0,0.0,0.0,0.0,0.0,0.0,0.0,0.0,0.0,0.0,0.0,0.0,0.0,0.0,0.0,0.0,0.0,0.0,0.0,0.0,0.0,0.0,-0.2118,-0.2715,-0.3247,-0.3825,-0.4466,-0.5148,0.0,0.0,0.0,0.0,0.0,0.0,0.0,0.0,0.0,0.0,0.0,0.0,0.0,0.0,0.0,0.0,0.0,0.0,0.0,0.0,0.0,0.0,0.0,0.0,0.0,0.0,0.0,0.0,0.0,0.0,0.0,0.0,0.0,0.0,0.0,0.0,0.0,0.0,0.0,0.0,0.0,0.0,0.0,0.0,0.0,0.0,0.0,0.0,0.0,0.0,0.0,0.0,0.0,0.0,0.0,0.0,0.0,0.0,0.0,0.0,0.0,0.0,0.0,0.0,0.0,0.0,0.0,0.0,0.0,0.0,0.0,0.0,0.0,0.0,0.0,0.0,0.0,0.0,0.0,0.0,0.0,0.0,0.0,0.0,0.0,0.0,0.0,0.0,0.0,0.0,0.0,0.0,0.0,0.0,0.0,0.0,0.0,0.0,0.0,0.0,0.0,0.0,0.0,0.0,0.0,0.0,0.0,0.0,-0.178,-0.2493,-0.3287,-0.4085,-0.4177,-0.4543,0.0,0.0,0.0,0.0,0.0,0.0,0.0,0.0,0.0,0.0,0.0,0.0,0.0,0.0,0.0,0.0,0.0,0.0,0.0,0.0,0.0,0.0,0.0,0.0,0.0,0.0,0.0,0.0,0.0,0.0,0.0,0.0,0.0,0.0,0.0,0.0,0.0,0.0,0.0,0.0,0.0,0.0,0.0,0.0,0.0,0.0,0.0,0.0,0.0,0.0,0.0,0.0,0.0,0.0,0.0,0.0,0.0,0.0,0.0,0.0,0.0,0.0,0.0,0.0,0.0,0.0,0.0,0.0,0.0,0.0,0.0,0.0,0.0,0.0,0.0,0.0,0.0,0.0,0.0,0.0,0.0,0.0,0.0,0.0,0.0,0.0,0.0,0.0,0.0,0.0,0.0,0.0,0.0,0.0,0.0,0.0,0.0,0.0,0.0,0.0,0.0,0.0,0.0,0.0,0.0,0.0,0.0,0.0,0.0,-0.2501,-0.3304,-0.3938,-0.438,-0.4411,-0.4684,0.0,0.0,0.0,0.0,0.0,0.0,0.0,0.0,0.0,0.0,0.0,0.0,0.0,0.0,0.0,0.0,0.0,0.0,0.0,0.0,0.0,0.0,0.0,0.0,0.0,0.0,0.0,0.0,0.0,0.0,0.0,0.0,0.0,0.0,0.0,0.0,0.0,0.0,0.0,0.0,0.0,0.0,0.0,0.0,0.0,0.0,0.0,0.0,0.0,0.0,0.0,0.0,0.0,0.0,0.0,0.0,0.0,0.0,0.0,0.0,0.0,0.0,0.0,0.0,0.0,0.0,0.0,0.0,0.0,0.0,0.0,0.0,0.0,0.0,0.0,0.0,0.0,0.0,0.0,0.0,0.0,0.0,0.0,0.0,0.0,0.0,0.0,0.0,0.0,0.0,0.0,0.0,0.0,0.0,0.0,0.0,0.0,0.0,0.0,0.0,0.0,0.0,0.0,0.0,0.0,0.0,0.0,0.0,0.0,-0.3321,0.0,-0.4397,-0.4566,-0.4563,-0.479,0.0,0.0,0.0,0.0,0.0,0.0,0.0,0.0,0.0,0.0,0.0,0.0,0.0,0.0,0.0,0.0,0.0,0.0,0.0,0.0,0.0,0.0,0.0,0.0,0.0,0.0,0.0,0.0,0.0,0.0,0.0,0.0,0.0,0.0,0.0,0.0,0.0,0.0,0.0,0.0,0.0,0.0,0.0,0.0,0.0,0.0,0.0,0.0,0.0,0.0,0.0,0.0,0.0,0.0,0.0,0.0,0.0,0.0,0.0,0.0,0.0,0.0,0.0,0.0,0.0,0.0,0.0,0.0,0.0,0.0,0.0,0.0,0.0,0.0,0.0,0.0,0.0,0.0,0.0,0.0,0.0,0.0,0.0,0.0,0.0,0.0,0.0,0.0,0.0,0.0,0.0,0.0,0.0,0.0,0.0,0.0,0.0,0.0,0.0,0.0,0.0,0.0,0.0,0.0,0.0,0.0,0.0,0.0,-0.319,-0.4135,-0.4403,-0.4581,-0.4694,-0.4694,-0.4905,0.0,0.0,0.0,0.0,0.0,0.0,0.0,0.0,0.0,0.0,0.0,0.0,0.0,0.0,0.0,0.0,0.0,0.0,0.0,0.0,0.0,0.0,0.0,0.0,0.0,0.0,0.0,0.0,0.0,0.0,0.0,0.0,0.0,0.0,0.0,0.0,0.0,0.0,0.0,0.0,0.0,0.0,0.0,0.0,0.0,0.0,0.0,0.0,0.0,0.0,0.0,0.0,0.0,0.0,0.0,0.0,0.0,0.0,0.0,0.0,0.0,0.0,0.0,0.0,0.0,0.0,0.0,0.0,0.0,0.0,0.0,0.0,0.0,0.0,0.0,0.0,0.0,0.0,0.0,0.0,0.0,0.0,0.0,0.0,0.0,0.0,0.0,0.0,0.0,0.0,0.0,0.0,0.0,0.0,0.0,0.0,0.0,0.0,0.0,0.0,0.0,0.0,0.0,0.0,0.0,0.0,0.0,0.0,0.0,-0.4546,-0.4789,-0.4931,-0.4989,-0.4897,-0.5041,0.0,0.0,0.0,0.0,0.0,0.0,0.0,0.0,0.0,0.0,0.0,0.0,0.0,0.0,0.0,0.0,0.0,0.0,0.0,0.0,0.0,0.0,0.0,0.0,0.0,0.0,0.0,0.0,0.0,0.0,0.0,0.0,0.0,0.0,0.0,0.0,0.0,0.0,0.0,0.0,0.0,0.0,0.0,0.0,0.0,0.0,0.0,0.0,0.0,0.0,0.0,0.0,0.0,0.0,0.0,0.0,0.0,0.0,0.0,0.0,0.0,0.0,0.0,0.0,0.0,0.0,0.0,0.0,0.0,0.0,0.0,0.0,0.0,0.0,0.0,0.0,0.0,0.0,0.0,0.0,0.0,0.0,0.0,0.0,0.0,0.0,0.0,0.0,0.0,0.0,0.0,0.0,0.0,0.0,0.0,0.0,0.0,0.0,0.0,0.0,0.0,0.0,0.0,0.0,0.0,0.0,0.0,0.0,0.0,-0.5309,-0.5379,-0.543,-0.543,-0.5325,-0.5381,-0.5667,0.0,0.0,0.0,0.0,0.0,0.0,0.0,0.0,0.0,0.0,0.0,0.0,0.0,0.0,0.0,0.0,0.0,0.0,0.0,0.0,0.0,0.0,0.0,0.0,0.0,0.0,0.0,0.0,0.0,0.0,0.0,0.0,0.0,0.0,0.0,0.0,0.0,0.0,0.0,0.0,0.0,0.0,0.0,0.0,0.0,0.0,0.0,0.0,0.0,0.0,0.0,0.0,0.0,0.0,0.0,0.0,0.0,0.0,0.0,0.0,0.0,0.0,0.0,0.0,0.0,0.0,0.0,0.0,0.0,0.0,0.0,0.0,0.0,0.0,0.0,0.0,0.0,0.0,0.0,0.0,0.0,0.0,0.0,0.0,0.0,0.0,0.0,0.0,0.0,0.0,0.0,0.0,0.0,0.0,0.0,0.0,0.0,0.0,0.0,0.0,0.0,0.0,0.0,0.0,0.0,0.0,0.0,0.0,-0.634,-0.619,-0.6084,-0.6054,-0.5915,-0.5861,0.0,0.0,0.0,0.0,0.0,0.0,0.0,0.0,0.0,0.0,0.0,0.0,0.0,0.0,0.0,0.0,0.0,0.0,0.0,0.0,0.0,0.0,0.0,0.0,0.0,0.0,0.0,0.0,0.0,0.0,0.0,0.0,0.0,0.0,0.0,0.0,0.0,0.0,0.0,0.0,0.0,0.0,0.0,0.0,0.0,0.0,0.0,0.0,0.0,0.0,0.0,0.0,0.0,0.0,0.0,0.0,0.0,0.0,0.0,0.0,0.0,0.0,0.0,0.0,0.0,0.0,0.0,0.0,0.0,0.0,0.0,0.0,0.0,0.0,0.0,0.0,0.0,0.0,0.0,0.0,0.0,0.0,0.0,0.0,0.0,0.0,0.0,0.0,0.0,0.0,0.0,0.0,0.0,0.0,0.0,0.0,0.0,0.0,0.0,0.0,0.0,0.0,0.0,0.0,0.0,0.0,0.0,0.0,0.0,-0.6839,-0.7193,-0.7187,-0.6812,-0.6505,-0.6306,0.0,0.0,0.0,0.0,0.0,0.0,0.0,0.0,0.0,0.0,0.0,0.0,0.0,0.0,0.0,0.0,0.0,0.0,0.0,0.0,0.0,0.0,0.0,0.0,0.0,0.0,0.0,0.0,0.0,0.0,0.0,0.0,0.0,0.0,0.0,0.0,0.0,0.0,0.0,0.0,0.0,0.0,0.0,0.0,0.0,0.0,0.0,0.0,0.0,0.0,0.0,0.0,0.0,0.0,0.0,0.0,0.0,0.0,0.0,0.0,0.0,0.0,0.0,0.0,0.0,0.0,0.0,0.0,0.0,0.0,0.0,0.0,0.0,0.0,0.0,0.0,0.0,0.0,0.0,0.0,0.0,0.0,0.0,0.0,0.0,0.0,0.0,0.0,0.0,0.0,0.0,0.0,0.0,0.0,0.0,0.0,0.0,0.0,0.0,0.0,0.0,0.0,0.0,0.0,0.0,0.0,0.0,0.0,-0.6458,-0.7224,-0.7797,-0.7967,-0.7712,-0.718,-0.6837,0.0,0.0,0.0,0.0,0.0,0.0,0.0,0.0,0.0,0.0,0.0,0.0,0.0,0.0,0.0,0.0,0.0,0.0,0.0,0.0,0.0,0.0,0.0,0.0,0.0,0.0,0.0,0.0,0.0,0.0,0.0,0.0,0.0,0.0,0.0,0.0,0.0,0.0,0.0,0.0,0.0,0.0,0.0,0.0,0.0,0.0,0.0,0.0,0.0,0.0,0.0,0.0,0.0,0.0,0.0,0.0,0.0,0.0,0.0,0.0,0.0,0.0,0.0,0.0,0.0,0.0,0.0,0.0,0.0,0.0,0.0,0.0,0.0,0.0,0.0,0.0,0.0,0.0,0.0,0.0,0.0,0.0,0.0,0.0,0.0,0.0,0.0,0.0,0.0,0.0,0.0,0.0,0.0,0.0,0.0,0.0,0.0,0.0,0.0,0.0,0.0,0.0,0.0,0.0,0.0,0.0,0.0,0.0,-0.6828,-0.7431,-0.8159,-0.8465,-0.8459,-0.7914,-0.7382,0.0,0.0,0.0,0.0,0.0,0.0,0.0,0.0,0.0,0.0,0.0,0.0,0.0,0.0,0.0,0.0,0.0,0.0,0.0,0.0,0.0,0.0,0.0,0.0,0.0,0.0,0.0,0.0,0.0,0.0,0.0,0.0,0.0,0.0,0.0,0.0,0.0,0.0,0.0,0.0,0.0,0.0,0.0,0.0,0.0,0.0,0.0,0.0,0.0,0.0,0.0,0.0,0.0,0.0,0.0,0.0,0.0,0.0,0.0,0.0,0.0,0.0,0.0,0.0,0.0,0.0,0.0,0.0,0.0,0.0,0.0,0.0,0.0,0.0,0.0,0.0,0.0,0.0,0.0,0.0,0.0,0.0,0.0,0.0,0.0,0.0,0.0,0.0,0.0,0.0,0.0,0.0,0.0,0.0,0.0,0.0,0.0,0.0,0.0,0.0,0.0,0.0,0.0,0.0,0.0,0.0,0.0,0.0,-0.6936,-0.7872,-0.817,-0.837,-0.8476,-0.8203,-0.7807,0.0,0.0,0.0,0.0,0.0,0.0,0.0,0.0,0.0,0.0,0.0,0.0,0.0,0.0,0.0,0.0,0.0,0.0,0.0,0.0,0.0,0.0,0.0,0.0,0.0,0.0,0.0,0.0,0.0,0.0,0.0,0.0,0.0,0.0,0.0,0.0,0.0,0.0,0.0,0.0,0.0,0.0,0.0,0.0,0.0,0.0,0.0,0.0,-0.57,0.0,0.0,0.0,0.0,0.0,0.0,0.0,0.0,0.0,0.0,0.0,0.0,0.0,0.0,0.0,0.0,0.0,0.0,0.0,0.0,0.0,0.0,0.0,0.0,0.0,0.0,0.0,0.0,0.0,0.0,0.0,0.0,0.0,0.0,0.0,0.0,0.0,0.0,0.0,0.0,0.0,0.0,0.0,0.0,0.0,0.0,0.0,0.0,0.0,0.0,0.0,0.0,0.0,0.0,0.0,0.0,0.0,0.0,0.0,-0.7092,-0.7853,-0.8153,-0.8309,-0.8408,-0.82,-0.7961,0.0,0.0,0.0,0.0,0.0,0.0,0.0,0.0,0.0,0.0,0.0,0.0,0.0,0.0,0.0,0.0,0.0,0.0,0.0,0.0,0.0,0.0,0.0,0.0,0.0,0.0,0.0,0.0,0.0,0.0,0.0,0.0,0.0,0.0,0.0,0.0,0.0,0.0,0.0,0.0,0.0,0.0,0.0,0.0,0.0,0.0,0.0,0.0,0.0,0.0,0.0,0.0,0.0,0.0,0.0,0.0,0.0,0.0,0.0,0.0,0.0,0.0,0.0,0.0,0.0,0.0,0.0,0.0,0.0,0.0,0.0,0.0,0.0,0.0,0.0,0.0,0.0,0.0,0.0,0.0,0.0,0.0,0.0,0.0,0.0,0.0,0.0,0.0,0.0,0.0,0.0,0.0,0.0,0.0,0.0,0.0,0.0,0.0,0.0,0.0,0.0,0.0,0.0,0.0,0.0,0.0,0.0,-0.6569,-0.7238,-0.7858,-0.8113,-0.8286,-0.8228,-0.8102,-0.7948,-0.7878,0.0,0.0,0.0,0.0,0.0,0.0,0.0,0.0,0.0,0.0,0.0,0.0,0.0,0.0,0.0,0.0,0.0,0.0,0.0,0.0,0.0,0.0,0.0,0.0,0.0,0.0,0.0,0.0,0.0,0.0,0.0,0.0,0.0,0.0,0.0,0.0,0.0,0.0,-0.3965,-0.4157,0.0,0.0,0.0,0.0,0.0,0.0,0.0,0.0,-0.664,0.0,0.0,0.0,0.0,0.0,0.0,0.0,0.0,0.0,0.0,0.0,0.0,0.0,0.0,0.0,0.0,0.0,0.0,0.0,0.0,0.0,0.0,0.0,0.0,0.0,0.0,0.0,0.0,0.0,0.0,0.0,0.0,0.0,0.0,0.0,0.0,0.0,0.0,0.0,0.0,0.0,0.0,0.0,0.0,0.0,0.0,0.0,0.0,0.0,0.0,0.0,0.0,0.0,0.0,0.0,0.0,-0.6214,-0.6678,-0.7339,-0.8167,-0.8116,-0.8025,-0.8065,-0.7994,-0.7895,-0.7738,0.0,0.0,0.0,0.0,0.0,0.0,0.0,0.0,0.0,0.0,0.0,0.0,0.0,0.0,0.0,0.0,0.0,0.0,0.0,0.0,0.0,0.0,0.0,0.0,0.0,0.0,0.0,0.0,0.0,0.0,0.0,0.0,0.0,0.0,0.0,0.0,0.0,0.0,0.0,-0.4677,-0.4793,0.0,0.0,0.0,0.0,0.0,0.0,0.0,0.0,-0.6981,0.0,0.0,0.0,0.0,0.0,0.0,0.0,0.0,0.0,0.0,0.0,0.0,0.0,0.0,0.0,0.0,0.0,0.0,0.0,0.0,0.0,0.0,0.0,0.0,0.0,0.0,0.0,0.0,0.0,0.0,0.0,0.0,0.0,0.0,0.0,0.0,0.0,0.0,0.0,0.0,0.0,0.0,0.0,0.0,0.0,0.0,0.0,0.0,0.0,0.0,0.0,0.0,0.0,0.0,0.0,-0.6132,-0.6732,-0.7314,-0.8004,-0.8038,-0.7951,-0.7913,-0.7689,-0.762,0.0,0.0,0.0,0.0,0.0,0.0,0.0,0.0,0.0,0.0,0.0,0.0,0.0,0.0,0.0,0.0,0.0,0.0,0.0,0.0,0.0,0.0,0.0,0.0,0.0,0.0,0.0,0.0,0.0,0.0,0.0,0.0,0.0,0.0,0.0,0.0,0.0,0.0,0.0,0.0,-0.4904,-0.4995,-0.4999,0.0,0.0,0.0,0.0,0.0,0.0,-0.7253,-0.7864,0.0,0.0,0.0,0.0,0.0,0.0,0.0,0.0,0.0,0.0,0.0,0.0,0.0,0.0,0.0,0.0,0.0,0.0,0.0,0.0,0.0,0.0,0.0,0.0,0.0,0.0,0.0,0.0,0.0,0.0,0.0,0.0,0.0,0.0,0.0,0.0,0.0,0.0,0.0,0.0,0.0,0.0,0.0,0.0,0.0,0.0,0.0,0.0,0.0,0.0,0.0,0.0,0.0,0.0,0.0,-0.5996,-0.666,-0.724,-0.775,-0.7885,-0.7862,-0.7675,-0.7422,-0.733,0.0,0.0,0.0,0.0,0.0,0.0,0.0,0.0,0.0,0.0,0.0,0.0,0.0,0.0,0.0,0.0,0.0,0.0,0.0,0.0,0.0,0.0,0.0,0.0,0.0,0.0,0.0,0.0,0.0,0.0,0.0,0.0,0.0,0.0,0.0,0.0,0.0,0.0,0.0,0.0,0.0,-0.5224,-0.5197,-0.5218,0.0,0.0,0.0,0.0,-0.7512,-0.837,0.0,0.0,0.0,0.0,0.0,0.0,0.0,0.0,0.0,0.0,0.0,0.0,0.0,0.0,0.0,0.0,0.0,0.0,0.0,0.0,0.0,0.0,0.0,0.0,0.0,0.0,0.0,0.0,0.0,0.0,0.0,0.0,0.0,0.0,0.0,0.0,0.0,0.0,0.0,0.0,0.0,0.0,0.0,0.0,0.0,0.0,0.0,0.0,0.0,0.0,0.0,0.0,0.0,0.0,0.0,0.0,-0.5986,-0.6505,-0.7034,-0.759,-0.7645,-0.7466,-0.7179,-0.7406,-0.7328,0.0,0.0,0.0,0.0,0.0,0.0,0.0,0.0,0.0,0.0,0.0,0.0,0.0,0.0,0.0,0.0,0.0,0.0,0.0,0.0,0.0,0.0,0.0,0.0,0.0,0.0,0.0,0.0,0.0,0.0,0.0,0.0,0.0,0.0,0.0,0.0,0.0,0.0,0.0,0.0,0.0,-0.5677,-0.5555,-0.5644,-0.5762,0.0,0.0,0.0,-0.857,-0.9556,0.0,0.0,0.0,0.0,0.0,0.0,0.0,0.0,0.0,0.0,0.0,0.0,0.0,0.0,0.0,0.0,0.0,0.0,0.0,0.0,0.0,0.0,0.0,0.0,0.0,0.0,0.0,0.0,0.0,0.0,0.0,0.0,0.0,0.0,0.0,0.0,0.0,0.0,0.0,0.0,0.0,0.0,0.0,0.0,0.0,0.0,0.0,0.0,0.0,0.0,0.0,0.0,0.0,0.0,0.0,-0.5312,-0.5783,-0.639,-0.6909,-0.7322,-0.7424,-0.7326,-0.6984,-0.6884,-0.6712,0.0,0.0,0.0,0.0,0.0,0.0,0.0,0.0,0.0,0.0,0.0,0.0,0.0,0.0,0.0,0.0,0.0,0.0,0.0,0.0,0.0,0.0,0.0,0.0,0.0,0.0,0.0,0.0,0.0,0.0,0.0,0.0,0.0,0.0,0.0,0.0,0.0,0.0,0.0,0.0,0.0,0.0,-0.5623,-0.5897,0.0,0.0,0.0,-0.8459,-0.8863,0.0,0.0,0.0,0.0,0.0,0.0,0.0,0.0,0.0,0.0,0.0,0.0,0.0,0.0,0.0,0.0,0.0,0.0,0.0,0.0,0.0,0.0,0.0,0.0,0.0,0.0,0.0,0.0,0.0,0.0,0.0,0.0,0.0,0.0,0.0,0.0,0.0,0.0,0.0,0.0,0.0,0.0,0.0,0.0,0.0,0.0,0.0,0.0,0.0,0.0,0.0,0.0,0.0,0.0,0.0,0.0,0.0,-0.5589,-0.6213,-0.6695,-0.7021,-0.7143,-0.7044,-0.6709,-0.6377,0.0,0.0,0.0,0.0,0.0,0.0,0.0,0.0,0.0,0.0,0.0,0.0,0.0,0.0,0.0,0.0,0.0,0.0,0.0,0.0,0.0,0.0,0.0,0.0,0.0,0.0,0.0,-0.4491,0.0,0.0,0.0,0.0,0.0,0.0,0.0,0.0,0.0,0.0,0.0,0.0,0.0,0.0,-0.5949,-0.5732,-0.602,-0.6384,0.0,0.0,-0.8858,-0.901,-1.0154,-1.0795,0.0,0.0,0.0,0.0,0.0,0.0,0.0,0.0,0.0,0.0,0.0,0.0,0.0,0.0,0.0,0.0,0.0,0.0,0.0,0.0,0.0,0.0,0.0,0.0,0.0,0.0,0.0,0.0,0.0,0.0,0.0,0.0,0.0,0.0,0.0,0.0,0.0,0.0,0.0,0.0,0.0,0.0,0.0,0.0,0.0,0.0,0.0,0.0,0.0,0.0,0.0,0.0,0.0,0.0,0.0,-0.5583,-0.5872,-0.6288,-0.6709,-0.6739,-0.6536,-0.6067,-0.6101,-0.5888,0.0,0.0,0.0,0.0,0.0,0.0,0.0,0.0,0.0,0.0,0.0,0.0,0.0,0.0,0.0,0.0,0.0,0.0,0.0,0.0,0.0,0.0,0.0,0.0,0.0,0.0,0.0,0.0,0.0,0.0,0.0,0.0,0.0,0.0,0.0,0.0,0.0,0.0,0.0,0.0,0.0,-0.5983,-0.5966,-0.6149,-0.6454,0.0,0.0,-0.8364,-0.9259,-1.0398,-1.0955,-1.02,0.0,0.0,0.0,0.0,0.0,0.0,0.0,0.0,0.0,0.0,0.0,0.0,0.0,0.0,0.0,0.0,0.0,0.0,0.0,0.0,0.0,0.0,0.0,0.0,0.0,0.0,0.0,0.0,0.0,0.0,0.0,0.0,0.0,0.0,0.0,0.0,0.0,0.0,0.0,0.0,0.0,0.0,0.0,0.0,0.0,0.0,0.0,0.0,0.0,0.0,0.0,0.0,0.0,-0.4955,-0.5275,-0.5656,-0.602,-0.6236,-0.638,-0.6213,-0.5769,-0.5586,-0.536,0.0,0.0,0.0,0.0,0.0,0.0,0.0,0.0,0.0,0.0,0.0,0.0,0.0,0.0,0.0,0.0,0.0,0.0,0.0,0.0,0.0,0.0,0.0,0.0,0.0,0.0,0.0,0.0,-0.4491,-0.4491,-0.4491,0.0,0.0,0.0,0.0,0.0,0.0,0.0,0.0,0.0,0.0,-0.5959,-0.5905,-0.6176,0.0,0.0,-0.7536,-0.8342,-0.8981,-0.9827,-1.0282,-1.0035,-0.9847,0.0,0.0,0.0,0.0,0.0,0.0,0.0,0.0,0.0,0.0,0.0,0.0,0.0,0.0,0.0,0.0,0.0,0.0,0.0,0.0,0.0,0.0,0.0,0.0,0.0,0.0,0.0,0.0,0.0,0.0,0.0,0.0,0.0,0.0,0.0,0.0,0.0,0.0,0.0,0.0,0.0,0.0,0.0,0.0,0.0,0.0,0.0,0.0,0.0,0.0,0.0,0.0,-0.4836,-0.5096,-0.5488,-0.5766,-0.5922,-0.6067,-0.5969,-0.5532,-0.5267,-0.5023,0.0,0.0,0.0,0.0,0.0,0.0,0.0,0.0,0.0,0.0,0.0,0.0,0.0,0.0,0.0,0.0,0.0,0.0,0.0,0.0,0.0,0.0,0.0,0.0,0.0,0.0,0.0,0.0,-0.4491,-0.4491,-0.4491,0.0,0.0,0.0,0.0,0.0,0.0,0.0,0.0,0.0,0.0,-0.5855,-0.5874,-0.6101,-0.6342,-0.6563,-0.7184,-0.7867,-0.859,-0.9162,-0.9549,-0.9677,0.0,0.0,0.0,0.0,0.0,0.0,0.0,0.0,0.0,0.0,0.0,0.0,0.0,0.0,0.0,0.0,0.0,0.0,0.0,0.0,0.0,0.0,0.0,0.0,0.0,0.0,0.0,0.0,0.0,0.0,0.0,0.0,0.0,0.0,0.0,0.0,0.0,0.0,0.0,0.0,0.0,0.0,0.0,0.0,0.0,0.0,0.0,0.0,0.0,0.0,0.0,0.0,0.0,0.0,-0.5093,-0.5291,-0.5545,-0.5789,-0.581,-0.5706,-0.5409,-0.5209,-0.4958,-0.4697,0.0,0.0,0.0,0.0,0.0,0.0,0.0,0.0,0.0,0.0,0.0,0.0,0.0,0.0,0.0,0.0,0.0,0.0,0.0,0.0,0.0,0.0,0.0,0.0,0.0,0.0,-0.4491,-0.4491,-0.4491,0.0,0.0,0.0,0.0,0.0,0.0,0.0,0.0,0.0,0.0,-0.5627,-0.5701,-0.5973,-0.5908,-0.6005,-0.643,-0.6411,-0.6781,-0.804,-0.8413,-0.8668,0.0,0.0,0.0,0.0,0.0,0.0,0.0,0.0,0.0,0.0,0.0,0.0,0.0,0.0,0.0,0.0,0.0,0.0,0.0,0.0,0.0,0.0,0.0,0.0,0.0,0.0,0.0,0.0,0.0,0.0,0.0,0.0,0.0,0.0,0.0,0.0,0.0,0.0,0.0,0.0,-0.1165,-0.1521,0.0,0.0,0.0,0.0,0.0,0.0,0.0,0.0,0.0,0.0,0.0,0.0,-0.4687,-0.4948,-0.5131,-0.5304,-0.5539,-0.561,-0.5518,-0.5216,-0.5032,-0.485,-0.4576,0.0,0.0,0.0,0.0,0.0,0.0,0.0,0.0,0.0,0.0,0.0,0.0,0.0,0.0,0.0,0.0,0.0,0.0,0.0,0.0,0.0,0.0,0.0,0.0,0.0,-0.4491,0.0,0.0,0.0,0.0,0.0,0.0,0.0,0.0,0.0,0.0,0.0,-0.5264,-0.545,-0.5525,-0.5627,-0.5722,-0.5776,-0.5837,0.0,0.0,0.0,0.0,0.0,0.0,0.0,0.0,0.0,0.0,0.0,0.0,0.0,0.0,-0.9272,-0.8878,-0.8778,-0.8778,-0.8778,0.0,0.0,0.0,0.0,0.0,0.0,0.0,0.0,0.0,0.0,0.0,0.0,0.0,0.0,0.0,0.0,0.0,0.0,0.0,0.0,0.0,0.0,0.0,0.0,0.0,-0.0358,-0.0492,-0.0595,-0.0868,-0.1095,0.0,-0.2417,-0.3218,0.0,0.0,0.0,0.0,0.0,0.0,0.0,0.0,-0.4696,-0.4881,-0.5026,-0.5206,-0.5392,-0.5494,-0.5446,-0.5213,-0.4988,-0.4775,-0.4525,-0.4491,-0.4491,0.0,0.0,0.0,0.0,0.0,0.0,0.0,0.0,0.0,0.0,0.0,0.0,0.0,0.0,0.0,0.0,0.0,0.0,0.0,0.0,0.0,0.0,0.0,-0.4491,0.0,0.0,0.0,0.0,0.0,0.0,0.0,0.0,0.0,-0.5079,-0.51,-0.5194,-0.5518,-0.5498,-0.5467,-0.5576,0.0,0.0,0.0,0.0,0.0,0.0,0.0,-0.8422,-0.9149,-0.9642,-0.9945,-1.0083,-1.012,-1.006,-0.9866,0.0,0.0,-0.9178,-0.9118,-0.9078,-0.8951,-0.8931,-0.8898,-0.8798,-0.8931,-0.9004,0.0,0.0,0.0,0.0,0.0,0.0,0.0,0.0,0.0,0.0,0.0,0.0,0.0,0.0,0.0,0.0,0.0,0.0,0.0,0.0,0.0,0.0,0.0,-0.0283,-0.0503,-0.074,-0.2001,-0.2768,-0.306,-0.3983,0.0,0.0,0.0,0.0,0.0,0.0,-0.4769,-0.4894,-0.5032,-0.5203,-0.5378,-0.5388,-0.5378,-0.5358,-0.5057,-0.4769,-0.4508,-0.4491,-0.4491,-0.4491,-0.4491,0.0,0.0,0.0,0.0,0.0,0.0,0.0,0.0,0.0,0.0,0.0,0.0,0.0,0.0,0.0,0.0,0.0,0.0,0.0,0.0,-0.4491,0.0,0.0,0.0,0.0,0.0,0.0,0.0,0.0,0.0,0.0,-0.5093,-0.5103,-0.5261,-0.5722,0.0,0.0,0.0,0.0,-0.5228,-0.5536,-0.5756,-0.6094,-0.6576,-0.7489,-0.8339,-0.892,0.0,0.0,-1.0103,-1.0103,-1.0103,-1.0114,-0.9873,-0.9715,-0.9702,-0.9682,-0.9566,-0.9257,-0.9163,-0.9084,-0.8851,-0.8844,-0.8851,0.4928,0.0,0.0,0.0,0.0,0.1281,0.0748,0.0,0.0,0.0,0.0,0.0,0.0,0.0,0.0,0.0,0.0,0.0,0.0,0.0,0.0,0.0,0.0,-0.0099,-0.0167,-0.0239,-0.1107,-0.1588,-0.1743,-0.3138,-0.4109,-0.4626,0.0,0.0,0.0,0.0,-0.4816,-0.5026,-0.5079,-0.512,-0.5196,-0.5164,-0.5098,-0.4891,-0.4799,-0.4663,-0.4498,-0.4491,-0.4491,-0.4491,-0.4491,0.0,0.0,0.0,0.0,0.0,0.0,0.0,0.0,0.0,0.0,0.0,0.0,0.0,0.0,0.0,0.0,0.0,0.0,0.0,-0.4491,-0.4491,-0.4491,0.0,0.0,0.0,0.0,0.0,0.0,0.0,0.0,0.0,-0.526,-0.5196,-0.5216,0.0,0.0,-0.5361,-0.5446,-0.5385,-0.5344,-0.5418,0.0,0.0,0.0,-0.6769,-0.7517,-0.8613,-0.984,-1.0643,-1.0468,-1.0459,-1.0361,-1.0123,-0.988,-0.9715,-0.9715,-0.9715,-0.9579,-0.9284,-0.9176,-0.9118,-0.8891,-0.8965,-0.9024,0.6303,0.5396,0.4475,0.3497,0.2656,0.247,0.1724,0.0617,0.0638,0.0388,0.0,0.0,0.0,0.0,0.0,0.0,0.0,0.0,0.0,0.0,0.0,0.0,0.0,0.0,0.0,0.0,-0.0804,-0.1178,-0.121,-0.2443,-0.3314,-0.3829,0.0,0.0,-0.4782,-0.4836,-0.4952,-0.5093,-0.516,-0.516,-0.51,-0.5046,-0.4931,-0.4704,-0.4694,-0.4616,-0.4498,-0.4491,-0.4491,-0.4491,-0.4491,-0.4491,0.0,0.0,0.0,0.0,0.0,0.0,0.0,0.0,0.0,0.0,0.0,-0.438,0.0,0.0,0.0,0.0,-0.4491,-0.4491,-0.4491,-0.4491,0.0,0.0,0.0,0.0,0.0,0.0,0.0,-0.4877,-0.4938,-0.5091,-0.5358,-0.5226,-0.5213,-0.5423,-0.533,-0.5206,-0.5296,0.0,-0.5138,-0.525,-0.5284,-0.5456,-0.5773,-0.6461,-0.7453,-0.8858,-0.9939,-1.0534,-1.0305,-1.0244,-1.0177,-0.9973,-0.98,-0.9715,-0.9715,-0.9715,-0.9586,-0.9271,-0.9176,-0.9111,-0.8831,-0.8918,-0.8984,0.7441,0.6997,0.5472,0.4491,0.3991,0.3793,0.2957,0.1757,0.1709,0.1105,0.0145,0.0103,0.0067,0.0,0.0,0.0,0.0,0.0,0.0,0.0,0.0,0.0,0.0,0.0,0.0,0.0,-0.0813,-0.1204,-0.1205,-0.1824,-0.2221,-0.2449,-0.3952,-0.4761,-0.4819,-0.5001,-0.51,-0.5103,-0.53,-0.526,-0.5066,-0.4955,-0.4786,-0.459,-0.4612,-0.4488,-0.4328,-0.4294,-0.4322,-0.4322,-0.4322,-0.4322,-0.4322,0.0,0.0,0.0,0.0,0.0,0.0,0.0,0.0,0.0,0.0,0.0,0.0,0.0,0.0,0.0,-0.4463,0.0,-0.4491,-0.4491,0.0,0.0,0.0,-0.4644,-0.4505,-0.4721,-0.4877,-0.4887,0.0,0.0,0.0,0.0,-0.5197,-0.5501,-0.5179,-0.4935,-0.5063,-0.4864,-0.4809,-0.5046,-0.4978,-0.5034,-0.5377,-0.6415,-0.7757,-0.917,-0.987,-1.0,-0.9773,-0.9702,-0.9659,-0.9653,-0.9662,-0.9599,-0.9641,-0.9608,-0.9532,-0.9211,-0.9191,-0.9124,-0.8884,-0.8824,-0.8798,0.7655,0.7422,0.6943,0.598,0.4814,0.4651,0.397,0.2992,0.2832,0.2171,0.1232,0.1238,0.0755,0.0,0.0,0.0,0.0,0.0,0.0,0.0,0.0,0.0,0.0,0.0,0.0,0.0,-0.0196,-0.033,-0.0369,-0.1143,-0.1528,-0.1624,-0.2699,-0.3503,-0.4066,-0.4763,-0.51,-0.51,-0.5165,-0.5057,-0.4802,-0.465,-0.4326,-0.3722,-0.3725,-0.3401,-0.279,-0.2732,-0.2758,-0.276,-0.276,-0.2732,-0.276,-0.3042,0.0,0.0,0.0,0.0,0.0,0.0,0.0,0.0,0.0,-0.3855,-0.3752,0.0,-0.3858,0.0,-0.4159,-0.4328,-0.4491,-0.4491,0.0,0.0,-0.4525,-0.4532,-0.4525,-0.4629,-0.4792,-0.4904,-0.5012,-0.511,-0.515,-0.512,-0.5083,-0.5084,-0.4958,-0.4901,-0.4931,-0.4887,-0.4854,-0.4918,-0.4904,-0.4931,-0.5139,-0.6289,-0.7599,-0.8539,-0.9311,-0.976,-0.9699,-0.9492,-0.9317,-0.9297,-0.9124,-0.9038,-0.9031,-0.9018,-0.9005,-0.8945,-0.9058,-0.9124,-0.8871,-0.8778,-0.8778,0.7729,0.759,0.7434,0.6869,0.5971,0.5788,0.5067,0.4076,0.3893,0.3213,0.2173,0.1679,0.0935,0.0,0.0,0.0,0.0,0.0,0.0,0.0,0.0,0.0,0.0,0.0,0.0,0.0,0.0,0.0,0.0,-0.0488,-0.0719,-0.0739,-0.1641,-0.2278,-0.2731,-0.3558,-0.4197,-0.4614,-0.4187,-0.3884,-0.3722,-0.3572,-0.3314,-0.3012,-0.2984,-0.279,-0.2345,-0.2317,-0.2289,-0.2204,-0.2204,-0.2259,-0.2345,-0.2488,-0.2683,0.0,0.0,0.0,0.0,0.0,0.0,0.0,0.0,0.0,0.0,0.0,-0.3297,0.0,-0.3738,0.0,-0.446,-0.4491,-0.4491,-0.4491,-0.4491,-0.4491,-0.4491,-0.4627,-0.4724,-0.4809,-0.4945,-0.5005,-0.5005,-0.4979,-0.4908,-0.4826,-0.4758,-0.4741,-0.4796,-0.4762,-0.4738,-0.4806,-0.4762,-0.486,-0.5115,-0.5908,-0.6849,-0.7886,-0.849,-0.8923,-0.9236,-0.9158,-0.9018,-0.9011,-0.8918,-0.8778,-0.8778,-0.8778,-0.8778,-0.8824,-0.8931,-0.8944,-0.8811,-0.8778,-0.8778,0.7746,0.7587,0.7458,0.7288,0.7048,0.6817,0.6131,0.5117,0.4993,0.4243,0.3032,0.1963,0.0999,0.0168,0.0168,0.0101,0.0,0.0,0.0,0.0,0.0,0.0,0.0,0.0,0.0,0.0,0.0,0.0,0.0,0.0,0.0,0.0,-0.0765,-0.1182,-0.132,-0.2008,-0.2852,-0.377,-0.2911,-0.2448,-0.2447,-0.2322,-0.2259,-0.2345,-0.2373,-0.2317,-0.2204,-0.2206,-0.2122,-0.1925,-0.1924,-0.2009,-0.2178,-0.2069,-0.2183,0.0,-0.2541,0.0,0.0,0.0,0.0,0.0,0.0,0.0,0.0,-0.2486,-0.2706,-0.3067,-0.3262,-0.3624,-0.4267,-0.446,-0.4491,-0.4491,-0.4491,-0.4491,-0.4494,-0.4627,-0.4694,-0.4694,-0.4823,-0.4884,-0.4887,-0.4772,-0.4691,-0.4657,-0.4593,-0.4566,-0.4648,-0.4586,-0.4559,-0.4675,-0.4576,-0.4744,-0.5305,-0.5504,-0.6055,-0.7327,-0.7764,-0.7963,-0.8705,-0.8798,-0.8785,-0.8791,-0.8818,-0.8778,-0.8778,-0.8778,-0.8778,-0.8778,-0.8791,-0.8824,-0.8811,-0.8778,-0.8778,0.7838,0.76,0.757,0.7329,0.6913,0.6776,0.6602,0.6356,0.6213,0.5431,0.4121,0.3076,0.203,0.1074,0.104,0.0672,0.0,0.0,0.0,0.0,0.0,0.0,0.0,0.0,0.0,0.0,0.0,0.0,0.0,0.0,0.0,0.0,-0.0159,-0.0601,0.0,0.0,0.0,0.0,-0.2441,-0.2252,-0.2252,-0.238,-0.215,-0.1564,-0.1676,0.0,-0.07,-0.0644,-0.0588,-0.042,-0.042,0.0,0.0,0.0,0.0,0.0,0.0,0.0,0.0,0.0,0.0,0.0,-0.1233,-0.1345,-0.1513,-0.1708,-0.1873,-0.2068,-0.2736,-0.3267,-0.3511,-0.4125,-0.4491,-0.4491,-0.4491,-0.4491,-0.4494,-0.4624,-0.4694,-0.4694,-0.4823,-0.487,-0.4748,-0.4704,-0.4672,-0.4559,-0.4508,-0.4529,-0.4532,-0.4511,-0.4505,-0.4528,-0.4508,-0.4732,-0.5406,-0.5456,-0.5923,-0.7283,-0.7696,-0.7937,-0.856,-0.8725,-0.8752,-0.8725,-0.8778,-0.8752,-0.8778,-0.8778,-0.8752,-0.8778,-0.8778,-0.8778,-0.8778,-0.8778,-0.8778,0.7733,0.0,0.7438,0.7156,0.0,0.6805,0.6725,0.6576,0.647,0.5689,0.4485,0.3846,0.2955,0.2009,0.2009,0.1508,0.0672,0.0629,0.0389,0.0,0.0,0.0,0.0,0.0,0.0,0.0,0.0,0.0,0.0,0.0,0.0,0.0,0.0,-0.0216,-0.0647,-0.0236,-0.0431,-0.1261,-0.1184,-0.1118,-0.1118,-0.1202,-0.1119,-0.0783,0.0,0.0,0.0,0.0,0.0,0.0,0.0,0.0,0.0,0.0,0.0,-0.0673,-0.0897,-0.0954,-0.0869,-0.0785,-0.0701,-0.0561,-0.0477,-0.0561,-0.0841,-0.0812,-0.1008,-0.1426,-0.1873,-0.2289,-0.273,-0.3486,-0.3932,-0.3929,-0.4263,-0.4491,-0.4498,-0.4559,-0.4607,-0.461,-0.4675,-0.4689,-0.4617,-0.4579,-0.4576,-0.4505,-0.4491,-0.4491,-0.4491,-0.4491,-0.4491,-0.4491,-0.4491,-0.4598,-0.4924,-0.5003,-0.5355,-0.6335,-0.6627,-0.6902,-0.7584,-0.7723,-0.7723,-0.7723,-0.7723,-0.7803,-0.8182,-0.8262,-0.8262,-0.8289,-0.856,-0.8646,-0.8401,-0.8533,-0.8778,0.7621,0.7573,0.7253,0.7071,0.6846,0.6846,0.6698,0.639,0.0,0.0,0.0,0.4539,0.39,0.2947,0.2945,0.241,0.1573,0.1533,0.1052,0.0258,0.023,0.0162,0.0,0.0,0.0,0.0,0.0,0.0,0.0,0.0,0.0,0.0,0.0,0.0,0.0,0.0,0.0,0.0,0.0,0.0,0.0,-0.0028,-0.0084,-0.0196,-0.0224,-0.0224,-0.0224,-0.0224,-0.014,0.0,0.0,-0.0056,-0.0168,-0.0168,-0.028,-0.0561,-0.0589,-0.0505,-0.0336,-0.0336,-0.0252,0.0,0.0,-0.0084,-0.0308,-0.0112,-0.0252,-0.0866,-0.1034,-0.134,-0.1952,-0.2732,-0.3176,-0.3121,-0.368,-0.4098,-0.4267,-0.4294,-0.4301,-0.446,-0.4501,-0.4491,-0.4498,-0.4498,-0.4491,-0.4491,-0.4491,-0.4491,-0.4491,-0.4491,-0.4491,-0.4491,-0.4491,-0.4491,-0.4519,-0.4546,-0.4759,-0.546,-0.5565,-0.576,-0.6367,-0.6588,-0.6588,-0.6723,-0.6588,-0.6885,-0.7375,-0.7509,-0.7509,-0.7509,-0.7969,-0.8242,-0.7723,-0.7963,-0.8427,0.7709,0.7584,0.7411,0.7105,0.6732,0.6732,0.6491,0.6108,0.6248,0.6047,0.5617,0.5597,0.4914,0.3816,0.3816,0.3345,0.2541,0.2512,0.1998,0.0,0.1103,0.0715,0.0,0.0,0.0,0.0,0.0,0.0,0.0,0.0,0.0,0.0,0.0,0.0,0.0,0.0,0.0,0.0,0.0,0.0,0.0,-0.0112,-0.0196,-0.0196,-0.0308,-0.0308,-0.0224,-0.0196,-0.014,0.0,0.0,0.0,0.0,0.0,-0.0056,-0.0084,0.0,-0.0084,0.0,0.0,-0.0056,0.0,0.0,-0.0028,-0.0056,-0.0028,-0.0056,-0.0196,-0.07,-0.1118,-0.1285,-0.1925,-0.2371,-0.2371,-0.2454,-0.2788,-0.3456,-0.3514,-0.3705,-0.4294,-0.4491,-0.446,-0.4408,-0.446,-0.4491,-0.4491,-0.4491,-0.4491,-0.4491,-0.4491,-0.4491,-0.4491,-0.4491,-0.4491,-0.4491,-0.4491,-0.4763,-0.541,-0.546,-0.5624,-0.6285,-0.6426,-0.6426,-0.6561,-0.6453,-0.6561,-0.6718,-0.6745,-0.6745,-0.6772,-0.6966,-0.6966,-0.6799,-0.6939,-0.7375,0.7658,0.7573,0.7343,0.7085,0.681,0.6647,0.6366,0.6006,0.6105,0.5966,0.5708,0.5766,0.5424,0.4761,0.4755,0.4213,0.3301,0.3375,0.29,0.1993,0.1935,0.1766,0.1382,0.1262,0.0978,0.0632,0.0582,0.0401,0.0,0.0,0.0,0.0,0.0,0.0,0.0,0.0,0.0,0.0,0.0,0.0,0.0,-0.0056,-0.0112,-0.0084,-0.0168,-0.014,-0.0084,-0.0084,-0.0056,0.0,0.0,0.0,0.0,0.0,0.0,0.0,0.0,0.0,0.0,0.0,0.0,0.0,0.0,0.0,0.0,0.0,0.0,0.0,-0.0336,-0.0504,-0.0532,-0.1174,-0.1619,-0.1618,-0.1953,-0.2343,-0.2649,-0.273,-0.2843,-0.3231,-0.3622,-0.3846,-0.3846,-0.4208,-0.4491,-0.4491,-0.4491,-0.4491,-0.4491,-0.4491,-0.4491,-0.4491,-0.4491,-0.4491,-0.4491,-0.4491,-0.4653,-0.4921,-0.4948,-0.5085,-0.5414,-0.5469,-0.5469,-0.5473,-0.5473,-0.5632,-0.59,-0.6009,-0.6009,-0.6036,-0.6394,-0.6448,-0.6199,-0.6285,-0.6864,0.8013,0.798,0.7355,0.6997,0.6812,0.6552,0.6274,0.6006,0.6067,0.5898,0.563,0.5708,0.5641,0.5409,0.5395,0.493,0.4261,0.4273,0.3772,0.2889,0.2802,0.2708,0.2543,0.2303,0.1907,0.1463,0.1423,0.1117,0.0614,0.0544,0.0459,0.0,0.0296,0.0206,0.0,0.0,0.0,0.0,0.0,0.0,0.0,0.0,0.0,0.0,0.0,0.0,0.0,0.0,0.0,0.0,0.0,0.0084,0.0224,0.0084,0.014,0.042,0.0196,0.0,0.0,0.0,0.0,0.0,0.0,0.0,0.0,0.0,0.0,0.0,0.0,0.0,0.0,-0.0504,-0.0839,-0.0895,-0.134,-0.1703,-0.1924,-0.1953,-0.2037,-0.223,-0.2704,-0.3063,-0.3176,-0.3594,-0.3987,-0.4153,-0.4377,-0.4491,-0.4491,-0.4491,-0.4491,-0.4491,-0.4491,-0.4491,-0.4491,-0.4491,-0.4491,-0.4491,-0.4515,-0.457,-0.4598,-0.4543,-0.4515,-0.4598,-0.457,-0.4791,-0.5164,-0.5273,-0.5273,-0.53,-0.5655,-0.5878,-0.5437,-0.566,-0.6263,0.9334,0.9099,0.7751,0.6933,0.6705,0.6453,0.6196,0.602,0.6176,0.603,0.561,0.5606,0.5552,0.5409,0.5395,0.5312,0.5193,0.5253,0.4743,0.3914,0.3729,0.3314,0.2766,0.2414,0.2266,0.2346,0.237,0.2277,0.2146,0.2167,0.1815,0.1119,0.1118,0.0796,0.0,0.0,0.0,0.0,0.0,0.0,0.0,0.0,0.0,0.0,0.0,0.0,0.0,0.0,0.0,0.0,0.0,0.0336,0.0839,0.0392,0.0616,0.1786,0.0755,0.0,0.0,0.0,0.0,0.0,0.0,0.0,0.0,0.0,0.0,0.0,0.0,0.0,0.0,0.0,0.0,0.0,0.0,-0.0448,-0.1062,-0.1202,-0.1452,-0.212,-0.2202,-0.2313,-0.2313,-0.248,-0.2788,-0.3428,-0.3901,-0.4211,-0.4236,-0.4239,-0.4322,-0.4405,-0.446,-0.446,-0.4487,-0.4491,-0.4491,-0.4491,-0.4491,-0.4491,-0.4491,-0.4491,-0.4491,-0.4491,-0.4491,-0.457,-0.4598,-0.4598,-0.4625,-0.4728,-0.4807,-0.4725,-0.4625,-0.4738,-0.519,1.0588,1.0407,0.8816,0.7612,0.6736,0.6569,0.6332,0.6037,0.6,0.5837,0.5596,0.5528,0.5453,0.5395,0.5395,0.5347,0.5237,0.5351,0.5144,0.4667,0.4574,0.4351,0.4019,0.3767,0.3514,0.3164,0.3155,0.296,0.2685,0.2636,0.2393,0.2093,0.2115,0.194,0.1603,0.16,0.16,0.16,0.16,0.158,0.1454,0.0524,0.0,0.0,0.0,0.0,0.0,0.0392,0.0643,0.0671,0.1062,0.1453,0.173,0.1452,0.1563,0.212,0.1647,0.1313,0.1312,0.1313,0.1313,0.1284,0.0894,0.0643,0.0616,0.0252,0.0,0.0,0.0,0.0,0.0,0.0,0.0,0.0,0.0,0.0,-0.0392,0.0,-0.0615,-0.0895,-0.1284,-0.1563,-0.1619,-0.1925,-0.2287,-0.2649,-0.301,-0.3206,-0.3176,-0.3148,-0.3372,-0.3735,-0.3818,-0.4012,-0.4349,-0.4491,-0.4491,-0.4491,-0.4491,-0.4491,-0.4491,-0.4491,-0.4491,-0.4491,-0.4491,-0.4491,-0.4515,-0.4491,-0.4487,-0.4477,-0.4375,-0.4308,-0.4334,-0.4263,-0.458,1.1687,1.1467,0.9864,0.8577,0.7551,0.7134,0.6799,0.6376,0.6018,0.5762,0.5586,0.5504,0.5433,0.5399,0.5395,0.5298,0.5213,0.53,0.5264,0.5182,0.5083,0.5029,0.5016,0.4796,0.4448,0.4033,0.395,0.3743,0.3392,0.3423,0.3296,0.3072,0.3041,0.2923,0.2715,0.2678,0.2676,0.2678,0.2676,0.2676,0.2511,0.1438,0.0718,0.0676,0.0627,0.0587,0.0616,0.1118,0.1396,0.1396,0.1924,0.2313,0.2508,0.2313,0.2204,0.2232,0.2426,0.2426,0.2232,0.2204,0.2204,0.2148,0.1673,0.1396,0.1313,0.0923,0.0643,0.0,0.042,0.0,0.0,0.0,0.0,0.0,0.0,0.0,0.0,0.0,0.0,0.0,-0.0531,-0.0811,-0.0895,-0.1396,-0.187,-0.1896,-0.2091,-0.2204,-0.2204,-0.2259,-0.2452,-0.2982,-0.301,-0.3428,-0.4236,-0.4491,-0.4491,-0.4491,-0.4491,-0.4491,-0.4491,-0.4491,-0.4491,-0.4491,-0.4491,-0.4491,-0.4491,-0.4491,-0.447,-0.446,-0.4345,-0.419,-0.424,-0.4129,-0.4102,1.2727,1.2441,1.0658,0.9765,0.9625,0.8321,0.7626,0.7401,0.6485,0.589,0.5755,0.5672,0.5562,0.5528,0.5591,0.5422,0.5365,0.522,0.5233,0.5334,0.5067,0.5077,0.5337,0.4935,0.4732,0.471,0.4699,0.4784,0.4899,0.5104,0.4775,0.3818,0.3878,0.3533,0.2955,0.2884,0.2764,0.2884,0.2884,0.2793,0.2751,0.2652,0.2513,0.2394,0.2161,0.2012,0.2037,0.212,0.2148,0.2148,0.2259,0.2593,0.3206,0.2676,0.2315,0.2341,0.2954,0.3012,0.2426,0.2343,0.2315,0.2259,0.223,0.2176,0.2148,0.2009,0.1898,0.2037,0.1396,0.0783,0.0,0.0,0.0,0.0,0.0,0.0,0.0,0.0,0.0,0.0,0.0,0.0,0.0,-0.07,-0.1062,-0.1256,-0.173,-0.2065,-0.1953,-0.2037,-0.212,-0.2202,-0.2369,-0.2758,-0.407,-0.4125,-0.4208,-0.4236,-0.407,-0.4377,-0.446,-0.4491,-0.4463,-0.4491,-0.4491,-0.4491,-0.4491,-0.4474,-0.4443,-0.4395,-0.4263,-0.4169,-0.4109,-0.4157,-0.4107,1.3231,1.2139,1.1293,1.0463,0.9597,0.9091,0.8799,0.859,0.7961,0.7602,0.7477,0.7241,0.7122,0.7051,0.7055,0.6437,0.5455,0.5334,0.5341,0.5371,0.5148,0.5064,0.504,0.4809,0.4714,0.4779,0.4844,0.5043,0.5264,0.5371,0.5236,0.4927,0.4863,0.4722,0.4486,0.442,0.4417,0.4417,0.442,0.4417,0.4375,0.4296,0.4213,0.4097,0.3019,0.2338,0.2206,0.2647,0.2926,0.2982,0.34,0.379,0.4012,0.3846,0.368,0.3707,0.3929,0.3987,0.3735,0.3677,0.368,0.3652,0.3176,0.2926,0.2871,0.251,0.2204,0.2148,0.2007,0.1647,0.1312,0.0588,0.0,0.0,0.0,0.0,0.0,0.0,0.0,0.0,0.0,0.0,0.0,0.0,-0.0364,-0.042,0.0,0.0,0.0,0.0,-0.1007,-0.1396,-0.1535,-0.1842,-0.2788,-0.2982,-0.3037,-0.3176,-0.3287,-0.3566,-0.3732,-0.4153,-0.4236,-0.4153,-0.4239,-0.4208,-0.4122,-0.4155,-0.418,-0.4045,-0.3953,-0.4041,-0.393,-0.3971,-0.392,1.361,1.2488,1.2166,1.1496,1.0551,1.0076,0.984,0.9638,0.8934,0.8589,0.8486,0.8157,0.7994,0.7994,0.7994,0.7409,0.626,0.5874,0.5715,0.5749,0.5227,0.4955,0.4928,0.4785,0.4747,0.4782,0.4884,0.5121,0.5368,0.5395,0.5395,0.5392,0.5395,0.5395,0.5395,0.5395,0.5416,0.545,0.5419,0.5416,0.544,0.5284,0.5147,0.4943,0.3912,0.3195,0.3034,0.3485,0.3744,0.3827,0.4239,0.4491,0.4491,0.4491,0.4491,0.4491,0.4491,0.4491,0.4491,0.4491,0.4487,0.446,0.4042,0.3707,0.3707,0.3262,0.301,0.2926,0.2676,0.2563,0.2313,0.1452,0.0727,0.0699,0.0727,0.0587,0.0392,0.0,0.0,0.0,0.0,0.0,0.0,0.0,0.0,0.0,0.0,0.0,0.0,0.0,-0.014,-0.0643,-0.0755,-0.0923,0.0,0.0,0.0,-0.2369,-0.2591,-0.2869,-0.309,-0.3566,-0.3846,-0.3818,-0.3818,-0.379,-0.3777,-0.3809,-0.3743,-0.3609,-0.3819,-0.3964,-0.387,-0.3751,-0.3652,1.3866,1.3465,1.332,1.2876,1.2298,1.1289,1.0739,1.0454,0.9324,0.8901,0.8837,0.8308,0.8344,0.8156,0.8318,0.8091,0.7864,0.6928,0.6519,0.659,0.543,0.5019,0.5178,0.487,0.4792,0.4887,0.5026,0.5206,0.5385,0.5395,0.5395,0.5395,0.5395,0.5395,0.5395,0.5399,0.5463,0.5494,0.5453,0.5463,0.5583,0.545,0.5281,0.512,0.4851,0.468,0.4581,0.4587,0.4504,0.4421,0.446,0.4491,0.4491,0.4543,0.4546,0.4487,0.4491,0.4491,0.4491,0.4491,0.4491,0.4487,0.446,0.4349,0.4322,0.4294,0.4267,0.4125,0.3735,0.3372,0.3231,0.2676,0.2119,0.2148,0.1953,0.1675,0.1285,0.1118,0.0867,0.0,0.0,0.0,0.0,0.0,0.0,0.0,0.0,0.0,0.0,0.0,0.0,0.0,0.0,0.0,0.0,0.0,0.0,-0.1673,-0.1952,-0.2202,-0.2286,-0.2619,-0.2843,-0.2899,-0.2926,-0.2896,-0.2905,-0.2926,-0.3049,-0.3036,-0.344,-0.3586,-0.3354,-0.3169,-0.3294,1.3573,1.332,1.3019,1.275,1.2408,1.1992,1.179,1.173,1.1089,1.0709,1.0443,1.017,0.9985,0.9804,0.9811,0.9779,0.971,0.8637,0.7934,0.7466,0.6399,0.5917,0.5821,0.5209,0.4921,0.5015,0.5076,0.5213,0.5368,0.5395,0.5395,0.5395,0.5395,0.5395,0.5395,0.5395,0.5426,0.545,0.5419,0.5423,0.5463,0.5423,0.5368,0.5324,0.5276,0.5139,0.483,0.4675,0.4573,0.4519,0.4491,0.4491,0.457,0.4921,0.4952,0.4543,0.4491,0.4491,0.4491,0.4515,0.4543,0.4515,0.4515,0.4491,0.4491,0.4515,0.4515,0.4491,0.4267,0.4153,0.4098,0.3932,0.3317,0.2313,0.2204,0.2204,0.1925,0.1842,0.1758,0.1507,0.109,0.081,0.0671,0.0448,0.0,0.0,0.0,0.0,0.0,0.0,0.0,0.0,0.0,0.0,0.0,0.0,0.0,0.0,-0.1228,-0.1424,-0.1506,-0.1646,-0.187,-0.1953,-0.1981,-0.1997,-0.199,-0.2147,-0.2297,-0.2305,-0.2445,-0.2465,-0.2436,-0.2517,-0.2687,1.3533,1.3206,1.2999,1.2672,1.2325,1.2305,1.2305,1.2265,1.2033,1.1703,1.1389,1.1202,1.0929,1.068,1.07,1.0687,1.0555,0.9875,0.9355,0.876,0.7415,0.6838,0.6822,0.6269,0.5775,0.5627,0.5662,0.5585,0.5388,0.5395,0.5395,0.5395,0.5395,0.5395,0.5395,0.5395,0.5412,0.546,0.5429,0.5423,0.5457,0.5423,0.5395,0.5385,0.5341,0.5155,0.4891,0.4934,0.4932,0.4939,0.5089,0.5281,0.5308,0.5683,0.571,0.5391,0.5281,0.5308,0.5281,0.5359,0.5281,0.5277,0.5281,0.5117,0.4952,0.4869,0.4787,0.4543,0.4463,0.4491,0.4491,0.4463,0.4012,0.3206,0.3123,0.2926,0.2732,0.2369,0.2202,0.2037,0.1758,0.1563,0.1369,0.1202,0.0838,0.081,0.081,0.0643,0.0532,0.0,0.0,0.0,0.0,0.0,0.0,0.0,0.0,0.0,-0.0476,-0.0615,-0.0727,-0.0866,-0.1062,-0.1006,-0.1034,-0.0977,-0.0991,-0.1423,-0.167,-0.1605,-0.1592,-0.1938,-0.2135,-0.2031,-0.2103,1.3748,1.3233,1.3206,1.2839,1.2338,1.2305,1.2305,1.2265,1.2074,1.1737,1.1435,1.1362,1.1082,1.0747,1.0807,1.0787,1.0626,1.0534,1.042,0.9907,0.8703,0.7828,0.7591,0.7466,0.7064,0.6601,0.672,0.64,0.5885,0.5877,0.5564,0.5752,0.5818,0.5572,0.5649,0.5505,0.5564,0.5566,0.5534,0.5628,0.5737,0.5732,0.569,0.5716,0.5593,0.544,0.5339,0.5711,0.5811,0.5677,0.6204,0.6507,0.6561,0.6615,0.6642,0.6426,0.6534,0.6453,0.6534,0.6372,0.6399,0.6372,0.634,0.6335,0.5683,0.5546,0.5382,0.4924,0.4818,0.4763,0.4763,0.4791,0.4677,0.4543,0.4291,0.4012,0.3511,0.2843,0.2676,0.251,0.2343,0.2259,0.2259,0.2147,0.2007,0.2007,0.1952,0.1647,0.1368,0.109,0.0811,0.0,0.0,0.0,0.0,0.0,0.0,0.0,0.014,0.0,0.0,0.0,0.0,0.0,0.0,0.0,0.0,0.0,0.0,-0.0919,-0.1155,-0.166,0.0,0.0,0.0,1.3748,1.3227,1.3206,1.2859,1.2345,1.2305,1.2305,1.2291,1.2225,1.187,1.1482,1.143,1.1116,1.064,1.068,1.066,1.0606,1.0586,1.0586,1.051,1.0139,0.9017,0.8148,0.7935,0.7829,0.7634,0.779,0.7716,0.7368,0.7337,0.7375,0.7349,0.7167,0.7003,0.6596,0.6402,0.6071,0.5751,0.6163,0.6383,0.6486,0.6992,0.7312,0.7302,0.7219,0.698,0.6738,0.701,0.6899,0.6404,0.702,0.7128,0.6777,0.7128,0.7235,0.6804,0.6669,0.6642,0.6642,0.6669,0.6642,0.6588,0.675,0.6502,0.634,0.6312,0.6204,0.6046,0.6046,0.5991,0.6014,0.5991,0.5769,0.5273,0.4897,0.4487,0.4208,0.4039,0.3901,0.3846,0.3372,0.3123,0.2982,0.2674,0.2343,0.2343,0.2343,0.2232,0.2035,0.1896,0.1703,0.1758,0.0,0.0,0.0,0.0,0.0,0.0,0.0727,0.0531,0.0,0.0,0.0,0.0,0.0,0.0,0.0,0.0,0.0,0.0,0.0,0.0,0.0,0.0,0.0,1.4179,1.3206,1.3206,1.2859,1.2338,1.2305,1.2305,1.2278,1.2158,1.187,1.1489,1.157,1.1216,1.0646,1.0847,1.0775,1.0613,1.0586,1.0586,1.0586,1.0541,0.999,0.9282,0.9096,0.8903,0.856,0.869,0.8467,0.8062,0.8159,0.8134,0.8007,0.8118,0.7936,0.7586,0.7449,0.7221,0.6924,0.712,0.7237,0.7307,0.773,0.7924,0.7994,0.7979,0.7876,0.7779,0.7738,0.7482,0.7289,0.7717,0.7963,0.761,0.7916,0.7963,0.753,0.7509,0.7536,0.753,0.753,0.7536,0.7536,0.7509,0.7348,0.7155,0.7074,0.702,0.6588,0.6588,0.6588,0.6588,0.6588,0.6394,0.6009,0.5609,0.5144,0.4629,0.4432,0.4491,0.4377,0.4153,0.3846,0.3873,0.34,0.3234,0.3206,0.3317,0.3093,0.2813,0.2732,0.2593,0.251,0.2371,0.2232,0.2176,0.2176,0.2148,0.1703,0.1369,0.1118,0.0,0.0,0.0,0.0,0.0,0.0,0.0,0.0,0.0,0.0,0.0,0.0,0.0,0.0,0.0,1.4896,1.3509,1.3482,1.3133,1.2744,1.2629,1.2806,1.2604,1.2334,1.1962,1.171,1.1775,1.127,1.064,1.0935,1.1015,1.0593,1.0586,1.0586,1.0586,1.0586,1.0428,1.0358,1.0263,0.9977,0.951,0.9452,0.9139,0.8815,0.8581,0.8489,0.8717,0.8825,0.8675,0.8659,0.8568,0.8503,0.8228,0.8126,0.8129,0.8188,0.8415,0.8608,0.8597,0.8408,0.8446,0.8405,0.8155,0.783,0.7836,0.8448,0.8646,0.8699,0.8752,0.8725,0.8646,0.856,0.8593,0.8725,0.856,0.8672,0.8619,0.8646,0.854,0.7969,0.7803,0.7616,0.7155,0.6858,0.702,0.702,0.6858,0.6777,0.6669,0.6615,0.5937,0.5062,0.4653,0.4598,0.457,0.457,0.4491,0.4491,0.4491,0.4432,0.3873,0.3959,0.379,0.3594,0.3511,0.3262,0.2954,0.2788,0.2619,0.2591,0.2591,0.2536,0.2341,0.2037,0.1703,0.109,0.0,0.0,0.0,0.0,0.0,0.0,0.0,0.0,0.0,0.0,0.0,0.0,0.0,0.0,1.6125,1.5526,1.5227,1.4872,1.4597,1.4585,1.4557,1.4419,1.3429,1.2816,1.2424,1.1674,1.11,1.0708,1.0934,1.0693,1.0778,1.0758,1.0586,1.0586,1.0586,1.0593,1.0624,1.0681,1.0491,1.0308,1.0536,1.049,1.0318,1.0317,1.0642,1.0575,1.0371,1.0453,0.9956,0.9565,0.9107,0.8722,0.8871,0.9017,0.9166,0.9582,0.9869,0.9837,0.9481,0.9343,0.9295,0.8893,0.8579,0.8619,0.8699,0.8778,0.8778,0.8778,0.8778,0.8778,0.8778,0.8778,0.8778,0.8778,0.8778,0.8778,0.8778,0.8718,0.8619,0.8507,0.8454,0.8315,0.8342,0.8156,0.8129,0.775,0.753,0.7369,0.702,0.6615,0.6154,0.5632,0.5328,0.5191,0.4897,0.4515,0.4543,0.457,0.457,0.4519,0.446,0.4405,0.4291,0.4181,0.3901,0.3511,0.3539,0.3428,0.3428,0.3398,0.3259,0.3148,0.2843,0.2621,0.2009,0.1675,0.1647,0.1425,0.0,0.1062,0.0866,0.0,0.0,0.0,0.0,0.0,0.0,0.0,0.0,1.6953,1.6157,1.5766,1.5449,1.5232,1.5199,1.5199,1.5021,1.4148,1.3608,1.3289,1.248,1.2079,1.2019,1.1955,1.1955,1.1935,1.1784,1.1756,1.1756,1.1756,1.1725,1.16,1.1296,1.1021,1.0767,1.0848,1.0982,1.1069,1.1269,1.1294,1.143,1.1436,1.1153,1.0874,1.0513,1.0169,0.9866,0.9813,0.9919,1.0009,1.0333,1.0586,1.0479,1.0043,0.9715,0.9639,0.9118,0.8831,0.8778,0.8785,0.8804,0.8804,0.8778,0.8778,0.8778,0.8778,0.8778,0.8778,0.8778,0.8778,0.8778,0.8778,0.8778,0.8778,0.8778,0.8778,0.8778,0.8752,0.8778,0.8778,0.8533,0.8235,0.815,0.7857,0.7616,0.745,0.6686,0.6009,0.5959,0.5741,0.5609,0.5473,0.5144,0.5003,0.5085,0.4598,0.4543,0.446,0.4349,0.4377,0.4208,0.4322,0.4322,0.4322,0.4236,0.4095,0.3956,0.3763,0.3652,0.34,0.3178,0.3012,0.2538,0.198,0.1786,0.1532,0.1104,0.092,0.0,0.0,0.0,0.0,0.0,0.0,1.7725,1.6526,1.6133,1.5832,1.5648,1.5702,1.5685,1.5462,1.4647,1.4295,1.4055,1.3651,1.3106,1.3359,1.3216,1.3375,1.3293,1.3081,1.2734,1.2734,1.2734,1.2704,1.2604,1.2205,1.1808,1.108,1.0999,1.1028,1.1142,1.1343,1.159,1.1577,1.1549,1.1572,1.1481,1.1262,1.1002,1.0849,1.0647,1.0519,1.0504,1.0561,1.0586,1.0492,1.0124,0.9836,0.9699,0.9312,0.8958,0.8858,0.8878,0.8897,0.8936,0.8837,0.8778,0.8778,0.8778,0.8778,0.8778,0.8778,0.8778,0.8778,0.8778,0.8778,0.8778,0.8778,0.8778,0.8778,0.8778,0.8778,0.8778,0.8699,0.8725,0.8725,0.8752,0.8778,0.8586,0.7643,0.7101,0.675,0.6426,0.6182,0.615,0.5955,0.5787,0.5569,0.5085,0.4763,0.4736,0.4818,0.4983,0.5144,0.5281,0.5003,0.4948,0.457,0.4487,0.4515,0.4405,0.4405,0.4349,0.4042,0.3652,0.3121,0.2647,0.248,0.2251,0.1931,0.1874,0.2063,0.1873,0.1512,0.1372,0.1325,0.1184,1.8759,1.815,1.7777,1.7567,1.752,1.751,1.7252,1.685,1.5742,1.5069,1.4631,1.3613,1.3216,1.3225,1.3108,1.3108,1.333,1.3307,1.3213,1.3191,1.3221,1.3221,1.3213,1.297,1.2833,1.264,1.2003,1.1389,1.158,1.1678,1.2014,1.2143,1.2078,1.2071,1.1977,1.1893,1.1483,1.1276,1.1022,1.0827,1.072,1.0646,1.0663,1.0661,1.0356,1.0207,1.0109,0.98,0.9426,0.9171,0.9144,0.9342,0.9477,0.9192,0.8989,0.8956,0.8929,0.8956,0.9008,0.891,0.8831,0.8778,0.8929,0.891,0.8883,0.8883,0.9035,0.8982,0.8956,0.8883,0.8804,0.9008,0.8857,0.8831,0.8857,0.8831,0.8752,0.8454,0.799,0.7589,0.7101,0.675,0.6826,0.6772,0.6524,0.6335,0.6014,0.5773,0.5773,0.5882,0.6073,0.6209,0.6317,0.59,0.5515,0.4976,0.468,0.4818,0.4791,0.4818,0.4736,0.4515,0.4153,0.384,0.3478,0.3204,0.2966,0.2699,0.2532,0.252,0.2259,0.2013,0.2,0.1966,0.1763,1.8792,1.8559,1.8184,1.8008,1.8008,1.8008,1.7773,1.7321,1.651,1.5892,1.5376,1.4653,1.4399,1.4472,1.4336,1.4243,1.4213,1.4243,1.4243,1.4243,1.4243,1.4243,1.4085,1.3816,1.3761,1.3642,1.3003,1.2736,1.3024,1.2683,1.2778,1.2789,1.2449,1.2078,1.2011,1.175,1.1631,1.1417,1.1229,1.1075,1.1034,1.0934,1.0946,1.109,1.0972,1.098,1.1293,1.1095,1.0783,1.0503,1.04,1.0378,1.0223,1.0046,0.9821,0.9788,0.9536,0.951,0.9744,0.984,0.9891,0.984,0.9814,0.984,0.9832,0.9884,0.9762,0.9788,0.984,0.984,0.9891,0.9795,0.9658,0.9387,0.9316,0.9166,0.8936,0.8857,0.8613,0.8342,0.8103,0.7883,0.7777,0.7643,0.7289,0.7047,0.6826,0.6777,0.675,0.6804,0.6912,0.6804,0.6831,0.6556,0.6113,0.5683,0.5254,0.5281,0.5308,0.5336,0.5308,0.5199,0.5085,0.4886,0.4498,0.4088,0.3814,0.3615,0.33,0.3003,0.2957,0.2884,0.2728,0.2568,0.2366,1.8559,1.8442,1.812,1.8008,1.7998,1.791,1.7637,1.7217,1.6736,1.6287,1.5918,1.5566,1.5507,1.5732,1.5546,1.5391,1.5478,1.54,1.5313,1.54,1.5274,1.5323,1.5167,1.4854,1.4533,1.469,1.4519,1.4528,1.415,1.3863,1.3798,1.3769,1.2963,1.2543,1.2671,1.2747,1.2192,1.2017,1.1877,1.1848,1.1773,1.1659,1.1636,1.1988,1.1783,1.1996,1.2411,1.2282,1.1893,1.1573,1.1457,1.1363,1.1057,1.0864,1.0939,1.1049,1.0448,1.0415,1.0568,1.072,1.0593,1.0559,1.0737,1.0762,1.0737,1.0585,1.0686,1.0813,1.0737,1.0661,1.0593,1.0737,1.0491,1.0192,0.9961,0.9865,0.9543,0.9387,0.9335,0.9152,0.9061,0.8824,0.8553,0.8348,0.7969,0.7883,0.7696,0.7637,0.7589,0.7456,0.7456,0.7262,0.7155,0.6993,0.6745,0.6529,0.6177,0.6046,0.6073,0.6073,0.6068,0.6041,0.5873,0.5706,0.5492,0.5101,0.4814,0.4371,0.389,0.3626,0.3755,0.3642,0.3269,0.3084,0.2946,1.8393,1.8086,1.8037,1.8008,1.7949,1.7637,1.7217,1.6765,1.6398,1.5889,1.5547,1.542,1.5449,1.5488,1.5478,1.5625,1.5742,1.5596,1.5596,1.584,1.5625,1.5518,1.5469,1.5352,1.5378,1.5549,1.5699,1.5151,1.4761,1.4793,1.4931,1.4901,1.4715,1.4691,1.4336,1.4214,1.4595,1.4328,1.4189,1.3864,1.3324,1.3172,1.3035,1.2868,1.2821,1.2893,1.313,1.3067,1.2712,1.2083,1.1933,1.1821,1.1624,1.1091,1.1609,1.1875,1.1568,1.072,1.0939,1.1049,1.1065,1.1099,1.099,1.0838,1.1023,1.1049,1.1023,1.0813,1.0889,1.0998,1.1074,1.0914,1.0796,1.0745,1.0661,1.0618,1.0423,1.0012,0.9935,0.9814,0.9692,0.9342,0.9028,0.885,0.8672,0.8646,0.8593,0.8454,0.8342,0.8129,0.8076,0.791,0.7771,0.7616,0.7536,0.7289,0.7155,0.6939,0.6939,0.6912,0.6912,0.6853,0.6588,0.6421,0.6204,0.5792,0.5189,0.4695,0.4315,0.4246,0.4394,0.4072,0.3612,0.3518,0.3505,1.8139,1.8008,1.8008,1.8008,1.7949,1.7568,1.7139,1.6668,1.6281,1.584,1.5469,1.542,1.542,1.542,1.542,1.5498,1.5625,1.5498,1.5654,1.6007,1.5899,1.5889,1.6064,1.5918,1.5968,1.6016,1.6113,1.604,1.5614,1.5516,1.5687,1.5922,1.5473,1.5076,1.5411,1.5234,1.5107,1.4957,1.4884,1.4496,1.3899,1.3773,1.3823,1.3679,1.3674,1.3914,1.4138,1.4098,1.3741,1.3195,1.295,1.2654,1.2454,1.2197,1.2363,1.2642,1.2387,1.2024,1.2024,1.194,1.1891,1.195,1.195,1.2058,1.2008,1.1925,1.1925,1.1999,1.1999,1.1974,1.1925,1.1999,1.1708,1.155,1.1366,1.1141,1.1023,1.0813,1.0559,1.0466,1.0312,1.0012,0.964,0.929,0.9106,0.9008,0.8956,0.885,0.8718,0.856,0.856,0.8586,0.848,0.8342,0.8295,0.8182,0.8123,0.799,0.8049,0.799,0.7857,0.7696,0.745,0.7047,0.6723,0.6206,0.5561,0.5366,0.5255,0.5137,0.5011,0.4671,0.4355,0.4116,0.4038,1.8191,1.8144,1.807,1.8008,1.7949,1.7451,1.7031,1.6658,1.6123,1.5713,1.5488,1.542,1.542,1.542,1.543,1.5498,1.5596,1.5469,1.5693,1.5948,1.6036,1.6113,1.6162,1.6114,1.5948,1.6105,1.6125,1.6216,1.6434,1.6496,1.6563,1.6904,1.6463,1.6088,1.5983,1.6088,1.6131,1.6114,1.5947,1.543,1.474,1.4597,1.4604,1.4541,1.4569,1.4785,1.5235,1.4963,1.4507,1.4036,1.3594,1.3163,1.2885,1.2749,1.2735,1.2905,1.27,1.2837,1.2852,1.2876,1.2929,1.2915,1.2915,1.27,1.2783,1.2915,1.2881,1.2725,1.2749,1.2783,1.2881,1.2822,1.2535,1.2221,1.2055,1.1733,1.145,1.145,1.1325,1.1124,1.0998,1.0838,1.0415,0.9814,0.951,0.9387,0.9316,0.9263,0.9211,0.9159,0.9263,0.9361,0.9178,0.9073,0.9021,0.9001,0.8975,0.8956,0.9008,0.8857,0.858,0.8494,0.8355,0.7898,0.7465,0.7231,0.6926,0.658,0.6202,0.5673,0.5269,0.5379,0.5186,0.4917,0.4631,1.8736,1.853,1.8181,1.809,1.8041,1.7087,1.6768,1.6829,1.59,1.5517,1.542,1.542,1.542,1.543,1.5498,1.5654,1.5977,1.5586,1.5781,1.5889,1.5742,1.5928,1.6074,1.6045,1.5801,1.6105,1.6202,1.6396,1.6677,1.6909,1.733,1.776,1.7256,1.7599,1.7512,1.7145,1.7179,1.7166,1.7029,1.6727,1.616,1.5897,1.5578,1.5302,1.5255,1.5342,1.5391,1.4902,1.4582,1.4122,1.3668,1.3541,1.3256,1.3099,1.3089,1.321,1.32,1.3406,1.3563,1.331,1.3002,1.2939,1.2954,1.3041,1.3065,1.2929,1.2915,1.2915,1.2915,1.2915,1.2915,1.2881,1.2774,1.2691,1.2535,1.2461,1.2314,1.2412,1.223,1.1875,1.1692,1.1584,1.145,1.0931,1.0295,1.0141,1.0064,1.0038,1.0038,1.0012,1.0141,1.0167,0.9917,0.9788,0.9736,0.971,0.9658,0.9588,0.9588,0.9361,0.9054,0.9047,0.9261,0.9006,0.8626,0.8474,0.8208,0.7709,0.702,0.5955,0.5545,0.584,0.584,0.5579,0.5316,1.8852,1.8796,1.8945,1.9253,1.9531,1.8583,1.8158,1.7949,1.6686,1.5777,1.5439,1.542,1.542,1.5498,1.5703,1.5732,1.5713,1.586,1.6105,1.6201,1.6133,1.63,1.6476,1.6529,1.6348,1.6488,1.6527,1.6514,1.6707,1.7064,1.7002,1.7204,1.7626,1.736,1.734,1.749,1.748,1.7353,1.7275,1.7051,1.6427,1.6212,1.588,1.5449,1.5098,1.5049,1.4912,1.4326,1.4202,1.4057,1.3576,1.3591,1.3781,1.3597,1.3634,1.3836,1.3884,1.4061,1.4154,1.386,1.3634,1.3884,1.3718,1.3467,1.342,1.3176,1.2954,1.2915,1.2978,1.3065,1.2929,1.2929,1.2881,1.2915,1.2929,1.2954,1.2915,1.2915,1.2832,1.2338,1.2387,1.2412,1.2304,1.2132,1.1459,1.0922,1.0864,1.0838,1.0838,1.0788,1.0847,1.0847,1.0652,1.0466,1.0415,1.0364,1.0312,1.021,1.0167,0.9987,0.9814,1.0064,1.0195,0.9985,0.967,0.9346,0.9002,0.8632,0.7938,0.6988,0.657,0.6552,0.6437,0.6242,0.6068,1.9149,1.9174,1.9753,2.0019,2.0019,1.9373,1.9033,1.8647,1.742,1.6557,1.6044,1.6044,1.6054,1.6156,1.6378,1.6448,1.6352,1.6496,1.6715,1.6796,1.6805,1.7104,1.745,1.7564,1.7358,1.7328,1.7246,1.7287,1.7287,1.7175,1.7328,1.7462,1.7449,1.7335,1.6911,1.6973,1.7021,1.6863,1.6768,1.6799,1.6134,1.5928,1.6029,1.5651,1.5387,1.5408,1.5263,1.4899,1.4503,1.4387,1.4149,1.4018,1.4224,1.4422,1.4352,1.456,1.4721,1.4789,1.4789,1.4491,1.4283,1.4433,1.4306,1.4097,1.3944,1.3681,1.3644,1.3573,1.3501,1.3406,1.3406,1.3586,1.343,1.3478,1.3334,1.3286,1.3002,1.2915,1.2915,1.2759,1.2832,1.2798,1.2749,1.2569,1.2329,1.1841,1.1875,1.1792,1.1708,1.1584,1.14,1.1409,1.1334,1.12,1.1091,1.1065,1.099,1.0661,1.0636,1.0762,1.0737,1.0965,1.0764,1.0243,1.001,0.9986,0.9641,0.909,0.8616,0.8082,0.7777,0.7495,0.7255,0.7082,0.6899,1.9672,1.9674,2.035,2.0005,1.9182,1.9082,1.8902,1.86,1.7879,1.7495,1.733,1.7357,1.7357,1.7363,1.7355,1.7305,1.7256,1.7401,1.7516,1.7497,1.739,1.8052,1.8401,1.8453,1.814,1.8751,1.8508,1.8155,1.8115,1.8006,1.8061,1.7991,1.7878,1.7652,1.6776,1.675,1.676,1.6682,1.6473,1.6426,1.6258,1.5998,1.6146,1.6267,1.5883,1.5855,1.5922,1.5275,1.493,1.5001,1.4665,1.4605,1.4858,1.4812,1.4789,1.488,1.4892,1.5085,1.5477,1.4971,1.488,1.4926,1.4846,1.4687,1.4675,1.4594,1.4433,1.4224,1.4387,1.4479,1.456,1.4514,1.4154,1.3967,1.3826,1.3718,1.3454,1.332,1.3416,1.3478,1.3176,1.292,1.2929,1.2905,1.2871,1.2764,1.2856,1.2749,1.251,1.2295,1.2039,1.199,1.1974,1.1891,1.1807,1.1798,1.1665,1.1316,1.1241,1.145,1.1525,1.1625,1.1235,1.0604,1.0557,1.0745,1.0123,0.945,0.9341,0.9291,0.875,0.8425,0.8186,0.8048,0.8024,1.9782,1.9797,2.0448,2.0231,1.9622,1.9975,2.0039,1.9739,1.8826,1.8058,1.766,1.7605,1.7605,1.7684,1.793,1.7969,1.7728,1.8002,1.8069,1.8059,1.7873,1.8002,1.8423,1.8685,1.8542,1.8583,1.8583,1.8672,1.8262,1.8413,1.8115,1.7935,1.8109,1.766,1.7478,1.7493,1.7662,1.7416,1.7402,1.7434,1.7095,1.6913,1.6912,1.7158,1.647,1.6247,1.6477,1.5648,1.5302,1.5453,1.5096,1.513,1.5511,1.5555,1.5466,1.5722,1.5866,1.5954,1.6151,1.5976,1.5898,1.5744,1.5488,1.5298,1.5298,1.488,1.4766,1.4778,1.4869,1.4846,1.4675,1.4675,1.4468,1.4468,1.4399,1.4376,1.4247,1.4224,1.4247,1.4281,1.4118,1.3742,1.3576,1.3491,1.342,1.3238,1.3224,1.3065,1.2837,1.2764,1.2584,1.2618,1.2593,1.2559,1.2525,1.2521,1.2594,1.2438,1.2335,1.2412,1.2437,1.232,1.2128,1.1692,1.1581,1.1458,1.0944,1.0569,1.0658,1.0526,1.0075,0.9558,0.9231,0.9313,0.9518,1.9798,1.9849,2.0239,2.015,1.9924,2.0453,2.0603,2.0273,1.944,1.8794,1.8474,1.8394,1.8394,1.8499,1.862,1.8697,1.8414,1.8643,1.8829,1.8767,1.8542,1.8862,1.9104,1.9081,1.938,1.9197,1.9262,1.9347,1.8955,1.8857,1.8748,1.8607,1.834,1.8518,1.8406,1.8241,1.7834,1.7623,1.7672,1.775,1.7568,1.755,1.766,1.7607,1.7203,1.6675,1.6569,1.6092,1.5466,1.5644,1.57,1.5656,1.6129,1.6238,1.6117,1.6414,1.6513,1.6479,1.6457,1.6457,1.6349,1.6371,1.6086,1.5942,1.5898,1.5634,1.55,1.5411,1.5276,1.5299,1.5299,1.5254,1.5175,1.5175,1.5005,1.4994,1.4755,1.4686,1.4709,1.4778,1.4778,1.4468,1.4236,1.4143,1.4037,1.3813,1.3597,1.3406,1.3272,1.3214,1.3286,1.3358,1.343,1.3505,1.3423,1.3304,1.3386,1.3491,1.3344,1.3113,1.3065,1.2905,1.2856,1.2729,1.2281,1.1956,1.1893,1.1755,1.1743,1.1687,1.1508,1.0978,1.0388,1.0383,1.0588,1.9798,1.9798,1.9798,1.9823,1.9899,2.039,2.0314,1.9836,1.9773,1.9747,1.9721,1.9605,1.9527,1.9657,1.9733,1.9655,1.9578,1.9615,1.9614,1.964,1.9422,1.9899,2.0149,2.0273,2.005,2.0325,2.0362,1.9829,1.9744,1.9559,1.9536,1.9604,1.9423,1.9423,1.9107,1.8667,1.8223,1.832,1.8377,1.8439,1.8374,1.8023,1.8255,1.8142,1.7658,1.7376,1.7225,1.6853,1.6452,1.6392,1.6414,1.6436,1.65,1.6513,1.6513,1.6513,1.6513,1.6513,1.6513,1.6513,1.6513,1.6513,1.6457,1.6457,1.6392,1.625,1.612,1.6141,1.6098,1.625,1.6349,1.6207,1.6064,1.5886,1.5654,1.5421,1.5062,1.496,1.4971,1.4994,1.5051,1.4903,1.4778,1.4698,1.4629,1.434,1.4154,1.4224,1.4061,1.3849,1.3967,1.4247,1.434,1.4502,1.4363,1.4014,1.399,1.4037,1.3705,1.3478,1.3454,1.3529,1.3456,1.3229,1.2682,1.2497,1.2782,1.2788,1.2673,1.2599,1.2445,1.2041,1.1348,1.1186,1.1242,1.9798,1.9798,1.9798,1.9798,1.9823,1.9974,1.9962,1.9811,1.9798,1.9798,1.9798,1.9798,1.9798,1.9798,1.9798,1.9786,1.9798,1.9798,1.9785,1.9798,1.9798,1.9924,2.0012,2.0126,2.0075,2.0075,2.0049,2.0024,1.9835,1.9798,1.9798,1.9773,1.9798,1.9798,1.9669,1.9371,1.9381,1.9455,1.9462,1.9414,1.9344,1.9148,1.9117,1.862,1.7946,1.7739,1.7407,1.6999,1.66,1.6538,1.6513,1.6522,1.6513,1.6513,1.6513,1.6513,1.6513,1.6513,1.6513,1.6534,1.6586,1.665,1.6595,1.6513,1.6513,1.6565,1.6543,1.6513,1.6513,1.6513,1.6513,1.6436,1.638,1.6238,1.6073,1.5942,1.5645,1.5645,1.5656,1.5656,1.5668,1.5545,1.5421,1.5354,1.5242,1.4903,1.4766,1.488,1.4835,1.4618,1.4664,1.4949,1.5028,1.5119,1.4858,1.4514,1.4537,1.4514,1.4177,1.4025,1.4224,1.4238,1.4114,1.3879,1.3544,1.3658,1.3976,1.3831,1.3439,1.3277,1.311,1.2749,1.2421,1.2172,1.2024,1.9171,1.9171,1.9171,1.9296,1.9459,1.9459,1.9585,1.9773,1.9798,1.9798,1.9798,1.9798,1.9798,1.9761,1.9597,1.9572,1.9773,1.9547,1.9547,1.9798,1.9798,1.9823,1.9811,1.9798,1.9836,1.9798,1.9798,1.9849,1.9798,1.9798,1.9798,1.9798,1.9798,1.9798,1.9747,1.9733,2.0072,2.0246,2.0385,2.039,2.0226,2.0025,1.9547,1.897,1.8228,1.7922,1.743,1.6955,1.6904,1.6847,1.6831,1.6957,1.7068,1.7187,1.7173,1.7222,1.7222,1.7263,1.725,1.7229,1.716,1.7118,1.7084,1.7167,1.6951,1.6879,1.6659,1.6513,1.6513,1.6513,1.6513,1.6513,1.6513,1.6479,1.6479,1.6479,1.6457,1.6457,1.6457,1.6436,1.6371,1.6228,1.6107,1.6008,1.592,1.5722,1.5656,1.57,1.5577,1.532,1.541,1.5666,1.5634,1.5611,1.5344,1.5175,1.522,1.513,1.4721,1.4675,1.4926,1.4801,1.4528,1.4527,1.455,1.4642,1.4643,1.4425,1.4099,1.3967,1.3873,1.3684,1.3314,1.29,1.2803,1.8287,1.8336,1.8262,1.8639,1.8981,1.9031,1.9246,1.966,1.9572,1.9723,1.9761,1.9798,1.9798,1.9736,1.9484,1.9409,1.9522,1.9371,1.9434,1.9761,1.9798,1.9798,1.9798,1.9798,1.9798,1.9798,1.9798,1.9798,1.9824,1.9927,2.0029,1.9824,1.9798,1.9798,1.9798,1.9798,1.9962,2.0063,2.0013,1.9849,2.0026,1.9875,1.9611,1.9131,1.8811,1.8528,1.7765,1.7451,1.7457,1.7417,1.7454,1.7644,1.7817,1.8118,1.8098,1.8049,1.801,1.7949,1.7888,1.7827,1.7894,1.7947,1.8072,1.7894,1.7565,1.7291,1.7076,1.7013,1.7055,1.7089,1.7089,1.7076,1.7076,1.7055,1.7055,1.6942,1.6795,1.668,1.6513,1.6513,1.6479,1.6392,1.6371,1.625,1.6228,1.6293,1.6315,1.6315,1.6238,1.5952,1.6039,1.6247,1.6107,1.6042,1.6042,1.5898,1.5964,1.5776,1.5354,1.5332,1.5577,1.531,1.4903,1.5107,1.5366,1.5152,1.5039,1.4892,1.4801,1.4687,1.4629,1.4629,1.4294,1.3752,1.3573,1.8806,1.8806,1.8796,1.891,1.8991,1.9004,1.8823,1.8581,1.8581,1.9107,1.9685,1.9799,1.9773,1.9673,1.9572,1.9472,1.9259,1.9384,1.9396,1.9522,1.9623,1.9736,1.9811,1.985,1.9825,1.9798,1.9798,1.9965,2.0055,2.0257,2.0257,1.9863,1.9826,1.9801,1.9801,1.9801,1.9788,1.9737,1.9585,1.9762,2.0219,2.032,2.0169,1.9412,1.8922,1.8695,1.8129,1.7921,1.7922,1.7936,1.7922,1.8003,1.8085,1.8575,1.8547,1.8311,1.8583,1.8567,1.838,1.8288,1.8288,1.8224,1.8198,1.8125,1.7993,1.7807,1.7706,1.772,1.7646,1.7659,1.7639,1.7626,1.7626,1.7605,1.7605,1.736,1.7126,1.6879,1.6629,1.6586,1.6586,1.6586,1.6607,1.6586,1.6513,1.6479,1.6479,1.6479,1.6573,1.6454,1.6514,1.6612,1.6445,1.638,1.6423,1.6402,1.6303,1.6337,1.602,1.6086,1.6238,1.5942,1.5656,1.5942,1.6129,1.5832,1.5622,1.5555,1.5466,1.5365,1.522,1.5152,1.5005,1.4525,1.441,1.8612,1.8599,1.8612,1.8739,1.8931,1.8958,1.8906,1.8917,1.8911,1.9237,1.9694,1.9583,1.9459,1.9447,1.9459,1.9598,1.9346,1.9384,1.9472,1.9497,1.9623,1.9522,1.9686,2.0029,2.0013,2.0013,2.0505,2.0718,2.058,2.0563,2.0518,2.0203,2.005,1.9845,1.9819,1.9777,1.9662,1.9431,1.93,1.9688,2.0251,2.0088,1.9807,1.9091,1.9094,1.8858,1.8479,1.8259,1.8446,1.8581,1.8689,1.883,1.896,1.9171,1.9162,1.9046,1.9109,1.9195,1.8913,1.8817,1.8812,1.8855,1.9171,1.9435,1.9079,1.8908,1.8585,1.8492,1.7994,1.7907,1.7907,1.7907,1.7894,1.7894,1.7894,1.7787,1.7666,1.7524,1.7415,1.7415,1.7415,1.7415,1.7435,1.7415,1.7374,1.7374,1.7229,1.716,1.7139,1.7005,1.7055,1.7034,1.6879,1.6616,1.6479,1.6479,1.6457,1.6479,1.6629,1.6509,1.6454,1.6479,1.6479,1.6573,1.6573,1.6414,1.6228,1.6139,1.6073,1.5986,1.581,1.5634,1.5456,1.5344,1.5344,1.8285,1.8269,1.8271,1.847,1.8858,1.8879,1.9106,1.9439,1.9529,1.9494,1.9464,1.9136,1.905,1.9216,1.9254,1.9572,1.985,2.0008,1.9937,1.9912,2.0105,2.019,2.0299,2.0422,2.0514,2.0643,2.0975,2.1195,2.1254,2.1139,2.096,2.0721,2.035,1.9954,1.9921,1.9809,1.9668,1.9502,1.9447,1.9568,1.9549,1.94,1.9331,1.938,1.9453,1.928,1.8806,1.8673,1.8987,1.9101,1.9327,1.9425,1.9616,1.9708,1.9657,1.9638,1.996,1.9968,1.9827,1.9909,1.9964,2.0109,2.0587,2.0636,2.0243,1.9923,1.9595,1.919,1.868,1.8361,1.838,1.8361,1.8361,1.8308,1.8308,1.8249,1.819,1.8112,1.8052,1.8052,1.8052,1.8052,1.8072,1.8072,1.8092,1.8112,1.8112,1.8092,1.7993,1.7747,1.7605,1.7524,1.7374,1.7076,1.6829,1.6829,1.6942,1.7013,1.716,1.69,1.6774,1.6993,1.7076,1.6921,1.69,1.69,1.6765,1.6633,1.6603,1.6531,1.625,1.6042,1.6098,1.6054,1.6228,1.9006,1.9369,1.8945,1.8812,1.8893,1.8893,1.8731,1.8457,1.8526,1.8431,1.8748,1.8994,1.9381,2.0464,2.0464,2.056,2.0609,2.0731,2.0762,2.076,2.0925,2.1099,2.0992,2.0745,2.1305,2.1458,2.1327,2.0968,2.1634,2.1628,2.1268,2.0926,2.0752,2.0536,2.05,2.0197,1.964,1.9523,1.9301,1.9265,1.9512,1.9587,1.997,2.0067,2.0157,1.9937,1.9668,1.952,1.9546,1.9598,1.9623,1.9726,1.9889,2.0064,1.9989,2.0022,2.0367,2.0602,2.0557,2.0877,2.099,2.1159,2.151,2.1648,2.1296,2.0986,2.0669,2.0337,1.9863,1.9435,1.9343,1.9258,1.924,1.9095,1.9043,1.8874,1.8746,1.8477,1.8269,1.8269,1.8269,1.8269,1.8269,1.8288,1.8308,1.8341,1.8361,1.8341,1.84,1.8269,1.819,1.8106,1.7967,1.7887,1.7807,1.7626,1.7666,1.7706,1.7686,1.7483,1.7483,1.7767,1.7767,1.7497,1.7517,1.7585,1.7401,1.7146,1.6972,1.6858,1.6607,1.6436,1.6565,1.668,1.6858]}]]